GFSFLT2_sfc_wetblb_000.txt.gz
Wetbulb
69.81 69.23 68.74 67.53 66.66 66.05 66.51 67.29 67.53 67.89 68.39 68.32 68.01 67.92 66.39 65.78 65.96 65.60 64.98 64.88 65.53 66.60 66.35 66.57 66.76 67.12 66.91 66.69 66.08 66.37 65.03 64.95
68.58 69.39 69.45 67.47 65.16 64.96 65.31 66.44 66.82 67.18 67.54 67.65 68.06 66.66 65.01 64.22 64.06 64.01 63.81 64.59 63.10 62.07 61.02 64.30 65.59 65.69 65.43 65.28 64.73 64.99 63.92 63.78
68.84 68.77 69.43 68.58 67.90 65.60 66.11 66.49 66.66 66.22 65.60 66.28 65.28 66.89 65.13 63.56 63.14 63.36 62.99 62.62 62.69 61.21 60.07 60.73 62.55 63.64 64.33 64.55 64.00 62.48 62.11 62.75
64.14 66.26 67.36 67.83 66.95 65.33 68.25 67.85 66.86 66.64 66.76 65.89 65.67 64.90 63.43 63.41 63.21 63.05 62.31 61.66 61.29 60.75 59.84 59.20 58.94 58.08 59.82 62.94 60.89 60.15 59.69 62.16
61.59 64.43 66.36 67.41 66.80 66.68 66.82 66.48 66.06 65.68 65.41 64.88 63.79 62.93 62.50 62.24 62.14 62.29 61.77 60.07 60.06 59.35 58.94 58.20 57.49 57.96 57.71 59.57 60.80 60.74 60.15 58.78
60.48 63.66 64.76 65.09 64.64 64.20 64.27 63.50 63.46 62.68 62.86 63.34 62.86 61.96 61.13 60.70 60.78 59.80 59.95 60.02 59.60 58.87 57.44 56.65 56.66 57.88 57.77 57.28 59.02 60.67 60.83 60.97
59.35 61.40 62.82 63.98 63.14 62.46 61.62 60.61 59.61 59.25 59.96 60.10 61.17 60.45 60.23 60.25 59.60 59.13 58.93 59.17 58.67 59.09 58.18 57.25 56.92 57.69 58.31 58.26 57.68 58.20 60.41 60.32
59.38 59.55 61.40 61.64 62.05 61.59 59.98 58.82 57.63 57.71 58.17 58.90 60.16 59.96 59.11 59.20 57.88 57.60 56.87 57.27 57.86 58.11 58.75 59.49 58.99 58.78 58.38 59.30 58.86 57.71 58.72 59.81
57.51 58.26 59.85 59.67 59.90 59.08 58.27 56.36 56.13 56.05 57.19 57.76 57.84 58.37 56.16 55.50 54.92 54.49 55.08 55.63 55.59 55.43 54.47 55.04 56.10 58.94 58.79 59.48 59.83 59.58 59.50 60.10
56.57 55.44 56.75 57.18 57.57 55.96 55.73 55.16 55.46 55.94 57.02 56.70 56.14 56.16 55.66 54.67 54.03 53.41 52.48 53.22 52.30 50.80 50.32 50.88 52.88 53.98 55.10 54.79 55.59 57.68 59.58 59.74
55.43 54.69 54.19 55.55 55.53 54.78 54.74 54.82 54.23 55.25 56.08 55.03 54.90 54.22 53.81 52.30 52.34 52.34 51.46 50.17 49.48 48.60 47.92 47.61 46.77 47.52 48.73 51.08 50.33 52.18 55.12 58.71
55.06 54.54 54.27 54.96 54.29 53.91 53.68 53.58 53.66 53.68 53.86 53.59 53.69 52.60 52.37 51.24 51.57 51.02 50.59 49.34 48.78 48.52 47.84 47.88 47.30 46.95 47.35 46.53 46.79 48.77 52.96 57.03
53.67 53.12 53.55 52.49 51.84 50.93 50.69 50.55 51.85 52.49 52.90 53.34 53.15 52.66 52.32 51.15 50.42 49.82 50.19 49.08 48.37 48.11 47.42 46.51 45.93 47.34 45.27 43.80 44.66 46.07 46.68 50.47
53.38 53.18 53.29 52.64 51.78 51.59 51.58 51.80 51.74 51.89 52.38 52.23 52.45 52.85 51.80 51.37 50.61 49.07 49.19 47.80 48.02 48.22 47.48 45.29 45.88 46.16 44.09 42.70 39.82 41.82 45.95 47.70
53.86 53.21 52.99 52.90 51.90 51.65 51.58 51.32 50.28 49.29 49.62 50.30 51.60 52.03 52.42 51.80 50.94 49.76 48.84 48.49 47.40 47.00 46.42 45.88 43.53 45.10 45.23 42.99 39.37 37.77 40.99 44.13
54.44 54.00 53.07 52.99 53.02 50.52 49.74 48.04 46.78 47.95 48.37 49.39 50.08 51.86 51.30 51.09 50.93 50.43 48.94 48.51 47.50 47.70 47.84 46.83 45.26 42.59 44.66 46.75 44.41 43.22 40.10 39.10
54.34 54.11 53.54 53.28 52.98 51.55 49.79 48.67 48.60 49.11 49.13 49.72 49.09 49.54 50.14 50.21 49.85 49.33 48.08 48.01 47.47 46.57 46.28 46.25 45.75 44.26 43.77 43.45 43.27 43.71 43.73 41.57
54.93 53.95 53.34 53.42 52.70 51.89 50.26 48.14 48.63 48.00 48.18 46.44 47.55 47.69 47.35 48.23 47.43 46.03 45.93 45.50 44.78 44.20 43.91 43.94 43.73 43.60 43.48 43.61 42.79 41.28 41.04 40.68
54.87 53.97 52.60 53.02 52.81 52.05 50.57 49.65 48.96 48.22 47.89 46.29 45.89 43.94 44.25 44.05 44.23 43.80 43.21 43.00 43.24 43.01 42.13 41.78 41.96 41.68 41.37 41.18 42.15 41.89 42.57 41.58
53.96 52.98 52.27 52.58 52.23 51.85 51.02 50.26 48.63 47.97 47.25 45.16 43.38 42.83 43.00 44.03 43.01 42.93 42.86 42.93 42.02 41.70 41.20 40.98 40.86 40.76 40.44 41.39 41.66 41.76 42.14 41.82

GFSFLT2_sfc_wetblb_003.txt.gz
Wetbulb
66.64 67.09 67.09 66.35 65.59 65.54 65.77 66.23 66.96 67.73 67.83 67.40 67.16 66.33 66.29 66.24 66.12 65.90 66.08 66.19 67.04 66.42 66.25 65.94 66.80 66.64 66.46 66.02 66.04 66.42 65.65 65.38
66.33 66.07 65.48 63.68 62.59 64.25 64.87 65.43 65.71 66.59 67.11 67.20 65.20 64.80 64.87 64.84 64.60 64.70 65.14 64.61 64.15 63.72 64.66 64.89 65.26 65.21 64.86 64.42 64.47 64.60 63.54 63.28
64.20 64.66 65.64 63.96 63.09 64.09 64.98 65.72 65.68 65.69 65.91 66.13 64.60 63.23 62.40 61.33 63.21 63.68 63.36 64.04 63.41 62.08 62.66 63.91 63.72 63.24 63.30 62.89 63.32 61.77 61.73 62.09
60.74 61.78 62.64 63.68 65.70 63.70 64.12 65.53 64.33 64.11 63.85 63.20 63.05 61.33 60.25 61.00 62.15 62.88 62.19 61.64 61.47 61.32 60.90 60.86 59.78 57.76 58.34 61.87 60.54 60.00 59.11 58.37
57.90 61.20 61.77 61.67 61.63 63.35 63.86 62.78 63.05 62.25 61.60 61.16 59.51 60.00 59.29 59.78 59.24 59.72 58.45 59.54 58.09 58.61 58.64 58.41 57.56 57.21 57.01 57.04 58.92 59.69 59.59 59.88
57.16 59.24 60.17 59.51 58.88 58.40 58.29 60.54 59.18 59.53 59.86 60.56 59.45 58.61 57.76 57.58 56.77 57.26 56.88 57.23 56.75 58.23 56.23 55.53 55.18 56.45 56.15 55.91 57.05 57.68 58.97 58.99
55.44 57.72 58.51 59.65 57.51 56.58 55.59 54.72 54.34 54.29 55.47 56.03 56.96 57.63 57.30 57.30 57.30 56.56 56.97 57.48 57.20 56.01 56.27 55.65 55.05 56.05 56.47 56.11 56.47 57.29 57.60 58.47
53.40 55.25 56.62 57.28 57.04 55.53 54.10 52.48 52.28 52.79 53.67 55.21 56.64 55.34 54.48 54.38 55.17 55.57 54.57 54.37 54.48 53.55 52.77 53.44 55.75 57.45 57.37 56.85 57.29 57.34 56.97 57.29
51.82 52.27 54.68 54.31 55.68 55.09 53.46 51.87 52.46 51.55 53.08 54.08 54.20 54.45 51.85 51.17 50.32 50.78 51.01 52.73 53.70 52.66 51.84 51.48 51.54 53.45 54.28 56.25 56.98 58.66 59.12 58.25
50.86 52.83 52.47 52.07 53.05 53.32 52.01 49.40 49.63 51.03 53.16 53.03 53.26 53.58 53.25 51.35 50.51 49.26 48.52 49.00 49.54 46.37 46.09 45.78 47.15 46.89 48.30 50.74 52.59 52.64 53.86 56.45
49.63 47.13 48.03 49.88 49.79 49.81 49.32 49.80 49.11 50.31 52.78 51.89 52.09 51.96 51.43 48.54 49.52 48.48 47.93 47.63 46.65 46.55 45.50 44.99 43.61 43.69 44.65 44.90 44.40 45.45 48.72 51.36
49.43 48.60 48.27 49.55 48.94 48.10 47.94 47.75 48.03 48.92 50.72 51.10 51.57 50.42 49.84 47.46 48.40 48.40 47.62 46.63 46.28 45.61 45.04 45.36 44.86 44.30 46.64 45.37 42.96 44.76 46.60 48.16
48.50 47.89 48.14 47.75 46.39 45.97 45.52 45.43 46.88 47.18 47.69 50.16 50.08 49.48 49.16 47.67 46.61 47.49 47.33 46.03 45.46 45.14 45.08 43.98 43.17 44.09 42.33 42.47 42.31 43.30 43.47 44.91
47.54 47.94 47.75 47.24 46.99 46.51 46.03 45.42 46.03 46.91 47.81 48.37 49.32 48.97 48.65 48.04 47.14 45.44 45.95 45.06 44.63 44.66 44.96 43.00 43.45 43.81 41.80 40.43 37.81 40.85 42.27 44.54
48.70 48.01 47.87 47.75 47.31 46.67 46.03 45.64 45.91 44.97 45.57 46.68 47.38 48.65 48.73 48.24 47.20 46.28 45.51 44.94 44.14 44.57 43.69 42.54 41.19 43.39 43.05 41.36 38.95 36.86 39.88 42.55
49.15 49.46 49.13 48.87 47.76 45.62 45.05 44.40 44.12 44.45 45.10 45.18 46.55 48.17 48.72 48.99 48.34 47.27 46.24 45.20 44.53 44.79 46.08 44.26 42.91 40.92 42.83 45.07 42.96 42.23 39.91 39.05
48.92 49.22 49.57 49.95 48.40 46.67 45.40 43.98 45.36 45.67 46.05 45.59 45.34 46.99 47.92 47.91 46.38 46.39 45.51 44.66 44.25 42.72 42.19 42.45 43.14 42.84 42.15 41.62 41.88 42.41 42.29 40.79
48.22 48.13 49.03 49.39 49.11 48.20 46.68 45.80 46.24 45.33 44.90 43.96 44.90 44.69 44.53 44.08 43.86 42.36 41.97 41.70 41.96 41.73 41.45 40.27 39.94 40.56 41.37 41.21 40.21 39.69 39.59 39.74
48.31 48.65 48.95 49.15 48.40 48.05 47.83 47.36 46.36 45.50 44.82 42.88 42.12 41.18 41.70 41.09 41.73 41.68 41.51 41.66 41.83 41.90 41.08 40.12 39.59 39.23 38.78 39.92 40.50 40.38 40.41 39.64
48.40 49.26 49.51 49.47 47.97 47.70 48.03 47.71 47.23 47.07 45.70 42.99 40.23 39.70 40.83 41.29 41.04 41.25 41.01 40.99 40.83 41.03 40.34 39.51 38.78 39.00 37.99 38.11 39.59 40.38 41.60 40.61

GFSFLT2_sfc_wetblb_006.txt.gz
Wetbulb
65.47 65.77 66.33 66.52 65.79 65.74 65.48 66.43 67.28 67.71 67.48 67.22 66.84 66.55 66.68 66.57 66.31 66.46 66.59 66.77 66.39 65.32 65.05 64.46 64.76 66.08 65.57 65.05 64.94 65.56 65.57 65.12
64.19 64.36 63.97 62.22 61.72 64.56 64.77 65.18 66.00 66.86 66.52 65.88 65.14 64.99 65.12 64.97 64.81 65.43 65.31 65.08 65.04 64.87 65.69 65.58 65.83 65.41 64.86 64.33 64.17 64.26 63.06 63.19
64.59 64.46 64.10 61.80 60.60 63.04 64.76 65.59 65.63 65.70 66.32 65.22 63.23 62.03 61.47 61.72 62.83 63.91 63.88 63.75 62.73 62.06 62.09 62.50 61.92 61.59 62.37 62.41 62.72 61.45 60.74 60.85
60.86 62.41 63.00 62.69 63.71 62.86 62.40 64.37 63.65 63.16 63.45 63.65 62.59 60.34 59.49 60.58 61.77 62.85 62.00 61.81 61.68 61.41 61.38 61.21 59.27 57.36 57.27 58.99 59.75 59.86 59.51 58.82
59.22 60.29 60.74 59.46 60.88 62.17 62.56 62.27 62.05 62.06 61.37 60.96 59.48 58.93 59.06 58.78 57.98 58.44 56.64 59.05 56.92 57.37 56.82 56.36 56.16 56.26 56.24 56.00 56.63 57.28 58.26 59.23
57.70 58.87 59.05 57.70 57.34 61.12 60.91 60.33 60.97 59.77 59.76 59.41 58.18 57.34 56.42 56.60 56.00 56.78 55.54 55.58 55.22 55.06 54.85 55.10 53.85 54.27 55.16 54.74 54.94 55.44 56.04 57.35
55.85 57.55 58.20 57.57 55.85 54.42 54.15 54.06 55.03 54.77 55.31 56.00 58.57 57.16 56.24 56.32 56.00 55.00 55.22 55.38 54.98 53.98 55.90 57.16 56.38 56.74 56.68 55.60 55.58 55.50 56.12 56.79
55.08 55.77 57.13 57.43 55.20 53.76 52.24 51.82 51.69 52.12 53.52 54.37 56.42 56.16 55.14 55.66 55.10 55.46 54.08 53.39 52.98 51.68 50.95 50.37 50.79 52.02 54.50 56.90 57.71 57.16 56.74 56.66
52.65 53.89 54.52 53.97 55.39 54.07 52.40 50.98 51.01 51.31 52.26 53.13 54.51 53.19 51.11 51.19 50.79 51.71 52.14 52.36 52.27 51.30 49.88 49.33 48.55 50.40 48.94 50.88 52.66 53.48 53.65 54.95
50.85 54.31 52.86 52.05 53.50 53.11 52.90 51.08 49.22 50.16 51.57 51.81 52.56 53.36 51.82 50.05 49.11 48.50 47.86 48.47 49.87 45.08 44.58 43.96 43.45 43.67 43.48 44.47 47.53 50.00 48.18 48.48
46.89 49.50 49.90 49.45 49.08 49.62 48.52 49.40 47.57 48.58 51.40 51.42 51.77 52.17 51.30 49.10 49.56 47.90 46.64 46.89 45.68 45.15 43.93 43.72 42.36 42.67 43.24 43.74 42.80 42.48 43.20 46.99
47.35 46.19 47.12 48.45 47.71 46.58 46.24 46.47 46.46 46.60 50.16 50.79 51.60 50.80 50.37 47.03 48.16 47.44 46.40 45.63 45.27 44.28 43.45 43.69 43.32 42.62 44.79 43.67 42.31 42.67 43.07 42.81
47.40 46.90 46.86 46.04 45.14 44.61 43.90 44.19 45.38 45.55 46.85 50.94 50.51 50.04 49.50 46.73 46.03 47.18 46.81 45.02 45.09 44.11 43.40 42.97 41.80 42.07 40.74 41.29 41.05 41.60 42.06 43.41
46.35 46.52 46.46 46.18 44.96 44.74 44.98 43.90 44.51 45.74 46.19 46.54 49.62 49.22 47.96 47.04 45.61 45.75 45.42 44.68 43.75 44.15 43.90 42.25 42.06 42.22 40.45 38.82 36.90 39.99 41.06 42.69
46.91 46.67 46.60 46.50 46.36 44.92 44.18 43.85 43.74 43.82 44.19 44.75 46.71 48.38 48.56 47.44 46.04 45.25 44.07 43.95 43.07 42.65 42.74 41.63 40.19 41.69 41.49 40.25 36.50 34.64 39.86 42.03
46.26 47.29 47.02 46.95 46.43 44.20 43.71 45.59 44.87 46.51 46.87 44.26 45.73 47.94 47.80 47.43 46.53 45.53 44.15 43.96 43.54 43.57 43.62 42.06 41.53 39.21 41.13 43.44 41.43 39.78 36.84 35.93
46.91 47.04 47.45 48.41 47.67 46.04 44.57 44.15 45.64 46.43 43.09 43.07 43.31 44.66 46.27 46.79 46.26 45.24 44.30 43.91 42.33 40.60 40.54 38.67 40.26 38.79 38.70 38.66 38.45 38.76 38.59 36.43
47.70 47.27 47.76 48.09 47.68 47.12 44.92 43.91 45.23 43.87 44.21 43.42 43.14 41.95 41.86 42.95 43.01 41.91 41.24 41.02 40.60 39.98 39.88 37.98 38.26 38.89 38.17 38.42 37.68 35.71 35.78 35.25
46.86 46.81 47.88 49.34 47.19 46.82 46.62 45.78 45.61 44.67 44.77 44.61 43.53 41.80 40.67 40.37 40.80 40.92 40.15 40.03 40.18 39.34 40.74 40.54 39.27 38.42 36.26 36.80 38.31 38.33 38.80 37.95
46.79 47.64 46.78 46.91 46.41 46.39 45.29 45.29 44.69 44.47 43.44 42.20 40.13 40.88 39.72 40.14 39.71 39.94 40.78 41.15 40.26 40.94 41.32 40.68 39.69 37.14 37.01 37.39 37.86 38.66 38.99 38.36

GFSFLT2_sfc_wetblb_009.txt.gz
Wetbulb
64.37 64.90 66.04 66.50 65.88 65.86 66.20 66.78 67.28 67.46 67.08 67.03 66.99 66.79 66.88 66.81 66.56 66.93 66.86 66.80 66.62 65.05 65.60 64.54 64.56 64.87 65.01 64.63 64.20 65.07 64.17 64.52
62.92 63.27 63.43 62.02 61.53 64.83 64.72 65.59 66.28 66.45 66.14 65.65 64.87 64.90 65.30 65.08 64.43 65.49 64.91 64.93 64.24 63.87 64.24 64.65 64.85 64.19 63.68 62.81 62.48 63.30 61.34 62.07
62.77 62.56 61.96 60.64 59.29 62.09 64.54 65.42 65.76 65.85 65.58 64.80 62.48 61.23 60.03 60.22 63.02 63.62 63.93 63.07 62.68 62.31 61.94 61.49 60.39 59.75 60.34 61.07 60.87 59.96 59.58 59.49
62.63 62.43 62.38 61.09 62.49 61.36 61.33 63.02 62.67 62.82 63.53 61.98 61.30 59.27 58.54 59.72 61.18 62.37 61.54 61.39 61.21 60.73 60.77 59.66 58.33 56.07 56.31 57.96 56.26 57.07 57.83 58.64
60.83 61.82 61.24 61.04 61.24 60.98 60.80 61.23 60.92 60.93 60.65 61.08 59.64 58.58 58.43 57.65 57.11 57.17 55.59 58.21 55.55 56.13 55.13 54.85 53.84 53.40 53.87 54.33 54.74 55.00 55.11 56.33
58.48 59.21 57.96 56.20 59.74 61.08 61.22 60.68 60.62 59.94 59.69 59.06 57.61 56.15 55.97 56.17 55.73 55.85 54.75 54.61 53.99 54.15 53.98 54.12 53.92 54.10 54.28 53.93 54.47 54.65 54.48 55.41
56.90 57.57 57.22 55.87 56.44 55.20 56.68 57.14 59.72 58.51 58.25 58.14 57.75 56.05 55.05 55.15 54.31 54.51 53.75 54.25 53.74 53.02 52.77 53.43 53.50 53.74 54.18 54.64 55.28 55.51 55.27 55.79
55.11 56.06 56.95 55.30 53.77 52.78 52.48 52.60 53.27 53.37 53.53 54.07 56.74 56.51 55.33 55.11 54.77 54.13 53.81 53.11 52.08 50.54 49.37 48.81 48.46 49.62 50.62 51.49 53.31 54.25 54.29 54.66
54.48 54.59 55.51 54.97 54.34 53.08 51.17 50.20 50.70 50.61 52.08 53.38 54.96 54.90 53.34 53.65 53.55 53.33 52.97 51.77 50.85 49.99 48.48 47.83 45.46 47.27 45.41 46.42 46.99 49.33 51.07 49.05
51.98 55.07 53.15 51.89 53.24 52.81 52.06 50.46 49.15 49.17 50.66 51.32 53.08 52.95 50.95 49.28 48.87 50.04 50.39 48.52 50.55 46.86 43.33 42.76 42.34 42.09 41.99 42.42 43.23 46.09 45.18 44.11
48.29 51.06 51.03 50.14 51.07 51.16 49.95 49.40 47.34 47.36 49.53 50.47 50.87 51.91 51.70 49.74 48.99 48.35 46.85 46.19 46.72 44.09 43.15 42.68 41.49 41.28 41.86 42.32 41.59 41.49 41.96 44.83
45.87 48.09 48.25 47.33 46.73 45.94 45.41 45.46 46.02 46.12 47.33 49.92 51.07 50.63 50.78 47.94 48.12 48.11 45.92 44.72 44.36 43.22 42.75 42.44 42.17 41.65 43.23 43.18 40.97 41.72 41.37 41.34
45.21 44.80 44.87 45.01 44.44 44.04 43.44 43.87 44.57 44.87 45.43 48.34 50.61 50.42 49.77 47.27 46.33 47.15 45.95 44.51 44.12 43.68 42.44 41.59 41.16 40.90 39.80 39.60 40.20 40.78 40.84 41.28
45.32 45.86 45.57 44.93 44.14 43.91 43.96 43.15 43.54 44.25 45.00 46.12 49.37 50.37 49.88 48.22 45.97 46.29 46.43 44.88 43.60 43.25 42.45 41.24 41.15 41.25 39.23 37.65 35.69 37.90 38.72 41.84
45.30 45.59 45.32 45.29 45.26 43.92 43.38 42.89 43.00 42.67 43.69 43.37 45.85 49.43 50.60 48.72 46.61 45.84 45.44 45.72 44.55 43.01 42.30 41.42 39.80 40.59 40.52 39.12 34.89 33.32 36.73 39.32
45.03 45.51 45.42 45.99 45.47 44.26 42.84 43.67 44.02 46.53 46.15 45.70 45.81 46.12 48.02 49.53 48.41 45.89 44.95 43.39 41.61 41.25 42.34 41.15 40.36 38.07 38.33 42.23 39.78 38.57 32.34 30.85
44.77 45.85 47.04 47.04 46.71 45.78 44.80 43.55 45.14 46.22 45.61 42.87 43.62 43.68 45.84 47.25 47.78 46.08 44.11 44.26 43.14 41.31 39.74 38.08 38.39 37.88 37.33 36.26 35.72 36.27 36.54 34.44
45.39 46.36 46.75 47.60 47.08 46.50 44.80 43.33 44.15 43.53 43.84 42.95 43.87 42.01 42.03 44.07 43.99 43.55 41.87 41.06 40.37 39.17 39.60 39.39 38.54 38.12 38.97 38.72 37.59 35.23 33.53 32.06
45.07 45.03 45.28 45.32 44.88 44.85 44.90 44.16 43.32 42.95 43.26 43.38 41.84 39.19 38.07 38.72 40.07 39.18 39.18 39.75 40.32 41.42 40.99 41.73 41.53 40.59 39.32 39.67 38.86 37.73 37.07 35.27
44.38 44.76 44.96 45.31 44.60 43.77 42.73 41.92 41.98 42.98 42.56 41.23 40.08 37.83 37.28 38.47 39.54 41.43 42.23 42.30 42.78 43.10 42.81 41.38 40.92 39.91 39.18 37.83 36.84 36.27 36.36 36.20

GFSFLT2_sfc_wetblb_012.txt.gz
Wetbulb
62.82 63.32 65.09 66.21 65.77 65.87 66.11 66.69 67.12 66.92 66.56 66.65 66.36 66.52 66.48 66.27 66.32 66.33 66.06 66.00 65.84 65.49 65.23 65.65 65.30 64.99 64.30 63.01 62.86 63.90 62.16 62.61
61.55 61.73 62.46 61.35 61.13 64.77 64.88 65.54 65.90 66.01 65.74 65.19 64.45 64.36 64.48 64.39 63.46 64.87 64.38 63.85 63.42 63.16 62.87 62.59 61.85 61.35 61.45 61.33 61.37 61.57 59.73 60.05
61.41 61.42 61.12 59.55 58.80 61.59 64.28 65.40 65.56 65.72 65.12 64.47 61.81 60.00 58.97 59.09 62.89 63.71 63.20 62.68 62.24 61.89 61.65 61.03 59.87 59.12 59.47 59.58 58.67 57.62 58.34 58.67
61.70 61.62 60.99 59.93 61.00 59.92 60.37 61.88 61.88 62.14 62.67 61.07 60.03 58.56 57.88 59.15 60.46 62.22 61.15 61.07 60.89 60.28 59.86 58.77 56.01 53.91 54.22 56.40 54.84 55.30 55.91 56.59
62.40 61.83 61.19 60.59 60.60 59.56 59.32 60.10 60.02 60.05 60.28 60.44 59.34 58.78 57.59 56.91 56.15 56.25 54.62 57.77 54.25 54.96 54.40 54.47 54.06 53.59 53.79 54.17 54.61 54.77 54.59 55.49
61.28 60.86 60.45 59.26 59.41 59.76 59.45 59.90 59.68 59.40 59.35 59.16 57.71 56.41 55.25 55.57 55.19 54.99 54.47 53.87 53.22 53.25 53.32 53.54 53.68 53.75 53.81 53.46 53.90 54.03 54.47 55.59
57.57 57.95 57.40 55.69 57.68 58.25 58.90 59.10 59.52 59.17 58.43 57.89 57.15 55.57 54.61 54.67 54.53 53.71 53.58 53.45 53.40 52.95 51.66 51.26 50.45 51.06 51.50 52.31 52.75 53.76 54.21 54.10
56.05 56.16 56.44 54.80 54.08 54.12 55.38 55.08 56.51 56.19 56.11 56.73 56.27 56.25 54.65 53.97 54.03 53.67 52.89 53.16 52.55 50.75 48.94 47.68 46.74 47.81 48.43 47.74 48.64 49.62 51.48 50.47
54.10 55.06 55.57 54.33 53.25 52.21 51.01 51.20 51.60 51.35 52.50 52.97 53.30 55.20 54.67 54.22 53.69 53.26 53.35 52.59 50.77 49.27 48.06 47.19 44.84 45.36 44.19 45.20 45.52 46.62 49.68 47.38
53.19 55.44 54.19 53.61 52.87 52.56 51.53 49.87 49.16 48.77 49.86 51.06 52.30 53.78 53.36 51.66 51.40 51.53 52.25 51.09 50.20 48.81 44.26 43.14 42.31 42.14 42.06 42.40 42.91 44.05 44.44 44.17
51.39 51.08 51.92 51.08 50.88 51.56 50.89 50.15 48.69 47.91 47.96 49.41 50.53 51.74 52.18 49.50 48.62 48.82 49.50 48.29 47.94 47.87 42.86 42.39 41.06 40.91 41.39 41.54 41.62 41.47 42.55 44.43
48.82 48.81 50.04 48.83 46.70 45.74 45.48 45.08 45.32 46.11 45.95 47.33 49.74 50.36 51.01 49.96 48.62 48.19 47.45 45.22 44.44 43.70 42.59 41.95 41.94 41.56 42.92 42.58 41.29 41.68 41.79 41.62
45.14 45.98 46.25 44.85 43.97 43.93 43.40 44.08 44.00 44.60 45.30 46.47 48.06 49.81 50.43 49.80 48.51 47.59 47.11 45.34 45.13 43.71 42.36 41.57 40.79 41.24 40.14 39.52 40.20 41.10 40.92 41.11
44.65 44.55 44.17 43.49 43.22 42.81 42.87 42.20 42.83 43.11 44.12 44.95 45.92 47.38 49.29 49.83 48.50 47.14 46.56 46.37 43.40 42.91 41.90 40.53 40.91 40.41 38.97 37.57 36.15 37.95 38.68 41.08
44.14 44.05 43.91 43.86 44.51 43.81 43.26 42.89 43.06 42.92 44.02 43.42 45.05 45.74 47.52 48.84 49.24 48.12 46.27 46.10 45.82 44.22 42.99 41.12 41.05 39.91 40.60 38.80 34.80 33.56 35.13 38.02
43.84 44.91 45.02 45.97 45.40 44.07 42.96 41.95 41.97 44.13 44.09 44.55 45.49 44.83 44.93 47.01 48.83 47.93 46.15 45.04 44.50 41.62 42.39 41.42 39.83 38.47 39.23 41.80 38.94 38.19 31.96 31.10
44.01 45.26 45.82 45.91 45.22 44.59 43.67 44.00 45.05 44.52 44.36 43.26 43.97 44.05 43.20 44.22 45.25 45.99 43.83 42.63 42.14 43.02 39.28 38.99 39.78 38.19 37.90 36.98 36.08 36.83 36.89 33.69
43.82 44.49 45.13 45.73 45.12 45.25 43.40 41.76 41.77 41.93 42.27 42.26 42.83 42.34 41.07 40.79 42.68 41.32 39.56 38.81 38.44 39.10 40.51 40.50 40.09 40.07 39.03 38.52 37.50 35.35 35.08 34.41
44.65 44.21 44.59 45.26 46.19 43.26 41.14 40.40 39.99 39.88 40.68 41.68 41.31 40.25 36.74 36.69 37.96 38.74 39.10 39.41 40.57 41.28 41.07 41.80 41.30 40.32 40.08 39.54 40.47 38.53 38.34 36.67
43.98 44.60 44.69 44.69 43.13 40.58 40.31 40.85 39.78 39.73 39.88 39.39 38.40 36.76 36.17 38.46 39.69 40.26 40.50 40.66 41.01 42.21 42.02 41.34 40.42 38.66 37.06 37.83 38.20 38.55 38.58 37.77

GFSFLT2_sfc_wetblb_015.txt.gz
Wetbulb
66.10 66.52 66.64 66.19 65.79 65.89 66.11 66.73 66.96 66.55 66.56 66.25 66.34 66.36 65.96 66.09 66.31 66.03 65.83 65.12 64.91 64.80 64.45 64.41 63.68 63.02 62.19 62.02 62.47 62.69 65.16 65.10
66.00 66.77 66.47 66.53 66.68 64.89 65.14 65.67 66.09 65.89 65.69 64.92 64.48 64.30 64.28 63.66 63.53 64.44 64.33 64.05 63.75 63.33 62.87 62.39 61.71 61.38 61.21 60.60 60.10 61.17 63.59 64.08
66.34 66.17 66.04 65.22 64.83 65.03 65.30 65.69 65.72 65.72 65.56 64.30 63.94 66.23 64.76 63.88 63.11 63.31 63.15 62.61 62.17 61.74 61.15 60.34 58.86 58.44 59.01 58.62 58.74 61.92 61.89 62.15
66.01 66.49 66.20 65.31 63.49 65.00 66.07 65.93 67.28 67.42 67.31 66.41 66.32 65.46 64.90 63.25 62.29 61.78 61.39 61.19 60.58 60.08 59.52 58.61 58.41 60.92 61.54 59.36 62.01 61.84 61.89 61.76
65.98 66.43 66.71 65.99 65.18 65.42 65.68 66.14 66.48 66.60 66.36 66.33 66.15 65.70 65.52 64.80 64.06 63.49 62.96 60.09 60.98 60.42 60.88 61.57 60.65 60.89 60.88 60.69 60.58 60.55 61.49 62.02
67.01 66.82 66.43 66.49 66.27 65.92 65.38 65.36 65.94 66.08 66.22 65.49 65.79 64.78 64.33 63.50 62.82 62.69 62.54 62.14 60.91 61.42 61.77 60.67 60.10 59.61 58.86 58.38 58.29 59.81 60.26 59.64
66.99 66.51 65.75 64.96 63.26 64.64 65.06 65.22 65.69 66.03 65.57 65.37 64.86 64.02 63.31 62.24 61.89 61.78 61.57 61.42 60.57 60.91 60.20 58.33 56.70 55.75 56.41 55.75 55.62 56.10 57.73 55.91
65.19 63.60 63.12 62.36 61.98 63.41 64.41 64.68 64.99 64.86 64.94 64.59 64.18 63.45 62.91 61.98 61.58 61.19 61.00 60.79 60.83 60.72 58.94 56.07 55.00 54.33 54.11 53.28 53.43 54.43 56.10 54.86
62.06 61.84 62.40 62.06 60.77 60.46 60.55 61.37 60.56 62.29 62.80 62.83 62.57 62.18 61.89 61.26 61.10 60.97 61.11 61.14 60.61 59.27 56.55 55.68 54.08 52.75 52.44 52.44 52.48 53.01 54.26 53.20
60.26 60.19 61.11 61.25 60.41 60.27 59.83 59.03 58.44 58.23 58.21 58.76 59.36 59.64 60.13 60.40 59.89 60.01 60.74 60.25 59.62 58.36 56.81 54.61 52.48 51.73 51.69 51.74 51.65 51.95 51.98 51.66
59.03 59.97 59.97 59.88 58.84 58.95 59.18 58.66 58.35 58.11 57.27 56.81 57.48 58.05 58.70 58.89 58.59 58.62 58.82 58.04 58.07 57.68 56.37 53.99 52.32 51.37 50.66 51.26 51.48 51.02 51.55 50.46
58.49 58.36 58.12 57.69 56.79 56.12 55.48 55.10 55.37 55.09 55.22 55.15 55.52 56.12 57.06 57.41 57.54 57.31 56.97 55.82 55.74 55.55 54.93 53.79 52.13 51.39 49.39 49.30 51.25 51.26 51.04 51.16
56.58 55.70 55.31 55.29 54.26 53.09 53.37 53.02 53.31 53.74 54.00 53.73 53.88 54.17 54.76 55.54 55.64 56.12 56.10 54.94 54.86 54.63 53.64 52.50 50.96 50.69 48.98 49.37 49.77 50.60 50.58 50.57
52.37 51.17 51.01 50.90 51.62 52.01 51.97 51.59 52.18 51.77 52.55 53.36 53.67 53.26 53.37 53.24 54.19 54.12 54.57 53.69 54.40 53.86 52.41 51.20 50.43 50.96 48.38 48.18 45.27 47.78 48.40 49.34
50.02 50.37 50.88 51.60 51.52 51.99 52.38 52.44 52.76 52.26 52.58 52.34 52.94 53.01 52.68 52.47 52.61 52.78 53.18 53.31 52.18 53.73 53.14 51.25 50.32 50.25 49.83 48.04 44.84 43.21 46.76 47.76
51.82 51.96 52.22 51.79 52.20 51.51 50.39 49.17 48.19 49.91 50.23 50.83 51.14 51.95 51.69 51.46 51.10 51.31 51.92 52.38 51.62 51.61 51.91 50.82 49.82 48.38 47.75 47.46 47.17 45.53 43.49 42.85
51.34 51.73 51.56 51.31 51.11 49.92 49.25 48.74 49.03 49.27 49.27 48.83 49.49 50.34 50.66 49.71 49.05 49.27 49.84 50.51 50.40 49.52 49.63 48.35 48.32 48.09 46.05 45.28 43.99 43.81 43.99 40.87
51.44 51.18 51.12 51.58 51.34 49.41 48.56 48.00 47.67 47.68 47.97 47.66 48.04 48.00 48.11 46.74 46.86 46.97 46.74 46.04 45.70 46.00 45.79 45.09 44.56 44.29 44.23 43.17 42.46 40.32 39.97 39.81
50.72 50.67 50.20 50.60 50.27 48.05 47.77 47.72 47.87 47.15 47.16 46.85 46.21 45.61 45.84 44.41 45.14 45.45 45.45 45.78 45.74 45.56 43.91 42.18 40.76 39.42 38.54 38.23 37.78 36.82 37.15 36.78
50.37 49.73 49.47 50.00 49.62 48.34 47.20 48.27 47.43 46.71 46.19 45.58 44.30 43.76 43.88 45.01 45.30 45.62 45.72 46.11 45.95 44.15 41.76 40.84 39.62 38.68 37.63 37.82 37.46 37.74 38.23 37.98

GFSFLT2_sfc_wetblb_021.txt.gz
Wetbulb
66.94 67.66 67.48 66.92 66.77 67.05 67.34 67.40 66.81 66.72 66.51 66.60 66.38 66.36 66.16 66.37 66.14 65.84 65.57 65.29 65.05 64.55 64.10 63.77 62.97 62.16 61.50 61.46 61.66 62.79 65.09 65.77
67.80 68.12 68.07 68.68 67.90 66.02 66.74 66.73 66.33 66.06 65.50 65.04 65.22 65.46 65.22 64.50 65.44 64.82 64.36 64.01 63.40 63.12 62.63 62.15 61.85 61.52 61.04 60.82 61.24 62.28 64.59 64.98
68.21 67.67 67.77 67.42 66.53 66.61 65.47 66.51 66.64 66.08 65.92 65.04 65.31 67.86 67.51 66.55 63.68 63.30 62.81 62.46 62.07 61.75 60.98 60.65 61.05 61.24 61.02 60.85 61.29 63.29 63.85 63.78
68.47 69.32 68.46 67.19 65.41 67.15 67.20 66.53 68.06 67.83 68.23 67.90 67.35 67.61 67.36 65.51 64.17 62.89 62.72 62.34 61.91 61.46 61.12 60.77 60.82 62.28 62.48 61.20 62.65 62.45 62.08 61.96
67.86 70.09 69.36 68.21 66.95 65.96 66.86 66.78 67.28 67.83 68.23 67.88 67.48 67.05 67.54 66.38 66.04 65.80 66.00 63.09 64.25 62.29 62.44 62.53 62.65 62.30 61.35 61.09 60.88 61.02 60.55 60.61
67.53 70.65 69.97 68.65 67.44 66.29 65.96 66.02 66.69 66.68 67.18 67.19 66.60 65.54 65.81 65.33 63.87 63.56 63.51 62.76 62.91 62.67 62.19 62.63 62.91 62.07 60.94 60.03 59.49 58.97 58.33 59.52
66.98 69.94 71.05 68.68 67.60 66.75 66.52 66.08 66.47 66.58 66.88 66.04 65.69 64.70 64.51 63.89 63.45 62.57 62.23 62.00 61.82 61.61 61.43 61.09 61.22 60.78 59.79 58.61 57.78 57.61 57.84 57.74
67.31 68.95 71.07 68.88 65.72 66.43 65.97 66.69 66.36 66.02 65.50 64.42 64.79 64.84 64.66 63.46 62.64 61.86 61.61 61.31 61.31 61.30 60.99 60.58 60.37 59.82 59.09 58.60 57.70 56.88 56.87 57.62
66.99 68.94 70.54 68.41 65.56 65.19 64.44 65.06 63.73 64.04 64.13 64.19 63.69 63.71 63.34 63.09 61.81 61.61 61.35 62.34 63.96 62.02 61.30 60.96 60.21 59.95 58.84 58.30 57.25 57.31 56.65 56.70
65.81 68.04 69.15 67.61 65.27 64.93 64.24 64.09 63.30 62.67 62.99 63.18 62.64 62.72 62.80 62.44 61.16 61.19 61.97 62.15 61.24 60.41 59.98 59.26 59.20 58.92 58.89 58.08 57.48 56.87 56.56 56.63
64.64 67.83 67.54 66.41 64.91 63.86 63.97 63.47 62.50 62.41 62.97 61.94 61.66 61.74 61.41 61.12 60.55 60.73 62.49 60.79 61.31 60.91 60.03 60.35 58.70 58.57 57.99 58.88 58.25 56.53 57.01 55.68
64.52 66.48 66.26 64.52 64.26 63.39 61.68 61.30 60.75 61.35 60.57 60.23 60.61 60.52 60.52 60.03 59.73 60.11 60.23 59.24 59.50 60.05 60.35 59.96 59.34 58.88 57.48 57.21 58.86 58.04 57.53 57.36
64.45 64.17 62.41 61.80 61.16 59.12 58.85 58.63 59.23 59.40 59.81 60.18 60.04 59.50 58.99 58.65 57.85 58.01 58.36 56.83 58.21 59.21 58.65 58.21 57.93 59.42 57.76 57.53 58.06 58.53 58.12 56.90
59.66 59.23 58.72 58.83 59.30 58.53 58.85 58.68 58.85 59.17 59.74 59.13 58.78 57.61 56.99 56.27 56.50 55.59 56.99 55.55 57.05 57.41 57.55 55.84 56.71 58.12 55.65 55.24 52.21 54.12 57.01 57.24
58.33 58.46 58.54 58.56 58.70 58.92 58.50 58.67 58.66 57.34 57.07 57.05 57.52 57.38 56.21 55.34 55.32 54.72 55.19 55.69 54.57 56.04 55.93 54.99 53.39 55.28 56.91 53.95 49.87 48.78 52.56 55.98
58.37 58.06 57.83 57.91 58.04 56.75 56.25 55.33 54.50 56.18 56.63 57.05 56.35 56.53 55.52 54.63 53.90 53.64 53.68 53.95 54.19 54.32 53.59 53.61 53.35 51.18 53.39 53.33 53.24 52.51 47.21 47.17
58.49 57.79 57.26 57.38 57.04 56.43 55.93 55.09 55.49 55.83 54.78 54.04 54.16 53.87 53.66 52.76 52.84 53.14 52.36 52.40 52.77 52.54 51.92 50.89 50.57 49.13 47.59 46.28 47.22 49.15 49.24 43.34
57.83 57.18 56.88 57.09 57.12 56.58 55.21 53.90 53.22 52.41 52.49 51.70 51.45 51.58 51.57 51.98 51.37 51.80 51.77 51.84 51.35 49.84 48.14 46.21 45.17 44.80 43.58 41.53 39.61 38.15 37.91 36.66
57.16 56.77 55.91 56.45 55.60 55.06 54.62 53.73 53.28 52.35 51.74 50.86 49.97 49.28 49.26 49.61 50.34 50.66 50.58 50.09 48.19 47.40 46.23 45.65 44.00 41.59 41.45 41.26 40.80 39.33 38.53 37.64
56.55 56.15 55.72 55.83 55.86 55.18 54.80 54.74 53.07 52.25 51.41 50.20 48.63 48.06 48.44 49.70 49.92 50.03 48.41 48.01 47.02 46.19 45.64 44.51 44.52 43.70 42.01 42.08 41.79 42.07 41.61 40.11

GFSFLT2_sfc_wetblb_024.txt.gz
Wetbulb
65.11 65.23 66.62 67.25 66.99 67.08 66.95 67.02 66.97 67.02 67.08 67.02 66.90 66.89 66.86 66.64 66.32 65.83 65.47 65.19 64.89 64.37 63.94 63.57 63.15 62.75 62.52 62.63 62.51 62.81 61.34 62.23
65.59 65.99 66.08 65.82 65.37 66.00 66.33 66.33 66.24 66.28 66.07 65.72 65.68 65.72 65.91 66.27 65.75 65.00 64.26 63.76 63.30 62.79 62.60 62.67 62.83 63.00 62.87 62.67 62.13 62.01 59.73 61.50
66.75 65.84 66.44 66.96 65.88 65.77 66.03 66.49 66.30 66.02 65.63 65.12 64.04 65.60 65.09 65.48 64.07 64.28 63.75 63.23 62.97 62.62 62.32 62.14 62.18 62.23 62.75 62.27 62.05 58.77 59.51 58.88
66.92 66.82 66.29 65.62 64.32 64.99 66.44 66.86 66.18 66.47 66.49 66.41 66.19 65.57 65.25 64.86 64.47 63.76 63.95 63.63 63.42 63.02 62.74 62.38 61.51 58.56 59.59 61.42 59.46 59.41 57.82 57.58
66.94 68.57 67.60 67.42 66.03 64.19 65.57 65.41 65.87 67.01 67.63 65.68 66.12 64.94 66.03 64.59 64.04 62.74 62.40 62.84 62.06 61.42 60.68 59.59 60.59 59.60 58.78 58.27 57.92 56.88 56.03 56.84
67.89 68.97 68.38 66.87 66.31 65.06 64.80 64.67 65.14 65.25 65.13 65.46 64.22 63.49 63.65 62.15 61.49 60.44 60.16 59.79 59.47 59.14 58.71 60.04 59.31 60.19 59.35 57.65 56.75 55.73 54.60 54.66
66.05 68.94 69.53 68.00 66.08 65.90 65.27 64.56 65.44 64.57 64.73 64.64 64.00 62.58 62.24 62.04 60.87 60.44 59.77 59.33 58.24 58.14 57.62 57.69 58.01 58.31 58.20 56.89 55.75 55.03 54.92 54.13
66.69 67.95 69.94 68.44 65.62 64.81 64.38 65.06 65.12 64.67 63.41 62.66 63.24 62.51 62.10 61.22 60.25 59.87 59.14 59.03 58.75 57.81 57.42 57.64 57.21 57.50 56.80 56.85 55.36 54.38 53.87 53.61
66.40 65.57 69.27 68.16 65.24 64.23 63.22 63.24 61.93 61.79 62.53 62.04 61.79 61.64 60.79 60.39 59.49 59.12 59.00 59.64 59.14 58.43 58.09 57.38 56.87 57.39 56.32 56.53 55.91 54.94 54.11 53.71
64.29 66.53 68.78 67.87 65.78 63.87 62.66 62.36 61.58 61.11 60.90 61.24 60.98 61.03 60.81 59.63 59.07 58.79 59.56 59.42 58.35 57.81 56.91 56.02 55.40 55.35 54.96 55.21 54.51 54.43 53.78 53.40
63.95 66.49 67.13 66.87 65.21 63.14 62.44 61.98 60.75 60.75 61.28 60.05 60.58 59.71 60.28 58.62 57.80 58.03 58.89 57.59 57.08 57.14 55.93 55.92 54.54 54.61 54.96 54.40 54.77 54.03 53.50 54.53
64.31 65.61 64.99 63.98 63.23 61.86 60.64 59.97 59.75 59.84 59.25 59.03 59.13 58.16 58.79 57.56 56.64 56.77 57.37 55.50 54.72 54.70 54.76 54.67 54.51 54.42 55.93 55.42 54.60 55.17 54.75 52.56
62.58 60.77 61.14 60.22 59.63 57.49 57.37 56.98 57.75 57.72 58.30 59.12 58.02 57.92 56.54 55.54 54.79 54.36 54.26 53.40 53.45 53.70 52.67 51.46 51.84 52.91 52.64 52.31 53.02 54.35 54.81 55.03
58.93 58.53 58.47 58.01 57.60 57.13 57.17 56.85 57.43 57.42 57.98 56.78 57.69 56.57 55.77 54.73 53.45 52.49 52.40 51.64 51.15 51.10 50.79 50.67 50.65 51.27 50.27 49.55 46.67 49.28 51.58 53.07
57.57 57.77 57.74 57.64 57.43 57.13 56.53 56.46 56.74 55.43 55.40 55.23 56.57 55.84 54.79 54.75 53.86 52.87 51.50 50.87 49.52 49.40 49.55 48.81 48.02 49.24 50.10 48.05 44.41 43.04 46.44 49.67
57.80 57.71 57.35 57.15 56.85 55.47 55.24 54.12 53.00 53.89 54.26 53.69 54.25 54.81 53.54 52.09 51.39 50.94 50.46 50.30 48.82 49.16 50.51 48.61 47.28 45.13 46.70 46.05 44.38 44.06 42.51 42.24
57.82 57.41 56.90 57.10 56.54 56.36 54.64 53.13 52.83 52.81 52.50 52.01 51.20 51.76 51.14 50.72 49.92 48.91 49.23 49.09 48.92 48.21 46.33 44.84 44.24 42.69 41.90 41.26 40.52 40.75 40.71 39.45
57.64 56.70 56.49 57.03 55.72 55.16 53.58 52.17 51.79 50.53 50.61 49.63 49.36 49.01 48.59 48.53 48.97 48.23 48.33 48.47 48.24 47.17 46.31 43.67 44.09 42.66 41.66 40.08 38.16 37.09 36.60 35.12
56.63 56.15 55.15 55.83 55.60 55.22 54.47 53.18 52.99 51.22 49.48 48.30 46.91 46.06 45.92 45.92 47.07 47.35 47.34 47.64 46.48 45.53 44.30 43.77 43.30 39.61 38.86 38.28 39.01 38.71 37.16 36.28
55.70 55.27 54.27 54.18 54.38 52.90 52.90 52.43 50.96 49.45 48.50 46.88 45.45 45.15 45.24 46.44 47.31 47.19 47.19 46.87 45.58 44.69 44.14 43.68 42.61 41.98 40.15 41.15 39.99 40.91 39.55 38.41

GFSFLT2_sfc_wetblb_027.txt.gz
Wetbulb
63.13 65.03 66.55 66.64 66.15 66.09 66.11 66.42 66.44 66.52 66.66 66.59 66.57 66.75 66.87 66.86 66.31 65.72 65.19 64.77 64.22 63.72 63.42 63.43 63.56 63.63 63.37 62.81 62.17 62.81 60.59 59.17
61.58 63.00 63.70 63.68 64.16 65.32 65.22 65.22 65.09 65.14 65.43 65.37 64.97 65.33 65.84 66.06 65.50 65.38 64.85 64.23 63.48 62.68 63.02 62.99 63.15 63.00 63.03 62.72 62.32 62.41 56.84 57.49
62.22 61.72 62.56 62.37 62.63 64.95 65.27 65.73 65.35 64.80 64.88 64.62 63.55 63.09 63.53 64.76 64.07 64.43 64.33 63.94 63.55 63.28 62.98 62.62 62.06 61.72 61.65 61.89 62.00 58.58 57.18 56.99
62.10 61.43 62.37 62.58 64.31 63.46 63.09 64.39 64.37 63.84 63.97 63.27 62.72 62.32 62.59 63.78 62.91 63.75 64.05 63.90 63.54 63.30 62.99 62.32 61.78 57.96 56.62 60.89 58.91 57.83 55.81 54.81
62.66 61.37 61.42 61.73 60.82 61.52 62.63 62.94 63.17 63.13 63.21 61.38 61.32 61.81 61.58 61.35 60.42 60.73 59.85 62.28 60.27 61.10 60.14 59.45 58.60 57.56 56.78 56.28 56.31 55.00 53.22 53.29
63.47 62.62 62.28 61.21 60.91 59.48 59.92 60.66 60.71 62.72 61.98 61.01 59.59 59.69 57.79 58.26 57.22 56.94 57.27 58.12 58.38 57.85 57.03 56.91 56.87 57.17 57.65 56.63 55.36 53.53 52.75 52.18
63.90 63.60 62.36 62.29 60.76 59.78 59.39 59.75 60.49 60.01 60.58 60.51 59.35 58.96 57.49 57.66 56.90 56.80 56.06 55.83 54.87 54.67 54.71 55.15 55.47 55.83 55.72 55.58 54.80 53.54 53.15 52.28
65.09 64.67 63.89 63.33 61.07 59.48 59.46 59.35 59.66 59.63 59.34 59.06 59.70 58.79 57.60 57.48 55.85 56.75 55.64 55.49 55.60 55.17 54.58 54.30 54.51 55.04 55.35 55.28 54.63 53.10 52.57 52.09
65.40 63.40 64.63 63.70 60.28 59.02 58.08 60.19 57.42 57.60 57.48 58.35 58.69 58.11 56.50 56.23 55.38 55.64 56.04 56.37 55.65 55.13 55.04 54.79 54.03 54.85 54.24 54.58 54.56 53.92 52.63 52.02
64.52 66.00 63.03 64.13 60.03 57.91 57.52 57.04 56.20 55.75 56.28 57.25 57.26 57.65 57.18 55.58 54.65 54.43 55.67 55.72 54.91 54.46 53.95 53.68 53.30 52.92 52.25 52.43 53.32 53.12 52.63 52.61
60.47 62.30 63.40 61.60 59.34 58.21 56.79 56.79 55.89 55.37 55.98 55.61 55.90 56.38 56.66 54.38 53.68 53.95 53.70 54.22 53.56 53.25 52.74 52.18 52.20 51.79 52.68 52.59 51.68 51.53 52.39 54.04
58.44 58.41 58.23 59.05 57.77 56.87 55.69 54.48 54.40 54.52 54.09 54.54 54.64 54.86 54.35 52.22 52.20 51.99 51.57 50.70 50.48 50.40 49.55 49.81 50.03 50.72 52.73 52.99 51.72 51.79 52.25 51.56
54.77 54.31 53.50 53.81 52.44 51.41 51.31 51.07 51.91 52.59 53.71 53.72 53.49 53.52 53.12 52.10 51.60 50.03 49.83 49.24 48.75 48.64 48.12 47.80 48.62 48.85 47.90 48.62 48.64 49.63 49.99 51.36
53.19 53.27 53.04 52.78 51.98 51.54 51.90 51.39 52.07 52.48 53.49 52.81 53.51 52.63 52.14 52.15 50.11 49.69 49.08 48.61 47.58 46.88 46.40 45.86 46.34 47.08 45.25 45.71 43.35 45.37 46.76 48.69
52.37 52.57 52.74 52.33 51.85 51.69 51.51 51.62 50.73 50.34 50.62 50.55 51.17 51.09 50.27 48.71 48.06 47.58 46.84 47.66 46.22 45.52 45.88 45.02 44.01 44.78 44.15 42.70 40.15 40.15 41.34 45.53
52.08 52.50 52.00 52.83 52.01 51.05 49.92 48.42 47.39 48.59 48.59 48.90 48.96 48.78 48.31 48.32 47.41 46.18 45.96 46.74 45.46 46.25 45.21 43.02 42.14 39.87 41.45 43.41 41.60 42.28 37.22 36.53
51.36 51.84 52.12 52.16 52.06 51.20 50.13 48.20 48.94 48.98 48.24 47.29 46.54 46.87 46.61 46.24 46.28 45.51 45.01 45.19 45.49 43.54 42.70 44.31 43.86 42.30 41.30 38.38 37.84 37.82 37.93 35.21
50.91 51.20 51.82 51.80 51.15 50.61 49.26 48.16 48.28 47.24 46.02 44.54 44.33 44.15 44.26 44.54 44.82 44.14 44.98 44.76 44.28 45.66 44.72 43.67 43.04 42.21 39.19 37.28 36.87 36.36 34.97 34.42
50.78 51.02 50.97 51.15 50.52 49.39 48.63 48.22 47.84 47.01 46.15 44.74 43.00 42.07 42.08 41.96 43.98 44.14 44.61 44.87 44.93 44.31 43.69 41.53 41.77 39.55 37.15 36.64 36.66 36.50 37.55 36.18
49.71 50.31 50.19 49.82 49.39 48.54 47.42 46.61 45.97 45.10 43.84 42.60 41.77 40.88 41.32 42.24 43.17 42.75 41.77 41.93 42.01 42.36 42.21 42.55 40.88 39.33 38.42 39.59 40.72 37.82 40.06 37.26

GFSFLT2_sfc_wetblb_030.txt.gz
Wetbulb
63.55 64.81 66.06 66.40 65.85 65.98 65.96 66.54 66.85 66.96 66.98 66.92 66.81 66.63 66.67 66.75 66.09 65.54 64.91 64.35 63.58 62.93 63.09 63.18 63.25 63.20 63.07 62.66 62.12 62.70 58.92 56.79
61.70 62.77 63.26 62.74 63.23 65.12 65.06 65.15 65.32 65.49 65.73 65.47 65.15 65.46 65.63 65.96 65.53 65.50 65.03 64.35 63.49 63.26 62.98 62.67 62.66 62.37 61.98 61.61 61.49 61.90 56.80 55.83
60.90 61.29 61.82 62.04 62.62 64.20 64.97 65.28 64.92 64.66 64.60 64.50 63.18 62.91 63.53 64.29 63.60 64.16 64.62 64.05 63.49 63.38 63.15 62.42 61.71 61.40 61.42 61.10 61.94 57.60 56.26 55.09
60.27 60.71 60.72 61.41 63.65 63.03 62.59 63.73 63.10 62.77 62.77 62.50 62.07 61.37 61.35 63.69 63.38 63.73 64.17 63.73 63.65 63.57 63.29 62.79 61.72 57.81 56.53 59.07 57.15 56.80 55.52 52.92
60.73 61.65 61.42 60.19 61.05 61.24 61.12 61.96 62.11 62.28 62.38 62.21 61.18 61.78 61.71 61.21 59.54 60.60 59.39 61.42 59.59 59.99 59.58 58.70 57.99 56.99 56.52 55.68 55.85 55.12 52.68 52.11
60.60 60.19 61.21 59.72 59.38 60.35 61.03 61.26 61.87 61.96 61.97 60.66 58.70 58.74 56.39 57.31 58.72 57.75 57.12 56.08 57.44 57.27 56.88 56.43 55.77 56.25 55.83 55.75 55.55 53.95 52.27 51.97
60.48 60.60 59.92 59.40 58.66 58.58 58.73 59.35 61.03 61.37 59.99 59.22 58.61 56.83 55.90 55.97 55.61 55.07 54.75 54.41 53.81 53.32 53.28 53.53 53.64 54.24 54.43 54.28 54.32 53.90 52.86 52.15
61.38 61.30 61.16 61.29 59.50 59.01 58.66 59.86 58.75 59.26 58.75 58.31 58.60 57.85 56.29 56.30 54.55 54.96 54.46 54.43 54.84 53.91 53.46 53.39 53.72 54.16 54.51 54.94 54.68 53.67 52.72 51.83
62.71 63.60 63.41 62.44 62.22 59.80 58.04 58.82 58.02 58.15 57.59 57.86 58.24 57.16 56.02 54.83 54.24 53.97 53.80 54.62 53.74 53.41 52.91 53.15 52.86 53.80 52.72 53.22 53.04 53.37 52.97 52.15
63.64 63.41 61.94 60.47 61.64 60.46 58.26 56.28 54.54 55.57 55.87 55.83 56.34 56.48 55.59 54.04 52.89 52.66 52.95 52.90 52.15 51.34 51.26 50.49 50.14 50.21 50.11 51.18 51.44 52.19 52.31 52.20
61.07 61.14 59.82 58.48 60.48 58.84 56.33 55.51 53.93 53.99 53.97 54.43 54.84 55.94 55.07 52.53 51.44 50.83 50.94 49.96 49.58 49.74 48.42 48.44 47.54 47.79 49.33 49.73 49.53 50.01 50.53 53.11
58.15 58.63 58.98 59.86 57.12 54.91 53.54 53.02 52.31 53.00 52.61 52.37 52.91 52.17 52.15 50.85 50.60 49.72 49.12 48.46 48.30 47.22 46.32 46.78 46.38 46.35 48.99 48.60 48.15 49.15 49.73 49.77
53.98 54.01 52.57 52.16 51.67 51.30 51.08 50.10 50.54 51.26 51.32 51.98 51.61 51.18 51.33 49.22 48.24 47.93 47.86 47.31 46.63 46.40 45.98 45.11 44.66 45.50 44.69 45.54 45.67 46.93 46.77 46.41
51.73 51.46 51.00 51.20 50.54 49.80 50.13 49.70 50.31 50.02 49.87 49.87 49.71 48.62 48.42 47.67 45.95 45.89 45.60 46.39 45.63 44.63 44.48 44.50 44.64 43.39 41.78 42.14 40.74 43.24 43.32 43.79
50.84 50.81 50.83 50.37 50.75 50.39 49.81 49.34 48.64 47.88 47.69 47.24 47.05 47.15 46.77 46.09 45.23 44.65 44.35 45.16 44.14 43.84 43.27 42.84 41.33 41.40 42.17 41.71 37.62 35.50 37.52 41.09
50.12 50.65 50.66 51.07 50.73 49.84 48.80 47.17 46.06 46.57 46.38 45.59 45.33 45.64 45.25 45.42 44.49 43.75 43.23 43.91 44.10 43.87 43.63 41.35 42.40 41.21 42.85 43.00 42.22 40.59 35.43 33.05
49.35 50.67 51.07 50.69 50.45 49.54 48.20 47.03 46.90 46.60 45.32 43.90 43.79 44.29 44.68 44.40 44.49 44.21 44.20 44.33 43.33 42.53 41.90 41.71 41.10 39.65 39.00 39.72 35.95 35.42 35.21 34.64
48.79 49.52 49.35 49.98 49.16 48.22 47.49 46.37 45.50 44.12 43.49 42.05 42.41 42.26 42.30 42.70 44.28 43.57 43.31 42.77 42.39 41.49 41.13 40.35 39.44 38.94 38.21 36.55 35.61 34.03 32.65 34.39
49.09 49.08 48.65 49.16 48.38 47.07 46.19 45.27 44.22 44.15 43.58 41.05 40.63 40.10 39.71 40.60 42.24 42.04 42.39 41.99 41.38 40.77 39.98 39.21 38.71 38.36 38.32 37.50 36.85 36.11 37.64 36.69
47.69 47.90 47.93 47.79 47.26 45.55 45.16 45.61 43.86 42.81 41.52 40.60 39.82 39.43 39.56 40.31 41.30 40.74 40.40 40.46 40.26 39.64 39.07 39.36 39.38 37.69 36.82 37.08 37.57 40.09 38.93 39.28

GFSFLT2_sfc_wetblb_033.txt.gz
Wetbulb
63.04 64.33 66.11 66.69 66.58 66.76 66.47 66.87 67.20 67.09 67.36 67.36 67.18 66.73 66.37 66.44 65.89 65.05 64.31 63.53 62.94 62.91 62.76 62.34 62.59 62.58 62.17 61.93 61.41 62.24 56.14 55.61
61.10 62.05 62.18 62.05 62.92 65.12 65.29 65.45 65.49 65.64 65.82 65.67 65.07 65.16 65.35 65.46 65.10 65.22 64.69 63.87 63.52 63.15 62.72 62.25 62.14 61.99 61.80 61.61 61.28 60.76 55.32 54.73
60.74 61.18 61.07 60.84 61.15 63.55 64.54 65.32 64.91 64.85 64.80 64.60 63.21 62.37 62.75 63.45 63.49 63.87 64.50 64.03 63.67 63.54 63.17 62.64 61.86 61.41 61.00 60.93 61.26 56.15 55.27 53.84
59.93 59.99 60.07 60.87 63.16 62.28 61.87 63.02 62.44 62.09 62.00 61.84 61.34 60.42 60.31 63.00 63.23 63.88 64.08 63.91 63.87 63.70 63.66 63.13 62.07 57.57 56.19 58.50 55.31 55.35 54.85 53.08
59.88 59.52 59.32 59.92 60.69 61.11 60.69 61.42 61.35 61.40 61.37 60.63 60.40 60.90 60.52 60.76 59.73 58.80 58.46 60.15 58.56 59.07 58.07 57.87 56.96 56.16 55.66 55.29 55.31 54.85 53.52 52.52
59.61 59.85 59.79 58.65 59.39 60.22 59.78 60.55 61.14 61.24 61.43 61.51 59.96 58.95 58.03 57.29 58.23 56.86 55.35 54.09 53.91 54.38 54.01 54.23 53.22 53.51 54.04 54.08 54.00 54.00 53.71 52.42
59.59 59.68 60.05 59.41 58.15 59.03 59.54 60.12 61.44 61.58 61.50 59.84 58.44 56.55 55.15 55.06 54.46 54.16 53.77 53.35 53.31 53.19 52.71 52.78 52.81 53.43 53.66 53.60 53.49 53.41 52.99 52.43
58.76 59.24 59.79 59.36 57.43 57.43 58.17 58.84 60.03 60.44 59.83 58.44 58.15 56.44 55.51 55.25 53.62 53.72 53.40 53.54 53.33 52.07 51.68 51.64 50.89 51.44 51.28 51.86 51.85 52.39 52.51 52.35
59.47 59.73 60.49 59.91 59.02 58.11 57.41 58.17 57.84 57.96 58.08 56.96 56.99 56.68 55.27 53.70 53.12 52.15 52.40 51.99 50.79 50.45 49.71 49.22 48.63 49.46 48.74 49.64 50.23 51.04 51.41 51.46
61.16 63.35 60.44 59.90 60.25 58.79 56.16 54.41 53.64 55.06 55.21 55.24 55.45 55.30 54.16 52.46 51.12 50.38 50.35 49.43 49.06 48.86 47.98 47.16 46.72 46.37 46.10 46.73 47.77 48.69 49.79 50.32
60.75 61.12 59.62 60.52 57.59 55.34 53.75 52.24 52.33 52.21 52.54 52.27 52.44 52.15 51.58 49.79 49.06 48.36 48.40 48.15 48.05 47.36 46.51 45.96 44.95 44.78 46.46 46.06 45.72 46.66 47.75 50.34
58.13 58.94 59.85 58.92 54.72 52.99 51.33 51.44 51.04 50.86 50.17 49.84 49.74 49.20 48.53 47.17 46.84 46.78 48.31 46.83 46.42 45.70 44.83 45.09 44.25 44.24 46.69 46.80 45.26 46.05 46.31 45.18
55.93 55.00 52.54 51.86 52.19 53.15 51.15 48.55 48.23 48.55 48.50 48.45 47.62 47.71 48.65 47.62 46.20 44.91 45.38 45.17 44.64 44.73 44.12 43.57 43.76 42.64 42.09 42.31 43.68 44.06 42.35 40.95
50.33 49.91 50.32 50.02 50.01 48.99 49.03 48.35 48.04 47.31 46.79 46.66 46.88 47.42 46.26 45.38 43.75 43.68 44.27 44.66 43.18 42.81 43.62 43.41 43.04 41.53 39.64 39.30 36.49 38.23 39.00 40.86
49.34 49.24 49.73 50.03 50.03 49.40 48.71 48.24 47.47 45.93 45.50 44.57 45.03 45.18 45.09 44.04 43.59 43.25 43.00 43.20 42.76 42.48 41.83 40.97 40.29 40.11 40.30 37.27 33.28 31.86 34.81 37.67
49.04 49.48 49.22 49.84 49.62 48.89 47.59 46.67 45.27 45.28 44.23 43.79 43.09 44.07 43.47 43.94 44.13 43.80 43.75 43.78 42.59 42.37 42.55 40.01 39.70 37.98 39.12 41.08 38.54 39.17 31.96 30.97
47.61 48.75 49.46 49.61 48.97 48.30 47.08 46.63 46.21 45.26 43.72 42.49 42.76 42.61 42.95 44.22 44.21 43.21 42.68 42.75 41.60 40.68 39.74 39.43 39.12 37.78 36.96 37.80 35.10 35.41 35.04 34.20
47.03 47.66 48.23 48.53 48.11 48.01 47.30 45.81 44.20 42.82 41.68 42.79 41.95 41.04 40.87 42.14 42.81 42.07 41.76 41.37 40.60 39.95 39.33 38.69 37.43 37.18 37.08 35.88 34.93 34.77 32.45 33.45
46.94 47.26 46.97 47.55 46.64 45.67 45.35 44.27 43.19 42.28 41.47 40.11 39.45 38.89 38.79 39.63 40.88 40.65 40.93 40.71 40.08 39.38 38.57 37.58 37.03 36.22 35.50 35.51 35.41 35.29 37.94 37.50
45.76 47.08 46.62 46.51 44.88 44.42 44.66 43.92 42.55 41.66 40.81 39.90 39.03 38.69 38.89 39.47 40.07 40.06 39.77 39.61 39.38 38.76 37.86 37.51 37.11 35.66 35.04 34.74 35.03 35.77 37.28 37.76

GFSFLT2_sfc_wetblb_036.txt.gz
Wetbulb
63.35 64.60 66.73 67.65 67.22 67.31 67.20 67.33 67.33 67.44 67.39 67.19 67.12 66.56 66.27 65.96 65.43 64.91 63.91 63.76 63.51 63.60 63.21 62.93 63.36 63.24 62.73 62.32 61.66 62.01 55.35 55.05
60.64 61.87 62.75 62.59 63.42 65.66 65.62 65.91 65.95 65.99 66.05 65.59 65.22 65.01 65.14 64.99 64.35 64.46 64.16 64.00 64.31 64.29 63.87 63.55 63.16 62.69 62.05 61.57 61.40 59.07 55.07 54.54
59.56 60.32 60.23 60.55 61.25 63.56 65.04 65.41 65.06 64.86 64.86 64.53 63.02 61.77 61.68 61.96 63.43 63.49 64.41 64.17 64.16 64.32 64.20 63.34 62.77 61.02 60.68 60.98 59.95 55.64 55.14 54.74
59.54 59.10 59.59 59.85 62.15 61.88 61.12 62.67 62.16 62.03 61.97 61.73 60.89 59.94 59.86 62.23 62.89 63.28 64.00 63.43 63.01 62.64 61.81 61.46 59.55 56.59 56.09 57.48 55.41 55.31 55.05 54.38
59.48 59.22 58.85 59.16 60.25 60.49 59.92 60.79 60.50 60.50 60.61 60.36 60.46 60.36 59.75 59.94 59.10 58.26 57.51 59.07 55.96 56.98 55.82 55.93 54.53 53.86 53.90 54.00 54.17 54.26 54.12 54.08
59.06 58.95 58.46 58.53 58.82 59.68 59.28 60.11 60.29 60.18 60.86 60.98 59.69 58.94 57.95 57.75 57.74 56.42 54.07 53.23 53.15 52.80 52.82 53.05 52.90 53.35 53.26 52.66 52.54 52.68 53.03 53.37
58.37 58.91 58.58 58.32 58.05 58.53 58.41 59.37 60.23 60.38 60.61 60.50 59.20 57.93 55.74 55.01 54.05 53.50 52.83 53.16 52.73 51.98 51.79 51.45 50.60 50.79 50.60 50.77 50.71 51.55 52.03 52.37
58.54 58.49 59.31 58.67 57.08 57.50 57.86 58.45 59.05 59.80 59.92 58.22 57.67 55.65 54.58 54.28 52.82 52.31 51.88 51.63 50.71 50.28 49.87 48.91 48.02 48.84 48.34 48.97 49.40 49.81 49.92 50.71
57.94 59.34 59.62 59.40 57.52 57.14 56.84 57.92 57.71 57.71 56.82 56.23 56.02 55.21 53.36 52.29 50.66 49.77 49.38 49.02 48.87 48.65 47.70 47.42 46.66 47.33 46.66 47.39 48.36 48.25 48.49 49.40
60.61 60.77 60.17 59.20 57.04 56.99 55.90 54.26 53.38 54.14 54.07 53.12 52.12 51.91 50.75 49.02 47.88 47.20 47.88 47.95 47.68 47.02 46.71 46.08 45.57 45.07 45.21 45.63 45.91 46.89 47.81 48.87
59.46 59.80 60.25 58.32 55.50 54.26 54.89 53.01 50.88 51.55 50.41 49.12 48.67 49.02 48.74 46.94 46.40 46.00 46.52 46.57 47.16 46.24 45.35 44.96 44.05 44.55 45.21 45.58 45.19 45.17 46.59 45.98
59.27 59.91 59.20 55.78 54.97 53.73 51.61 50.45 48.76 48.26 47.35 47.34 47.58 48.77 48.89 47.69 45.64 45.33 45.76 44.53 44.06 43.81 43.31 44.15 43.72 43.55 44.52 45.81 44.08 44.81 42.88 41.46
58.22 58.56 58.05 55.32 53.41 50.56 48.46 47.87 46.29 46.12 46.03 46.63 47.00 46.81 45.54 43.77 43.17 43.12 43.58 43.17 42.82 43.16 43.00 42.81 42.99 41.84 41.01 40.59 42.02 43.47 40.28 40.00
51.99 50.30 50.08 50.31 49.30 48.03 47.64 46.34 45.70 45.35 44.94 44.84 44.78 44.57 44.18 44.16 42.61 42.52 42.78 42.99 43.00 42.40 41.99 41.42 42.03 40.70 38.14 37.32 34.57 36.80 38.46 39.59
48.28 48.66 48.88 49.03 49.27 48.20 47.24 46.88 45.86 44.50 43.87 42.94 43.40 43.73 43.44 43.22 43.26 43.09 43.20 43.20 42.50 41.53 40.36 39.32 38.38 39.19 39.56 37.03 33.04 30.91 34.45 37.06
48.00 48.42 48.53 48.87 48.37 47.47 45.99 44.97 43.87 43.88 43.14 42.53 41.99 42.69 42.72 43.70 43.62 42.98 42.42 42.42 41.23 40.78 41.49 39.32 38.38 36.74 37.96 39.99 38.14 36.89 32.36 30.83
46.60 48.04 48.86 48.70 48.27 47.41 46.12 44.89 44.37 43.18 42.03 41.43 41.51 41.59 42.24 43.58 43.21 42.51 41.60 41.83 40.78 39.97 39.22 38.73 38.44 37.20 36.42 36.16 35.12 34.82 34.31 34.21
46.59 47.81 47.45 47.90 47.30 46.92 46.11 44.72 42.68 41.50 40.88 40.70 40.50 40.14 40.12 41.77 41.93 41.23 41.14 40.66 39.92 39.43 38.76 38.09 37.33 36.53 36.40 35.88 34.92 35.66 34.90 35.03
46.77 46.71 46.30 46.15 45.90 45.67 45.00 44.14 43.32 42.34 41.26 40.28 39.31 38.74 38.23 38.59 39.22 40.01 40.26 40.14 39.67 38.91 38.02 37.30 36.36 35.30 34.57 34.69 34.71 34.53 35.22 36.22
45.91 46.22 45.82 44.84 44.45 44.23 44.04 43.52 42.00 41.50 40.94 39.85 39.17 38.43 38.43 38.73 38.89 39.67 39.03 38.92 38.74 38.30 37.49 37.16 36.33 35.37 34.13 34.32 34.23 34.85 35.42 35.55

GFSFLT2_sfc_wetblb_039.txt.gz
Wetbulb
69.27 69.52 69.60 68.67 68.11 67.93 67.70 68.08 67.97 67.65 67.51 67.44 67.06 66.30 65.98 65.97 65.56 64.81 64.09 64.52 64.52 64.00 63.94 63.93 63.51 62.95 62.65 62.19 61.84 60.85 62.01 61.46
66.83 67.74 68.43 68.81 68.84 66.43 66.34 66.29 66.18 66.33 66.37 65.80 65.07 65.04 64.87 64.84 63.83 64.78 64.81 64.49 64.46 64.44 64.37 63.94 63.57 61.97 61.84 61.62 60.73 60.69 62.24 61.82
64.78 64.98 65.72 66.10 66.44 66.24 65.96 66.00 65.62 65.20 65.39 64.62 63.92 65.76 65.57 65.16 63.84 64.33 64.66 64.61 64.24 63.82 63.48 62.74 61.47 60.60 60.59 60.28 60.29 61.63 61.61 61.54
63.26 64.04 63.71 64.22 64.09 65.82 65.98 65.67 65.56 65.65 65.51 65.72 65.57 65.53 66.05 65.76 64.50 62.91 62.91 62.23 61.25 61.30 60.85 60.61 60.75 61.01 60.86 60.36 60.20 60.47 60.50 60.65
62.55 62.95 63.31 63.19 63.74 64.50 64.37 64.93 65.13 65.42 64.99 65.36 65.41 65.53 66.22 66.37 66.16 65.19 63.65 59.70 60.86 60.76 60.63 60.12 59.99 59.29 58.36 58.04 57.95 58.24 58.60 58.59
62.18 62.70 62.52 62.56 63.26 63.66 64.04 64.20 64.52 64.70 65.44 64.86 65.84 65.45 65.62 65.17 64.06 61.01 60.67 60.51 60.23 59.88 59.64 58.74 57.66 56.96 56.26 55.71 55.76 55.25 55.06 55.17
62.14 62.62 62.22 62.17 62.37 62.95 63.37 63.77 64.38 65.07 65.31 65.49 65.31 64.64 62.43 61.14 60.10 59.72 59.41 59.18 58.32 57.71 57.18 56.41 55.79 55.23 54.89 54.49 54.19 54.31 54.51 54.65
62.23 62.52 63.06 62.66 61.70 61.64 61.72 62.72 63.05 64.07 64.62 63.31 62.44 61.86 60.95 59.62 58.19 56.98 56.33 56.67 56.61 56.32 55.53 55.01 54.44 54.26 53.77 53.93 53.64 53.62 53.50 54.49
61.84 62.84 62.69 61.00 59.70 59.30 59.05 57.76 59.79 61.45 61.25 60.76 59.83 59.29 58.76 57.39 56.21 55.50 55.31 55.52 55.50 55.19 54.47 54.43 53.40 52.81 52.44 52.56 52.66 52.83 53.23 53.30
62.79 62.12 60.60 60.44 59.52 59.15 56.62 56.17 57.06 57.22 58.28 57.68 56.68 55.97 55.84 54.79 54.01 53.64 54.04 53.64 53.38 52.87 52.28 51.58 51.32 50.99 51.10 51.56 51.90 52.13 53.29 50.69
61.64 61.70 60.73 60.10 57.46 55.00 54.60 54.33 54.82 54.06 53.32 53.26 53.85 53.11 53.38 53.04 52.44 52.24 52.80 52.13 51.54 50.89 50.64 50.57 49.56 50.13 49.89 50.36 50.76 50.71 52.02 49.26
60.97 60.40 58.75 56.30 54.26 54.03 54.41 52.40 52.02 52.43 52.16 52.04 52.84 52.58 52.36 52.11 51.48 51.16 51.21 50.71 50.28 50.45 50.08 50.28 50.36 49.73 47.36 48.22 48.25 50.21 50.73 48.66
59.54 59.64 58.96 56.56 54.32 53.30 51.71 51.88 50.92 51.20 51.89 51.87 51.73 51.34 51.23 51.46 50.73 50.47 50.63 49.18 49.28 49.55 48.95 48.08 47.67 48.27 46.64 45.30 46.47 49.87 47.99 47.72
61.08 58.52 57.77 56.61 55.96 55.39 55.09 53.31 52.55 51.56 51.03 50.82 50.89 50.66 50.41 50.14 50.05 49.61 49.36 48.37 47.99 48.00 47.64 45.72 46.38 47.49 43.52 42.96 40.19 42.71 46.83 45.94
59.25 58.32 57.09 56.66 55.50 54.29 53.27 52.72 51.57 50.76 50.39 50.21 49.62 49.40 49.53 49.85 49.66 50.13 49.77 48.65 46.79 47.18 47.16 45.83 43.44 45.80 45.61 42.52 38.09 36.78 40.24 43.57
54.68 54.55 54.34 54.09 54.44 54.22 53.70 53.76 52.88 51.84 50.91 50.18 50.12 48.96 49.26 49.54 49.31 49.49 49.14 49.05 47.28 46.93 47.51 46.66 45.74 42.40 43.79 44.31 44.32 42.16 34.99 33.92
53.71 53.84 53.83 53.59 54.06 54.28 53.88 51.89 51.07 50.34 49.87 48.90 49.35 49.47 48.27 48.54 48.63 48.77 48.50 48.21 47.72 47.25 46.72 46.19 46.03 43.52 42.30 41.84 41.38 40.99 40.82 36.19
53.38 53.05 52.22 53.18 53.42 53.09 52.48 51.41 50.00 49.68 49.66 49.39 49.20 48.18 47.85 47.79 48.01 48.17 48.17 47.68 46.99 46.65 46.50 45.90 45.03 44.10 43.14 42.04 39.93 37.24 36.32 35.51
52.44 53.22 51.83 51.94 52.06 52.16 52.10 51.63 50.85 50.00 49.55 48.86 47.83 47.60 47.41 47.72 47.02 47.00 46.82 46.85 46.62 46.21 45.70 44.83 44.21 43.15 42.46 41.48 41.45 40.23 40.15 38.01
51.91 51.57 50.56 50.54 50.74 50.59 51.02 50.26 50.84 49.63 48.38 47.87 47.46 46.81 46.71 47.10 46.44 46.09 45.67 45.39 45.25 44.95 44.74 44.33 43.77 43.03 42.06 41.44 40.56 40.72 40.71 39.47

GFSFLT2_sfc_wetblb_042.txt.gz
Wetbulb
70.77 71.01 70.38 68.98 68.41 68.30 68.23 68.54 68.20 67.87 67.69 67.60 66.97 66.48 66.13 65.72 65.64 64.86 64.70 64.65 64.26 64.13 64.06 64.02 63.57 62.79 62.31 61.69 61.30 61.48 63.49 62.75
68.69 68.71 69.26 69.55 69.59 67.43 67.18 67.02 66.68 66.63 66.65 65.94 65.26 64.91 64.92 64.44 65.04 64.98 64.62 64.38 64.40 64.20 63.78 63.13 61.89 61.31 61.27 60.97 61.05 62.42 62.87 62.68
67.16 67.09 67.76 67.83 67.73 67.82 66.36 66.39 65.98 65.67 65.65 64.94 64.56 66.75 66.58 65.82 64.10 64.65 64.34 63.59 63.26 62.98 62.24 61.43 61.80 61.41 60.87 60.78 61.86 62.17 62.04 61.86
65.62 65.99 65.99 66.37 65.07 66.76 66.95 65.91 66.67 67.43 67.09 67.06 67.83 68.13 67.95 66.45 65.02 63.00 62.56 61.47 61.35 60.90 61.01 61.71 62.67 63.07 62.47 61.65 60.91 61.13 61.09 60.89
64.27 65.31 65.92 65.56 65.57 65.87 65.68 66.63 67.40 67.95 68.21 68.73 68.57 68.73 69.17 68.91 68.55 67.57 67.08 61.71 65.28 64.23 64.77 63.46 62.21 61.47 60.54 60.13 59.57 59.57 59.40 58.87
63.86 64.74 65.30 65.63 65.32 65.82 66.55 67.21 68.01 68.35 68.44 68.81 69.18 68.16 69.11 68.27 67.54 66.75 65.73 65.45 64.36 63.74 63.15 61.74 60.74 59.54 58.80 58.92 58.84 58.50 58.57 58.16
64.04 64.49 64.79 65.24 65.78 66.53 66.85 67.85 68.19 68.18 69.00 68.45 68.03 67.61 67.10 66.92 66.06 65.65 63.95 63.71 62.76 61.91 61.19 60.27 59.33 58.94 58.97 58.25 57.85 57.96 57.69 57.31
65.35 65.21 65.53 65.56 65.43 65.69 65.18 64.84 65.67 67.70 67.38 66.25 64.23 64.70 64.16 65.30 64.80 63.59 62.67 61.13 60.26 59.62 58.63 58.25 57.94 58.00 57.49 57.54 56.99 56.90 56.87 56.81
64.98 65.57 65.41 64.92 64.51 63.87 62.97 62.62 63.29 62.52 64.36 64.05 63.63 64.38 64.14 63.32 61.94 60.37 58.74 58.21 58.19 57.59 56.62 57.44 56.67 56.51 55.99 56.04 55.76 56.00 55.34 55.40
65.23 64.76 64.36 63.64 62.28 59.95 59.61 59.37 60.57 61.38 62.26 62.07 61.23 60.55 59.89 58.22 57.71 56.43 56.85 56.98 56.17 56.24 55.56 54.85 54.53 54.09 53.91 53.39 53.34 53.76 53.60 54.07
63.98 64.65 63.52 62.60 61.65 59.09 58.97 57.34 57.86 57.62 57.77 56.66 56.21 55.75 56.31 55.77 55.72 56.40 56.73 55.88 55.30 53.92 52.85 52.35 50.99 51.03 50.50 50.06 51.19 51.16 51.32 51.73
63.99 64.18 59.49 57.99 58.95 58.40 56.33 55.30 54.29 54.65 54.76 55.12 55.57 55.57 56.07 56.48 56.11 55.67 54.84 53.02 51.65 51.59 50.99 51.27 50.77 50.74 49.30 48.92 50.61 50.38 51.28 51.71
63.43 62.45 60.89 60.25 61.51 58.22 55.76 54.00 55.37 56.34 56.84 56.23 55.98 55.94 55.89 55.95 54.59 53.35 52.27 51.26 51.21 51.11 50.34 49.45 48.76 50.31 48.09 47.40 48.11 49.66 51.55 51.03
63.43 63.99 64.10 63.33 61.81 60.15 59.50 58.43 58.41 57.80 56.66 55.95 55.65 55.50 54.47 53.27 52.73 51.93 51.52 50.57 50.73 50.34 49.67 48.15 48.12 48.94 46.14 45.34 42.23 44.70 47.28 50.03
64.01 63.55 62.64 61.33 60.51 59.57 58.93 57.83 56.66 55.56 55.41 55.04 54.65 54.46 53.87 52.56 52.42 51.95 51.38 50.92 49.38 49.86 49.30 48.10 45.84 47.29 48.03 44.76 40.80 39.27 42.63 45.86
60.99 60.87 60.41 60.00 59.61 58.52 57.72 57.69 56.64 57.06 57.75 56.12 55.61 53.86 52.41 51.75 51.63 51.67 51.31 51.17 50.21 49.80 48.91 48.56 47.30 44.89 46.15 46.12 45.65 43.63 36.92 36.25
59.60 59.33 58.51 58.71 58.69 58.27 58.66 57.24 56.93 56.62 55.98 54.24 54.56 54.48 52.63 51.35 51.30 51.49 51.09 50.80 50.49 49.97 49.06 48.29 47.44 45.50 44.25 42.05 41.74 40.97 41.05 38.27
58.40 57.97 57.63 58.03 58.21 57.94 57.34 55.98 54.55 54.60 54.08 52.64 52.68 51.96 51.46 51.35 51.01 51.02 50.79 50.28 49.66 49.19 48.94 47.57 46.52 45.58 43.99 42.34 40.02 37.53 37.29 36.42
57.54 57.73 56.81 57.50 57.29 56.63 55.90 54.67 52.94 51.66 50.94 50.80 50.01 49.67 49.86 50.31 50.59 50.04 49.38 49.16 49.24 48.85 47.68 46.74 45.88 44.66 43.96 42.35 41.54 40.13 40.29 38.86
56.92 56.71 55.80 55.83 55.51 54.55 53.48 51.98 53.20 51.88 51.26 51.02 50.34 49.71 49.82 50.13 49.90 49.39 48.47 48.13 47.87 47.52 46.91 46.37 45.83 44.66 43.55 42.67 40.70 40.43 40.28 38.90

GFSFLT2_sfc_wetblb_045.txt.gz
Wetbulb
70.70 70.70 70.22 69.25 68.73 68.62 68.48 68.75 68.40 68.05 68.06 67.54 66.88 66.66 66.30 65.98 65.60 64.84 64.65 64.41 64.29 64.17 64.09 63.78 62.57 62.10 61.92 61.91 62.02 63.36 63.46 62.68
68.42 68.91 68.96 68.99 69.10 67.70 67.75 67.45 67.02 67.12 66.83 65.87 65.21 64.94 65.12 65.50 65.53 65.21 64.73 64.65 64.30 63.96 63.12 62.44 61.39 61.48 61.70 61.61 62.37 63.01 62.42 62.11
67.42 66.83 67.41 67.50 68.08 68.20 66.91 66.97 66.50 66.05 65.28 65.28 64.04 65.60 65.46 65.67 64.62 64.97 63.85 62.85 62.87 62.65 61.81 61.40 61.90 61.71 61.32 60.98 61.41 61.59 61.58 61.46
66.34 66.57 66.61 66.51 65.05 66.61 66.49 65.54 66.04 66.78 66.55 66.62 67.42 67.28 67.35 66.16 65.27 64.34 62.58 62.03 62.09 61.94 61.48 62.07 62.71 62.87 62.31 62.89 61.11 61.07 60.77 60.36
64.04 65.29 66.30 65.39 65.46 65.73 65.29 65.86 67.09 67.64 67.89 68.16 68.13 67.61 67.52 66.64 66.84 65.68 66.36 63.17 64.48 63.65 63.89 63.48 62.90 61.99 61.18 61.01 60.50 60.73 60.46 60.08
63.94 65.18 65.72 65.82 64.96 64.89 66.07 66.32 67.01 67.08 68.36 68.14 68.12 67.37 67.61 67.03 65.85 65.26 64.82 64.78 64.34 63.86 62.91 62.55 61.89 61.41 60.75 60.33 60.21 59.88 59.52 59.27
63.45 64.66 65.34 66.21 66.61 66.91 67.22 67.12 67.57 68.40 68.74 68.30 68.29 67.94 67.01 66.12 65.28 64.81 64.21 63.44 62.73 62.15 61.70 61.02 60.54 60.52 59.98 59.78 59.18 59.00 58.99 58.48
64.33 64.78 65.94 67.00 67.01 67.19 66.47 66.50 66.84 67.64 67.80 66.81 65.68 66.31 65.42 65.23 65.41 63.98 63.09 61.74 60.97 60.21 59.24 58.40 58.41 58.89 58.41 58.43 57.83 57.71 57.48 57.56
65.42 65.91 66.52 66.37 65.24 64.23 64.09 64.00 64.16 64.05 64.44 65.19 64.92 65.19 65.01 64.22 62.43 60.56 59.19 59.01 58.60 57.64 57.91 57.90 56.79 56.70 55.98 55.90 55.88 55.37 54.94 55.18
65.91 65.61 66.21 65.10 63.58 62.21 61.81 61.27 60.56 61.13 62.74 62.69 61.68 61.04 61.15 60.56 58.68 57.53 57.51 57.58 57.24 56.39 54.85 53.37 52.86 52.60 53.11 52.86 52.26 52.25 53.09 53.15
65.33 65.98 65.15 62.50 60.98 59.91 58.90 58.56 57.56 58.50 59.36 59.09 57.81 58.27 58.18 57.40 56.90 57.31 57.68 56.27 55.02 53.54 52.59 52.08 51.03 50.83 50.74 51.49 51.63 50.97 52.22 51.26
65.70 64.57 63.21 61.82 62.01 61.56 60.31 58.68 57.40 57.39 56.56 56.57 57.03 57.57 58.02 57.95 57.21 56.43 55.21 54.00 53.27 52.57 51.63 51.36 50.38 49.76 48.86 49.52 51.27 50.41 50.49 50.99
64.04 62.56 62.02 63.75 63.77 60.89 59.87 57.87 57.94 57.86 57.97 57.98 57.98 57.78 57.48 57.02 55.61 54.62 54.01 52.82 52.05 52.30 51.18 50.01 49.19 50.01 47.62 47.54 48.31 50.78 51.38 50.93
63.16 63.21 63.78 64.71 64.12 62.57 61.24 59.56 58.81 58.70 58.39 58.21 58.01 57.30 56.01 55.57 54.43 53.63 53.15 51.82 51.76 51.42 50.52 48.69 48.56 49.71 45.60 45.32 42.57 44.74 47.16 49.00
63.38 64.33 64.14 63.37 61.82 60.75 60.28 59.61 58.81 57.41 57.15 56.84 56.80 56.13 55.41 54.62 53.68 53.16 52.63 51.83 50.33 50.68 50.32 48.57 45.97 47.71 48.58 44.69 40.62 38.91 42.57 45.47
64.88 62.93 61.55 60.93 60.88 59.41 58.58 57.04 55.35 57.14 58.62 58.00 56.70 55.44 54.62 53.52 52.96 52.76 52.32 51.76 50.67 50.24 49.84 49.13 48.36 45.23 46.64 46.42 46.14 44.48 38.48 37.39
61.37 60.90 60.45 60.42 60.11 59.86 59.00 58.05 58.73 58.53 57.87 56.17 55.69 55.57 54.00 52.48 52.40 52.21 51.56 50.89 50.64 50.25 50.19 49.22 47.96 45.39 44.45 43.92 43.71 43.20 42.81 38.97
60.75 60.04 59.22 59.86 59.74 59.71 58.75 57.53 56.29 55.76 54.95 54.30 53.52 53.14 52.18 52.24 51.80 51.76 51.35 50.39 49.29 48.92 49.42 48.16 46.87 46.18 45.04 43.87 42.37 40.14 39.24 38.61
59.42 58.97 58.10 59.10 59.25 58.87 57.94 56.51 55.03 53.22 52.70 52.02 50.80 50.47 50.58 51.09 51.33 50.53 49.71 49.16 48.27 48.26 47.82 47.58 46.33 45.23 44.68 43.56 43.44 42.31 41.31 40.36
58.95 58.53 57.76 58.42 58.07 56.92 56.41 54.84 54.22 53.44 51.62 51.30 50.84 50.46 50.52 51.08 50.19 49.00 47.70 47.09 46.72 47.47 47.15 46.71 46.56 46.01 44.30 43.80 43.05 42.60 42.15 41.07

GFSFLT2_sfc_wetblb_048.txt.gz
Wetbulb
68.91 69.47 69.46 68.72 68.43 68.31 68.27 68.17 67.78 68.01 67.78 67.06 66.58 66.24 66.01 65.92 65.95 65.78 65.65 65.50 64.87 64.46 64.05 63.78 62.96 62.38 62.09 61.88 62.22 63.02 59.67 58.91
68.24 68.77 68.99 68.23 67.82 67.49 67.01 66.43 66.72 66.62 66.12 65.45 64.88 64.60 65.33 65.56 65.43 65.61 65.32 64.84 64.36 63.56 63.63 63.45 62.72 62.24 61.38 60.61 61.79 62.08 57.53 57.96
67.12 66.74 67.43 67.48 67.48 67.25 66.54 66.54 66.29 65.55 65.20 64.89 63.31 62.71 63.13 64.29 64.55 65.06 64.69 63.91 63.58 63.13 63.11 62.55 62.85 62.75 62.23 60.39 61.63 57.72 57.28 57.15
65.36 65.75 65.54 66.05 65.62 65.70 64.90 64.73 64.33 64.35 64.13 63.86 64.02 65.60 64.65 64.35 64.15 64.59 64.03 63.41 63.45 63.24 62.60 62.45 62.32 59.61 58.86 61.40 57.88 58.30 57.44 56.95
63.98 65.00 65.44 64.48 63.29 64.88 63.64 64.11 65.84 66.44 66.32 66.19 66.30 66.05 64.68 63.79 64.26 63.38 62.64 62.65 62.05 60.58 61.35 61.41 60.18 59.14 58.03 58.07 57.80 57.05 56.29 56.49
63.54 64.84 65.60 64.68 63.77 63.69 63.84 65.09 66.17 65.59 66.61 66.51 66.06 65.59 65.20 64.93 64.50 63.87 62.79 61.30 61.43 60.67 59.97 59.78 59.32 58.90 58.72 57.71 57.46 56.91 55.32 55.82
62.64 64.33 64.58 64.54 65.84 65.98 65.50 65.40 65.74 65.73 65.79 66.26 65.50 65.74 64.54 64.49 63.18 63.02 61.61 60.56 58.84 58.05 57.32 57.00 56.19 56.00 56.54 57.02 56.14 55.23 55.32 54.53
62.64 63.55 65.26 66.48 65.33 64.95 63.89 63.79 64.87 65.61 65.45 64.98 65.22 64.76 63.73 63.49 62.19 59.69 57.80 57.21 56.74 55.39 54.51 54.56 54.56 54.77 53.61 54.07 53.95 53.86 52.60 52.42
62.99 64.18 65.95 64.57 62.79 61.83 61.16 61.71 62.27 62.57 62.99 63.18 61.90 61.78 60.82 59.94 58.58 56.55 56.26 56.04 55.48 55.11 53.81 51.93 50.77 51.62 49.90 50.28 50.55 49.15 49.07 49.51
64.04 65.17 64.21 62.25 61.04 60.59 60.38 59.88 59.56 60.88 60.92 60.16 59.50 59.73 59.55 57.83 55.79 55.20 55.27 54.87 54.15 52.21 50.63 49.00 48.43 48.23 47.40 47.79 48.66 47.92 47.82 49.30
63.85 64.55 62.68 62.06 60.85 60.51 59.29 59.76 59.14 58.65 58.34 57.48 56.71 56.90 57.12 55.77 55.27 54.95 54.28 52.75 51.78 50.23 49.16 48.27 46.61 46.22 46.56 45.58 46.70 46.56 47.28 48.87
64.66 63.18 62.07 61.13 61.26 61.32 60.61 59.22 57.22 56.68 55.83 55.49 56.17 56.13 56.74 56.39 55.13 53.51 52.11 50.99 49.80 48.83 47.97 47.92 46.86 46.02 47.43 46.55 45.59 46.48 45.84 46.31
63.37 61.74 61.79 61.09 62.06 60.11 58.26 56.93 55.92 56.01 56.18 56.56 56.70 56.27 56.20 54.28 53.49 52.04 50.99 49.87 48.97 48.66 47.24 46.07 45.21 45.90 43.60 43.18 43.22 44.64 44.75 44.94
63.01 62.66 61.83 62.31 63.06 60.83 59.99 57.61 56.50 56.49 56.63 56.65 56.77 56.02 54.47 54.14 51.79 51.09 50.49 48.91 48.62 48.25 46.90 45.50 44.56 45.18 41.56 41.53 38.46 40.15 42.60 44.04
62.20 62.76 62.26 63.19 62.07 60.69 59.16 58.39 56.76 55.36 55.52 55.11 55.25 55.01 54.05 52.68 51.62 50.77 49.57 48.58 47.02 47.14 46.46 45.33 42.54 43.34 44.27 41.28 37.18 34.22 38.37 40.69
63.02 63.14 63.25 62.23 60.15 58.44 56.77 55.12 53.71 55.14 54.73 55.43 54.53 54.20 53.07 52.23 50.99 49.94 49.12 48.57 47.35 46.51 46.67 45.31 44.20 41.49 42.21 44.03 41.33 39.61 35.47 34.07
63.36 63.04 60.89 59.65 59.55 58.50 57.21 56.93 54.72 56.25 55.26 54.54 54.45 54.18 53.38 51.66 50.40 49.47 48.47 47.74 47.40 46.70 45.67 44.26 43.63 41.86 40.62 39.80 39.22 38.94 38.27 35.91
60.29 59.12 58.54 59.15 58.99 59.01 58.08 57.32 55.25 53.99 53.26 52.68 52.29 52.43 50.89 50.58 50.36 49.02 48.31 47.46 46.29 44.99 44.43 43.67 42.96 42.29 41.54 40.53 39.43 37.41 36.43 36.00
59.22 58.67 57.54 58.40 58.51 58.25 57.71 56.03 54.46 52.77 51.24 50.66 49.09 48.86 48.16 48.39 48.69 47.58 46.42 45.43 44.50 44.13 43.14 42.58 42.71 41.45 40.63 40.66 41.62 39.87 40.12 37.69
58.23 57.77 56.90 57.94 58.14 57.39 56.18 55.14 52.94 51.58 50.16 49.86 49.08 48.15 48.03 48.60 46.81 45.64 44.93 44.51 43.55 43.00 41.98 41.91 42.05 41.64 40.66 40.62 40.12 39.39 39.46 38.09

GFSFLT2_sfc_wetblb_051.txt.gz
Wetbulb
67.84 68.27 68.63 68.44 67.86 67.82 67.21 67.45 67.41 67.09 66.63 66.07 65.86 65.70 65.59 66.13 66.15 66.14 65.69 65.54 65.36 64.70 63.82 62.94 62.36 62.26 62.36 62.29 61.68 62.46 55.32 56.68
66.90 66.88 67.65 67.12 67.03 66.36 66.03 66.07 65.87 65.33 65.25 64.77 64.53 64.58 64.91 65.32 65.14 65.48 65.40 65.06 64.62 64.30 63.77 63.29 62.64 61.87 61.93 62.23 61.51 59.97 54.40 55.66
66.54 66.56 66.65 66.52 66.07 66.02 65.76 66.05 65.02 64.53 64.25 64.05 62.54 62.06 62.55 63.65 63.61 64.63 64.82 64.21 63.74 63.76 63.21 62.79 62.08 61.56 62.19 62.58 59.90 56.07 55.69 54.62
64.60 66.08 65.78 65.54 65.79 63.86 63.66 64.55 62.80 62.38 62.05 61.80 60.97 60.70 61.15 63.29 63.40 64.07 64.27 63.81 63.35 63.20 63.20 62.07 61.01 57.00 56.72 59.15 55.50 55.69 55.18 54.29
64.83 64.87 64.78 63.27 63.70 62.43 62.02 61.72 61.41 61.39 61.31 61.47 61.65 63.36 61.65 62.83 61.83 62.50 61.19 62.50 59.77 61.04 59.50 58.21 57.13 56.41 56.30 55.39 55.88 55.36 53.69 53.78
61.64 62.37 62.94 61.14 63.41 61.64 60.84 61.91 62.96 62.50 63.79 64.54 63.87 63.40 62.68 62.57 61.87 61.76 61.81 59.86 56.82 55.68 54.52 54.43 54.34 54.60 54.49 54.38 54.46 53.25 53.02 53.18
60.40 61.19 60.56 60.37 62.48 63.29 63.77 63.33 63.75 63.87 64.03 64.12 63.74 63.06 61.47 61.23 59.37 57.72 56.44 54.89 53.44 52.45 52.39 52.71 52.59 52.71 52.02 51.23 51.13 51.44 49.78 49.50
60.08 60.56 61.52 63.38 62.01 60.95 61.17 62.58 63.13 63.17 62.39 62.48 62.07 61.47 60.30 57.52 56.65 54.96 53.66 53.25 52.83 52.12 50.71 49.42 48.25 49.02 48.38 48.76 48.40 47.47 46.49 46.68
59.80 60.99 61.84 60.17 59.41 59.67 59.51 60.30 60.96 61.67 60.20 59.54 59.10 59.06 57.33 55.78 54.19 53.01 52.89 52.53 51.72 49.65 47.61 47.24 46.60 47.62 46.25 46.79 47.25 46.38 46.13 46.90
60.66 63.43 59.49 58.44 57.77 57.78 57.67 57.55 59.01 58.64 57.35 56.17 56.29 56.58 55.05 53.30 52.52 51.76 52.15 50.52 48.56 47.64 46.52 45.72 44.90 44.49 43.40 43.08 44.72 45.07 45.86 45.61
61.13 59.71 58.56 58.46 57.64 57.00 56.88 56.54 56.21 56.11 54.95 53.68 53.80 53.96 53.87 52.62 51.54 50.01 49.80 48.81 47.53 47.11 45.61 44.98 43.54 43.43 44.27 43.06 42.90 43.18 44.12 46.12
60.39 60.32 59.15 57.88 57.81 57.83 57.07 55.96 54.38 52.92 52.17 52.19 52.92 53.28 53.84 52.49 50.94 48.47 48.65 47.19 46.23 45.75 44.85 44.60 43.70 43.04 46.12 43.91 42.13 42.37 42.39 42.09
60.48 59.48 58.80 58.68 57.89 56.91 55.36 53.18 51.86 51.35 51.72 52.84 53.01 53.26 52.28 50.25 49.37 48.42 47.37 46.30 45.51 45.77 44.36 43.15 42.76 42.57 40.21 40.45 40.31 41.56 40.91 40.93
59.80 59.44 58.57 58.58 60.05 57.92 55.52 53.31 51.70 51.77 52.25 52.63 52.94 51.69 51.16 50.19 48.23 47.13 46.44 45.34 44.73 44.26 43.37 42.65 41.90 42.38 39.20 38.48 35.23 37.95 39.23 41.76
60.06 59.76 59.39 59.51 60.92 57.41 55.12 52.93 51.78 50.89 50.94 51.19 51.54 51.59 50.80 49.51 48.40 47.21 45.93 45.36 43.87 43.39 42.86 41.57 40.07 40.80 41.09 38.12 34.31 32.22 35.86 37.77
60.95 60.66 59.58 59.99 60.65 56.35 53.28 50.29 50.09 50.11 50.72 50.89 50.68 51.19 49.97 49.21 47.85 46.80 45.91 45.30 43.87 43.49 44.50 42.11 40.68 38.46 39.53 42.10 38.41 37.08 32.97 33.35
59.39 59.81 59.79 59.95 56.85 54.89 52.44 50.67 51.03 51.64 52.09 51.87 50.65 50.32 49.49 49.10 47.38 45.59 45.17 44.76 43.84 42.63 41.16 41.04 40.56 38.91 38.58 37.60 37.00 36.66 36.11 33.31
58.96 59.50 58.87 55.06 54.09 53.65 52.53 51.19 51.85 51.83 51.36 51.18 50.40 50.13 48.27 46.95 46.91 44.79 44.33 43.01 41.44 40.66 40.30 39.53 38.97 39.14 39.18 38.38 37.54 36.04 36.64 36.13
59.31 57.63 53.75 53.93 53.89 53.59 52.54 50.70 49.79 49.45 48.03 46.45 45.17 45.65 46.06 45.44 44.30 43.12 42.00 41.25 41.01 40.35 39.44 38.70 38.44 38.06 38.39 38.20 38.95 38.58 38.32 38.79
56.10 53.44 53.38 53.95 53.98 52.76 51.36 50.07 48.25 46.69 46.55 47.42 46.68 46.15 46.37 42.72 41.62 41.18 40.91 41.11 40.55 39.80 38.70 38.48 38.50 37.93 37.83 37.83 38.49 39.07 37.89 37.97

GFSFLT2_sfc_wetblb_054.txt.gz
Wetbulb
66.37 66.63 67.42 67.73 67.62 67.28 67.13 67.30 66.82 66.59 66.31 66.00 66.00 65.76 65.75 65.97 65.97 65.98 65.71 65.40 64.88 64.36 63.64 62.82 62.88 63.14 63.26 62.11 61.20 60.21 55.04 55.94
65.85 66.93 66.72 66.66 66.34 66.14 65.99 65.90 65.45 65.33 65.10 64.73 64.32 64.49 64.88 65.24 65.13 65.47 65.42 64.93 64.04 63.71 62.94 62.27 62.13 62.34 62.61 61.75 60.41 59.20 53.70 54.06
65.76 65.09 65.58 65.91 65.08 65.58 65.61 65.54 64.78 64.36 64.29 63.97 62.53 61.40 61.87 62.84 63.23 64.51 64.53 63.86 63.21 63.22 62.47 61.82 61.03 61.61 61.83 60.97 59.06 54.28 53.66 53.65
64.86 64.69 65.25 65.05 64.83 63.57 63.05 63.11 62.13 61.55 61.14 60.70 60.16 60.22 60.74 62.66 62.73 63.71 63.83 62.88 62.93 62.63 62.31 61.06 58.69 55.54 55.50 57.09 54.27 54.15 53.45 52.76
63.94 64.59 64.96 63.28 62.53 61.74 61.50 60.73 60.47 60.07 60.29 59.71 60.20 61.07 61.12 60.59 60.62 60.95 59.80 61.09 58.64 57.78 55.73 54.79 53.52 53.10 52.73 51.98 52.17 52.26 51.26 51.45
64.24 64.61 63.20 61.65 61.24 60.22 60.39 60.18 60.75 60.74 60.58 61.46 61.10 61.41 60.58 60.67 60.48 59.59 57.39 55.21 53.36 52.70 52.19 52.21 50.87 50.87 49.87 49.13 49.06 47.74 47.19 47.71
62.96 63.52 60.77 60.68 60.73 60.37 61.12 61.95 62.57 62.77 62.75 62.86 62.68 61.13 59.69 57.31 55.69 54.99 53.69 52.89 51.87 50.41 49.33 48.47 48.07 47.70 47.26 47.25 47.34 45.91 45.53 45.39
61.08 61.70 60.19 62.00 61.00 61.73 61.73 62.56 62.16 61.41 61.19 60.95 61.55 59.14 56.19 55.23 53.95 52.68 51.70 51.54 49.83 47.96 46.44 45.72 45.13 45.76 45.76 45.44 46.18 44.97 44.74 44.83
59.56 61.14 61.29 60.51 60.47 60.22 59.80 60.86 60.61 59.17 58.24 58.31 57.88 57.52 55.68 54.05 52.96 51.87 51.00 49.83 47.75 46.69 45.77 45.21 44.65 45.41 44.05 43.60 44.65 44.16 45.04 44.05
61.30 61.53 59.69 58.53 57.90 58.10 58.84 58.97 58.45 57.44 56.45 55.75 56.65 55.28 53.58 51.69 51.12 50.46 49.15 47.52 46.39 45.58 44.67 43.80 43.13 42.70 41.57 41.45 42.08 42.72 43.59 43.51
59.46 58.72 57.93 57.57 56.64 56.56 56.32 56.50 55.56 54.81 53.35 53.05 53.46 53.53 52.92 50.83 48.83 48.03 47.75 46.55 45.41 45.90 44.05 43.33 41.96 42.15 43.06 41.63 41.45 41.31 41.61 43.93
58.75 58.20 57.45 56.50 56.20 55.90 55.08 54.20 53.43 52.54 51.67 51.63 52.13 52.39 52.52 50.60 47.74 47.17 46.60 45.39 45.07 44.21 42.88 43.00 42.18 41.36 44.72 42.45 40.42 40.31 40.34 40.06
58.53 57.49 56.76 56.66 56.02 56.10 54.91 52.07 51.65 50.60 50.77 51.71 52.00 51.64 51.93 48.89 47.24 46.13 45.51 45.16 44.27 43.96 42.86 42.09 41.36 41.31 38.94 38.82 38.97 39.47 39.45 39.37
58.44 57.79 57.06 56.85 57.70 56.12 55.05 52.90 50.86 50.35 50.66 51.15 51.91 50.60 49.08 48.32 46.67 45.47 45.07 44.20 43.56 42.89 42.22 41.31 40.42 40.67 38.35 36.62 34.45 36.18 38.11 40.68
58.38 58.15 57.56 57.52 58.57 57.16 53.37 51.48 50.18 49.59 49.56 49.69 49.66 50.00 49.81 48.23 46.82 45.67 44.76 44.09 42.64 42.14 41.30 40.27 38.82 39.22 39.35 37.32 33.22 31.28 34.08 36.35
59.10 58.75 58.19 58.05 59.25 56.80 52.34 50.21 49.40 49.22 49.38 49.61 49.33 49.94 49.03 48.21 47.15 45.69 44.52 43.97 42.77 42.48 42.38 39.97 38.80 36.73 37.96 40.70 37.66 36.57 32.50 31.29
59.25 59.27 59.28 58.66 59.24 56.51 52.88 49.66 49.69 49.35 49.74 49.14 48.98 48.42 48.21 47.05 45.75 44.61 43.78 43.39 41.72 40.17 39.05 38.67 38.44 37.24 36.91 36.47 35.84 35.55 34.55 32.36
59.47 59.32 58.73 58.34 57.88 54.51 53.07 50.55 49.73 49.55 49.45 48.72 48.56 48.36 46.49 46.44 44.98 43.67 42.46 40.97 39.85 39.20 38.29 37.46 36.75 36.55 36.93 36.86 36.52 35.12 34.20 33.81
59.24 58.48 57.77 55.46 54.08 53.33 51.79 50.51 50.04 49.94 49.47 48.23 46.40 44.99 45.36 44.52 43.55 43.35 42.05 41.06 40.64 39.14 37.60 36.97 36.41 35.60 35.97 36.91 37.53 37.66 38.06 36.55
58.82 58.11 54.43 52.30 52.28 51.40 50.02 49.21 47.99 47.33 48.00 47.11 46.49 45.99 44.07 43.22 41.78 42.37 41.41 41.40 40.36 37.85 37.09 36.61 37.11 36.17 35.68 36.02 36.37 37.10 37.17 36.72

GFSFLT2_sfc_wetblb_057.txt.gz
Wetbulb
65.95 66.25 66.44 66.48 66.70 67.57 67.23 67.18 67.02 66.79 66.67 66.53 66.15 65.88 65.72 66.01 66.01 65.84 65.61 65.25 64.99 64.46 63.89 63.96 64.14 63.51 62.39 60.80 60.63 59.85 54.44 55.66
64.62 64.70 65.67 65.90 65.84 66.34 66.07 65.94 65.78 65.82 65.91 65.42 64.80 64.87 65.19 65.44 65.26 65.48 65.29 65.01 64.54 64.06 63.51 63.14 63.49 62.85 61.88 60.56 59.23 58.10 52.52 53.70
62.97 64.57 65.08 64.19 64.83 65.87 65.72 65.65 65.02 64.62 64.36 64.12 61.98 61.07 61.31 61.45 63.56 64.25 64.48 64.27 64.12 63.82 62.90 61.33 59.93 59.80 60.13 59.58 57.53 52.68 52.50 52.54
62.22 63.76 63.89 64.41 64.85 63.81 62.73 62.91 61.73 61.16 61.01 60.27 59.24 59.49 60.42 61.66 62.91 63.55 63.65 63.41 62.91 61.65 60.08 58.48 55.46 52.03 51.46 53.53 51.47 50.97 50.18 51.33
63.59 63.78 64.17 63.17 62.62 61.88 61.44 60.49 59.91 59.69 59.53 59.28 59.31 60.23 60.64 59.97 59.81 59.55 57.92 58.72 54.56 54.21 52.41 51.23 50.08 49.35 48.64 48.12 47.37 46.86 45.43 47.60
63.11 63.74 63.77 62.07 60.96 60.49 60.11 59.22 59.17 59.13 59.17 59.69 59.89 59.37 59.62 59.38 58.34 57.23 53.80 52.42 51.27 50.34 49.29 48.61 47.46 47.52 46.90 46.61 45.41 44.24 43.84 44.60
61.96 63.07 61.53 60.74 59.39 58.17 58.79 59.75 59.99 61.56 62.03 61.99 61.42 59.91 58.27 56.60 54.09 52.80 51.76 50.60 48.64 47.68 48.30 46.44 45.76 45.45 44.95 45.28 44.38 43.84 43.82 43.47
62.93 62.83 59.55 60.18 59.62 59.61 60.22 61.35 61.90 61.52 61.09 61.26 60.37 57.45 55.27 53.81 52.49 51.38 49.89 48.38 47.11 46.79 45.47 44.55 43.74 43.99 43.21 43.94 43.42 43.15 42.97 42.67
61.25 59.83 60.28 60.78 60.39 60.50 60.11 60.66 60.22 58.93 58.82 59.13 57.22 55.69 54.07 52.38 51.33 49.87 48.54 47.07 46.21 45.34 44.36 43.92 43.34 43.89 42.22 42.45 42.32 41.91 42.68 42.37
60.24 61.66 60.21 59.36 59.29 59.11 59.63 59.01 58.16 57.50 57.05 56.72 55.77 54.53 53.25 51.66 50.74 49.42 47.62 46.47 45.21 44.12 43.48 42.60 41.99 41.52 40.46 40.45 40.89 41.13 41.87 41.40
59.68 59.25 58.34 57.62 56.94 56.98 56.90 56.66 55.94 54.89 54.18 54.10 53.27 52.41 51.97 49.63 48.64 46.91 46.34 45.20 44.74 44.87 43.08 42.33 40.99 40.97 42.11 40.95 39.88 39.57 40.49 41.84
58.63 57.97 56.70 55.98 55.80 55.16 54.27 53.80 52.97 52.11 51.67 51.86 52.09 51.76 50.57 47.99 47.04 46.07 45.52 44.89 44.06 43.03 41.68 41.78 41.34 40.65 43.30 41.74 38.47 38.96 39.10 38.88
57.01 56.56 55.64 55.90 54.98 53.54 52.19 51.68 50.92 50.40 50.37 51.38 51.73 51.52 50.06 46.87 45.94 44.91 44.92 44.09 42.96 42.83 41.88 41.12 39.66 39.63 38.09 37.84 38.04 38.09 37.73 38.04
56.91 56.88 55.94 55.75 55.61 54.63 54.12 51.84 50.71 49.96 50.24 50.61 51.11 50.71 48.76 47.13 45.47 44.35 44.63 43.82 42.70 42.00 41.35 40.31 39.29 39.33 37.14 35.35 32.97 35.22 37.29 38.78
57.42 57.16 56.42 56.00 56.55 54.69 51.76 50.26 49.48 48.62 48.72 48.96 49.64 48.93 48.17 47.06 45.63 44.56 43.58 43.24 41.92 41.07 40.32 39.55 37.91 38.06 38.25 35.97 31.58 29.71 32.95 35.78
58.28 57.57 56.54 56.48 57.37 54.60 51.79 50.03 48.13 48.38 48.54 48.92 48.68 48.89 48.08 46.96 45.94 44.51 43.58 42.83 41.89 41.24 41.24 39.68 37.97 35.85 37.01 39.83 36.85 35.58 32.29 30.67
57.96 57.63 57.19 57.46 57.69 56.30 52.61 49.21 48.72 48.80 48.76 48.48 47.66 47.48 47.24 46.21 45.10 43.90 42.93 42.63 40.22 38.95 38.26 37.72 37.96 37.66 35.86 35.29 34.72 34.12 33.32 32.16
57.48 57.57 57.46 57.83 57.93 55.94 53.10 50.33 48.82 48.50 47.77 47.45 47.14 46.02 44.79 44.60 44.41 43.56 42.80 39.83 38.97 38.61 37.59 37.18 35.71 35.15 35.41 35.07 35.20 34.18 33.48 32.10
58.04 57.86 57.78 57.77 57.87 55.84 53.44 50.85 49.69 49.13 48.48 48.28 45.81 43.72 43.90 43.65 43.75 42.95 42.38 40.40 39.75 40.31 37.71 36.37 35.41 34.50 34.68 35.73 36.69 36.34 36.55 35.27
58.28 58.27 57.96 57.26 56.04 54.50 52.38 50.63 49.72 48.43 47.83 46.97 45.45 45.00 43.11 43.37 43.70 42.19 42.19 42.20 40.79 38.94 37.28 35.94 36.23 35.03 34.59 34.56 34.99 35.82 36.11 36.34

GFSFLT2_sfc_wetblb_060.txt.gz
Wetbulb
66.05 66.64 66.80 66.13 66.82 67.49 67.02 67.08 67.07 66.76 66.88 66.92 66.66 66.31 66.03 66.25 65.81 65.79 65.46 65.15 65.24 65.26 64.58 63.79 63.52 62.74 62.18 61.55 60.47 59.75 54.63 55.98
64.67 65.04 64.76 65.02 65.52 65.90 66.00 66.08 65.86 65.95 66.10 65.41 64.77 64.86 65.25 65.28 65.17 65.39 65.19 65.08 64.81 63.79 63.37 63.09 62.61 61.83 60.69 59.46 58.95 56.87 52.55 53.52
63.33 63.68 64.11 64.32 64.22 65.80 65.44 65.95 65.50 65.15 64.80 64.20 61.92 61.25 61.22 60.71 63.97 64.42 64.53 64.41 63.33 61.97 60.43 58.79 57.63 58.47 58.69 57.65 54.61 50.96 52.35 52.59
60.02 62.39 62.90 63.61 64.76 63.72 62.75 63.37 61.75 61.40 61.13 59.73 59.58 59.20 58.89 61.64 62.69 63.73 63.81 62.27 61.05 59.33 57.32 55.80 52.27 49.18 49.26 50.59 47.23 47.01 47.97 52.45
61.11 62.39 62.99 63.48 62.83 61.84 60.81 59.98 59.75 59.68 59.32 58.91 58.73 60.56 59.73 59.72 58.84 58.30 56.13 55.63 51.74 51.07 49.51 48.46 47.65 47.68 46.88 45.58 45.21 44.98 44.42 45.79
60.42 61.95 63.31 62.55 61.74 60.85 59.65 58.50 58.59 58.63 58.39 59.16 59.31 58.99 58.50 58.46 57.44 53.46 52.35 50.42 48.75 47.93 47.27 46.58 46.21 46.68 45.78 44.77 44.50 43.70 43.42 43.97
60.77 62.76 62.17 61.28 60.40 59.33 58.80 58.54 58.68 59.05 59.08 59.94 60.63 58.98 58.60 55.34 52.78 51.25 49.51 48.24 46.93 46.40 47.18 47.16 45.66 44.52 44.41 43.80 43.65 43.23 43.37 43.41
60.88 61.68 61.15 60.13 58.39 57.59 58.09 59.35 60.21 60.76 60.84 60.95 60.38 58.26 55.44 53.23 51.45 49.32 47.53 46.54 46.22 47.67 46.54 45.35 42.67 43.07 42.77 43.04 42.70 42.69 42.40 42.60
61.31 61.30 59.72 59.27 58.28 58.24 59.48 60.45 60.77 60.33 60.09 59.66 57.49 55.94 54.43 52.17 50.60 47.33 46.16 45.63 45.83 46.73 44.56 43.10 42.59 43.15 41.82 42.11 41.86 42.21 42.14 41.88
61.34 61.99 60.15 59.51 58.83 58.82 59.29 58.97 58.87 58.26 58.08 57.08 56.04 54.69 53.13 50.44 48.96 47.08 46.47 45.52 45.31 43.59 43.12 42.06 41.49 41.26 40.53 40.59 40.17 41.31 41.09 41.35
58.73 59.20 58.63 58.13 57.48 57.42 57.66 57.48 56.62 56.24 56.06 55.66 53.32 52.34 51.80 50.55 48.77 46.42 45.94 44.89 44.27 44.17 42.32 42.04 40.71 40.91 41.91 40.81 39.49 39.91 40.29 41.50
58.66 57.82 56.46 55.80 55.39 55.23 54.47 54.39 54.11 53.96 54.02 52.77 51.70 51.01 50.26 49.04 46.94 45.49 44.96 44.20 43.07 42.29 41.67 41.58 40.91 40.42 42.73 40.45 38.89 39.20 39.26 38.96
57.26 56.14 55.18 56.06 55.19 53.26 52.26 51.93 51.64 51.40 51.43 51.60 51.17 50.77 48.61 46.97 45.56 44.45 44.42 43.47 42.41 41.99 41.41 40.79 39.83 39.74 38.28 37.50 37.93 38.35 38.76 38.57
56.62 56.85 55.68 56.50 56.75 53.47 53.18 51.83 50.72 50.23 50.10 50.52 51.01 49.53 47.20 46.36 44.59 43.76 43.67 42.90 42.23 41.59 41.52 39.99 39.37 39.06 36.80 35.09 33.00 35.46 37.53 38.74
56.86 56.93 56.16 56.27 55.66 54.07 50.80 50.03 49.80 48.61 48.42 48.67 49.49 49.64 47.61 46.09 44.62 44.06 43.37 42.58 41.38 40.54 39.90 39.26 37.45 37.95 38.31 35.51 30.62 29.60 33.12 36.31
57.00 56.93 56.04 55.48 55.64 53.47 51.51 50.85 48.65 48.40 48.86 48.65 48.67 48.45 47.16 45.69 44.65 43.75 42.68 42.33 40.96 40.52 40.67 39.13 37.43 35.69 36.54 39.58 36.81 35.32 32.54 31.26
56.38 56.54 56.04 55.72 56.07 54.91 53.01 50.70 50.63 50.27 48.50 48.72 47.64 46.44 46.34 45.45 44.28 42.99 42.27 42.07 40.72 40.95 40.08 39.40 38.19 36.63 35.70 35.03 34.63 34.44 33.98 32.86
56.00 56.12 56.22 56.24 56.46 55.64 54.00 53.27 50.69 49.66 47.76 48.01 46.36 44.73 43.98 43.59 43.27 42.39 40.80 40.45 41.45 40.37 38.10 38.05 36.54 36.18 36.00 35.59 35.57 33.90 33.41 32.14
56.76 56.56 56.28 56.74 56.58 55.92 54.82 53.94 51.67 49.67 47.99 47.61 45.14 42.89 42.02 41.97 41.28 41.81 42.78 42.28 41.98 40.89 39.52 38.41 37.74 36.23 34.93 35.02 36.24 36.25 36.51 35.28
57.41 56.90 57.44 57.25 57.10 56.78 55.94 54.29 50.76 48.85 48.61 48.67 44.61 43.31 42.22 42.41 44.17 43.46 43.49 42.67 41.43 40.30 39.45 38.38 37.71 35.55 34.75 34.62 34.81 35.39 35.86 35.99

GFSFLT2_sfc_wetblb_063.txt.gz
Wetbulb
66.78 66.92 66.92 66.76 67.30 67.07 66.78 66.85 66.78 66.98 67.21 67.15 66.84 66.47 66.26 66.22 65.93 65.72 65.83 65.66 65.08 64.71 64.36 63.76 63.57 63.16 62.29 61.26 60.46 59.85 61.44 61.77
65.17 64.71 63.22 64.27 66.13 66.12 65.89 65.85 65.87 66.07 66.05 65.45 65.00 64.95 65.32 65.49 65.16 65.32 65.51 65.51 65.31 64.00 63.54 62.86 61.66 60.87 60.03 59.30 58.62 58.88 59.87 60.92
64.29 62.03 63.57 63.33 64.28 65.58 65.76 65.78 65.51 65.20 65.04 64.45 63.20 63.93 63.46 63.71 64.24 64.94 64.59 63.74 62.55 60.72 59.31 58.93 58.93 58.06 56.17 54.73 56.55 58.34 59.08 59.53
61.94 61.85 61.52 62.24 64.39 64.64 65.33 64.99 64.79 64.43 63.94 63.48 62.80 63.36 63.52 62.98 63.57 63.50 62.74 61.62 60.38 58.31 56.64 55.85 55.50 54.10 53.74 54.14 53.56 54.12 56.39 58.25
58.61 59.72 62.47 62.19 62.45 63.50 63.34 63.29 63.50 63.36 63.00 62.41 62.66 62.82 63.57 63.04 62.91 61.47 59.58 57.28 54.74 53.81 53.98 54.09 53.77 53.60 53.13 52.94 52.80 52.69 53.04 53.57
58.25 58.76 58.98 64.09 63.69 63.01 62.33 61.46 61.92 61.70 61.37 62.41 63.41 62.53 63.06 62.83 61.42 58.71 56.43 55.01 54.41 53.62 53.57 53.52 52.96 52.50 52.38 51.91 51.88 51.89 52.10 52.37
58.01 59.62 63.18 63.94 63.57 63.04 61.72 61.44 61.77 62.69 62.49 63.30 64.03 62.93 63.00 61.02 57.64 55.77 54.09 54.19 53.42 53.13 52.57 51.56 51.92 51.56 51.08 50.91 50.41 50.90 51.58 52.65
60.23 62.35 64.31 63.89 62.96 62.69 61.57 61.56 62.42 62.30 63.09 63.34 64.41 63.26 61.06 57.23 55.63 54.02 53.08 53.55 53.40 52.76 51.47 50.54 51.03 51.01 50.19 50.26 50.03 50.14 51.68 53.51
60.24 62.98 64.46 63.73 62.63 61.94 61.67 61.70 62.48 62.20 62.69 63.53 63.37 61.91 59.18 57.39 55.43 53.64 53.08 53.42 52.61 49.85 51.25 51.58 50.77 50.23 49.79 49.38 49.78 49.67 49.78 50.52
62.13 62.80 63.57 63.02 61.87 61.69 61.84 62.29 63.50 64.06 64.30 63.21 62.13 60.39 58.68 56.84 54.36 52.86 52.96 52.93 51.87 51.55 51.40 50.45 50.34 50.17 49.95 48.80 49.06 48.97 49.08 49.26
62.35 63.74 63.45 63.46 62.40 62.02 62.67 63.46 63.68 63.33 62.72 61.98 60.08 58.95 57.53 55.76 53.86 52.75 53.41 52.73 52.62 51.62 50.56 50.62 49.79 49.82 49.48 49.31 49.03 48.45 48.62 48.30
63.20 63.64 63.37 62.30 61.75 61.69 62.30 62.46 62.08 61.80 62.14 60.93 59.04 57.95 56.61 55.27 53.57 53.00 52.89 52.07 51.21 51.04 50.58 50.32 50.02 49.74 48.00 47.65 48.90 47.96 48.47 49.25
62.26 62.02 62.04 60.78 59.69 59.02 58.84 59.83 59.86 59.42 59.98 58.85 57.71 56.69 55.80 53.40 53.47 52.47 52.68 52.07 50.96 51.14 50.18 49.59 48.85 49.71 47.72 47.05 47.85 47.18 46.98 47.89
61.34 61.49 60.61 60.89 61.10 60.67 60.55 60.18 58.95 58.60 58.06 57.70 57.01 55.89 54.24 52.83 52.74 51.73 51.95 50.50 50.39 50.55 50.44 48.72 49.00 48.72 45.78 44.96 42.76 43.97 45.99 46.99
60.66 61.19 60.83 61.25 61.48 60.07 57.53 56.92 56.35 55.58 55.90 55.56 54.68 53.75 52.51 52.83 52.21 51.72 51.45 51.34 50.16 50.41 50.03 48.42 46.52 46.62 46.05 43.79 40.08 39.05 41.04 45.40
60.90 61.03 60.68 60.75 60.56 59.85 58.40 58.69 56.79 56.64 55.95 54.15 52.95 52.77 52.26 52.27 51.70 51.71 50.97 50.58 50.07 49.59 48.60 48.25 46.56 43.66 45.24 45.22 45.03 43.31 38.64 37.63
61.03 60.83 60.40 60.28 59.79 59.99 59.15 58.27 57.79 56.02 54.94 53.12 52.92 52.81 53.06 51.61 51.39 50.72 50.36 50.29 49.53 49.13 47.11 44.76 43.84 43.13 43.75 43.73 43.22 43.43 42.96 39.58
60.35 60.13 59.75 59.66 59.47 59.14 58.61 57.37 55.37 53.82 54.22 52.88 52.74 52.91 51.98 51.15 50.26 50.48 50.31 48.73 47.71 44.88 46.45 43.07 43.12 42.82 43.07 43.65 42.41 40.75 40.12 39.94
59.94 59.62 59.24 59.05 58.40 58.57 57.99 57.50 55.86 54.85 54.79 52.69 51.98 51.19 50.02 49.34 49.61 48.64 47.66 47.71 46.58 44.47 45.15 44.12 41.19 41.80 43.63 43.25 43.68 43.12 43.38 42.19
58.78 58.96 59.17 59.01 57.99 58.14 57.80 57.01 56.71 55.59 52.81 53.33 52.73 51.07 49.07 49.11 48.40 47.80 47.59 46.94 44.10 43.43 44.37 42.63 43.17 44.00 43.71 43.83 43.47 43.07 42.70 41.59

GFSFLT2_sfc_wetblb_066.txt.gz
Wetbulb
67.68 67.91 68.49 67.57 66.85 66.78 66.64 66.87 66.97 67.39 67.24 67.05 66.65 66.20 66.12 66.39 66.24 66.32 65.99 65.74 65.57 65.40 65.11 64.56 63.80 62.74 61.68 60.87 60.41 60.92 62.83 62.64
64.08 63.59 63.37 61.68 62.20 64.81 65.90 66.16 66.30 66.36 65.84 65.42 64.89 64.95 65.50 65.56 65.46 66.11 65.87 65.34 64.82 63.67 63.19 62.82 61.77 60.95 59.77 59.02 59.57 60.33 61.76 61.33
61.66 62.17 61.39 62.01 62.98 64.80 65.89 66.21 65.87 65.11 64.83 64.11 63.14 63.00 62.88 63.41 64.57 65.17 65.14 64.06 63.18 61.87 61.23 59.86 58.83 57.26 56.16 56.82 57.81 60.72 60.61 60.59
61.36 61.61 61.72 61.28 61.39 61.43 64.57 64.92 64.42 64.00 63.18 63.93 63.96 64.46 64.51 64.11 63.77 63.35 62.66 61.45 60.25 58.32 58.04 58.37 59.92 59.27 57.64 57.38 57.44 57.60 58.20 59.02
60.94 61.27 61.54 60.36 60.28 62.41 63.18 62.98 64.23 64.16 64.36 63.71 64.81 64.89 64.19 64.71 63.18 62.28 61.27 60.17 58.71 58.45 59.15 59.67 59.20 58.34 57.55 57.04 56.14 56.06 55.67 55.60
60.18 60.53 60.31 60.53 61.25 63.06 63.97 62.95 63.40 63.07 63.65 64.59 64.08 63.73 63.99 64.45 63.77 63.22 61.69 60.94 60.13 59.83 58.38 58.01 56.72 56.39 55.62 55.24 55.17 54.57 54.31 54.54
58.44 60.17 59.59 60.54 60.79 62.69 62.68 62.82 62.71 62.71 63.63 64.06 64.01 63.52 63.97 64.47 63.55 62.43 61.34 60.42 59.37 58.37 57.42 56.14 55.78 55.13 54.72 54.06 53.60 53.89 54.17 55.11
57.40 58.24 58.90 60.14 63.31 63.80 62.74 62.94 64.10 63.62 63.83 64.72 65.34 64.60 64.73 63.64 62.30 60.60 59.47 59.51 59.10 57.92 57.00 56.39 55.13 54.35 53.77 53.27 52.68 53.14 54.00 55.51
58.18 60.05 62.90 63.90 64.89 64.43 63.04 63.00 62.97 62.64 63.03 65.69 66.32 65.70 64.45 63.33 60.61 58.10 59.21 59.63 58.42 56.58 55.96 55.64 54.30 53.32 52.41 53.01 53.21 52.72 53.29 53.74
60.99 62.50 64.64 65.62 65.53 64.19 62.79 62.94 63.00 63.06 64.00 65.52 66.65 65.72 64.17 61.26 60.48 59.55 59.16 58.01 56.73 55.79 55.63 54.09 53.89 53.99 53.65 54.04 53.92 53.08 53.25 53.06
61.77 64.39 65.39 65.87 64.98 64.02 63.62 63.61 63.28 65.15 66.14 65.98 66.08 65.48 63.59 62.11 60.47 59.14 58.55 57.19 56.84 55.73 55.10 54.71 53.43 54.10 53.79 54.75 54.13 52.84 52.45 51.92
64.02 64.63 65.64 66.07 66.38 64.84 63.63 63.48 64.09 66.22 66.14 65.44 64.63 64.06 62.74 61.89 60.15 58.83 58.51 57.33 56.39 55.25 54.40 54.31 54.70 55.29 52.13 52.65 53.30 52.52 52.73 52.09
63.80 64.03 65.39 65.59 64.95 62.79 61.87 62.01 64.08 65.15 65.20 65.63 64.58 63.80 62.67 61.37 59.66 58.37 58.34 56.97 55.98 55.78 54.46 53.41 53.20 54.79 53.58 52.91 51.92 51.56 51.13 50.96
64.11 64.68 65.85 65.91 64.88 63.49 62.53 62.78 63.64 65.00 64.55 64.43 63.84 62.44 61.60 60.16 59.18 57.99 57.70 56.36 55.55 54.85 54.35 53.01 53.62 53.42 50.90 49.46 48.30 49.14 49.92 50.30
64.09 65.29 65.61 65.80 65.06 63.65 63.31 64.46 64.34 63.38 62.45 62.55 62.65 60.49 60.98 58.91 57.68 58.37 57.17 56.24 54.83 54.99 54.76 53.53 51.63 51.18 50.39 47.28 42.02 44.07 46.04 49.32
64.68 65.37 65.46 65.46 65.19 63.56 62.16 61.56 61.20 62.79 62.72 62.85 59.59 59.63 58.22 56.89 57.57 57.62 56.72 56.30 55.55 54.82 54.39 53.55 51.51 48.13 49.33 45.65 46.20 44.75 42.40 41.66
63.80 64.48 65.14 65.61 65.58 64.93 63.42 62.60 63.56 64.13 62.80 61.69 59.86 58.07 56.89 56.21 56.83 56.92 56.30 55.94 55.70 54.58 53.38 51.21 48.56 49.24 46.37 44.45 44.45 46.60 46.09 43.10
64.50 63.84 64.07 65.14 65.29 65.05 64.46 63.85 63.39 61.50 60.89 59.44 56.56 56.53 54.66 55.56 56.14 56.31 56.27 55.61 54.58 53.38 52.08 49.63 47.97 46.99 45.62 45.14 45.70 44.00 43.39 43.14
64.42 64.15 63.34 64.71 64.58 64.32 64.22 64.21 63.76 61.49 60.38 58.69 57.13 55.37 54.98 55.66 55.97 55.56 55.18 54.85 53.82 50.72 50.23 46.41 46.19 45.24 44.61 46.72 46.67 45.63 45.36 44.26
63.79 63.58 63.32 63.73 62.86 63.81 63.65 62.30 61.53 60.87 60.11 59.08 55.83 53.95 56.36 57.10 55.85 55.30 54.63 53.07 51.28 46.36 49.23 48.51 44.55 44.42 46.86 46.80 46.09 46.04 45.77 44.71

GFSFLT2_sfc_wetblb_069.txt.gz
Wetbulb
67.33 68.38 68.42 67.08 66.58 66.60 66.76 67.37 67.27 67.33 67.53 67.26 66.97 66.57 66.44 66.53 66.79 67.04 66.60 66.20 65.88 65.44 64.78 64.24 63.38 62.14 61.25 60.88 60.71 62.30 62.72 62.41
65.06 63.43 65.01 63.86 64.92 65.88 66.17 66.55 66.73 66.55 66.25 65.77 65.32 65.33 65.48 65.87 65.43 65.74 65.76 65.41 64.86 63.90 63.74 63.13 61.70 60.69 60.24 59.78 59.72 61.70 61.08 61.41
60.62 60.41 61.26 62.40 62.79 64.61 66.10 66.17 65.68 65.04 64.89 64.40 63.48 63.16 63.30 63.95 64.79 64.97 64.84 64.20 63.69 62.84 61.89 60.70 59.43 58.13 57.60 57.96 59.02 59.64 59.96 60.45
59.45 58.70 58.41 59.05 60.66 62.14 64.70 65.52 64.34 64.04 63.68 63.64 62.67 64.71 64.62 63.86 63.81 63.36 63.27 62.58 61.66 61.47 60.77 60.18 60.75 59.35 58.48 58.10 57.57 57.58 56.83 58.13
59.59 58.65 58.25 58.35 60.66 62.65 61.92 63.10 62.89 63.19 64.32 64.59 64.41 64.94 64.97 64.25 62.85 61.66 61.27 61.18 59.67 58.87 58.44 60.64 61.25 60.24 58.63 57.35 56.47 56.04 55.54 55.45
59.67 59.37 59.18 59.42 61.53 61.30 62.04 61.31 61.80 62.98 63.93 66.20 65.55 64.68 64.62 63.44 62.49 62.39 61.72 61.41 60.61 61.49 60.79 60.21 58.96 57.65 56.49 55.83 55.40 54.94 54.55 54.66
58.67 59.12 58.86 58.50 59.60 58.93 59.15 61.44 62.78 63.61 64.25 65.56 64.78 64.57 65.73 64.20 64.10 62.80 62.35 62.27 61.65 61.08 59.58 58.15 57.49 56.80 55.80 54.88 54.35 54.77 55.02 55.45
57.81 58.42 59.14 58.90 58.05 57.05 57.72 62.21 61.93 63.12 63.95 64.05 66.20 65.56 65.84 64.58 64.12 63.16 62.42 62.09 61.54 60.82 59.38 58.34 57.36 56.18 54.80 54.17 53.74 54.01 54.60 55.59
57.89 57.96 58.13 58.28 59.03 60.68 62.07 62.47 63.29 62.57 62.86 65.74 65.07 65.66 65.34 64.85 63.60 62.30 61.85 62.21 61.55 60.52 59.27 58.33 57.01 55.20 53.71 53.74 53.64 53.80 54.05 54.26
57.08 57.69 58.65 60.16 61.58 62.78 63.24 62.96 63.61 63.53 63.67 64.38 65.53 66.19 65.94 64.81 62.42 61.24 61.66 61.38 60.21 59.12 58.36 57.06 55.48 54.67 54.42 54.61 54.59 54.06 53.55 53.24
57.82 59.32 60.73 63.05 64.07 64.64 63.92 64.71 62.85 62.51 63.91 65.10 66.19 66.23 65.51 64.14 62.80 62.76 61.71 60.35 59.25 58.46 57.75 56.94 54.80 54.63 54.27 54.80 54.62 53.64 53.14 52.34
61.67 62.93 63.87 64.89 65.65 64.31 62.96 62.81 62.86 63.63 64.94 65.61 66.24 65.88 64.72 63.69 63.49 62.47 60.86 59.54 58.97 58.50 57.49 56.10 55.75 55.50 52.92 53.41 54.66 53.95 53.83 53.18
62.14 63.23 64.26 64.68 64.10 62.61 61.53 60.49 61.87 63.22 65.38 65.52 65.67 65.55 64.78 64.42 62.95 61.22 60.54 59.73 59.36 57.95 56.40 55.20 54.36 55.26 53.86 54.07 54.01 53.79 53.31 52.83
63.23 63.49 64.44 64.70 64.36 63.34 62.09 61.71 62.05 63.38 65.87 65.36 65.53 65.07 64.45 63.50 62.76 61.06 60.39 59.77 58.84 57.32 56.23 54.68 55.33 55.17 52.67 52.07 50.00 51.58 51.86 52.30
63.29 63.85 64.21 64.98 65.10 63.92 62.74 62.59 62.59 62.53 64.39 63.59 64.05 64.48 64.47 63.72 62.70 61.53 60.67 60.05 57.69 56.87 56.17 55.57 53.60 53.95 52.73 51.06 47.82 46.60 48.30 51.65
64.85 64.79 64.82 65.48 65.24 63.93 62.26 60.76 60.11 62.23 63.53 63.65 62.78 63.81 63.17 61.68 61.63 61.21 60.86 59.84 58.32 56.89 56.65 56.48 55.25 52.57 52.31 50.82 50.67 48.15 44.85 44.53
64.90 64.89 65.18 65.54 65.74 65.20 62.98 61.97 62.68 63.63 64.12 63.27 63.34 62.56 61.75 60.77 60.23 60.36 60.13 58.82 58.64 58.45 57.09 55.74 53.93 52.00 48.94 49.01 47.75 48.47 48.87 45.15
64.39 64.47 64.85 65.55 65.80 65.55 64.75 63.41 63.29 62.63 63.95 62.06 61.96 61.29 60.06 58.26 58.30 59.61 59.35 57.12 57.88 57.20 56.21 54.69 51.97 50.76 48.78 47.23 47.29 47.04 46.36 45.33
64.48 64.05 63.61 64.95 65.54 65.70 65.50 65.13 64.70 64.22 63.19 62.08 60.97 59.56 58.05 57.63 57.88 57.02 57.49 56.37 57.68 56.49 55.05 51.68 48.71 48.72 47.98 47.06 47.77 47.98 47.36 45.84
64.69 64.23 63.85 64.29 64.92 65.92 66.22 65.95 65.19 65.45 63.97 62.79 61.06 59.37 59.69 58.58 56.11 55.29 55.49 55.61 56.76 55.40 51.34 48.94 47.43 48.13 46.71 46.55 47.23 47.46 47.37 46.10

GFSFLT2_sfc_wetblb_072.txt.gz
Wetbulb
63.11 65.55 67.81 67.61 67.13 67.11 67.17 67.40 67.44 67.55 67.50 67.13 67.13 67.27 67.58 68.02 67.70 67.51 67.26 66.72 66.27 65.60 64.80 64.14 63.12 62.12 61.09 60.61 61.26 62.17 58.15 59.48
63.83 65.40 64.68 65.13 65.84 66.25 66.22 66.49 66.45 66.36 66.13 65.73 65.24 65.55 66.24 66.27 65.97 66.18 66.08 65.69 65.05 64.41 63.76 62.90 61.95 60.43 59.80 59.39 60.74 60.95 57.35 58.55
64.61 63.41 63.32 63.49 63.84 65.60 66.05 66.16 65.53 65.11 64.81 64.28 63.07 63.14 63.52 63.80 64.74 65.12 65.20 64.85 64.28 63.33 62.49 61.38 59.82 58.97 59.05 58.68 58.98 54.90 56.49 57.97
60.88 60.24 60.19 60.89 62.46 63.42 64.33 65.02 63.99 63.57 62.62 62.60 61.43 61.79 62.52 63.23 63.63 63.92 64.07 63.78 63.54 62.75 61.88 60.67 59.35 54.52 54.39 57.78 53.40 53.72 55.47 57.15
59.21 58.94 58.54 57.98 57.93 58.57 59.48 62.29 62.09 62.36 62.92 61.94 62.91 62.24 61.93 61.36 60.26 59.95 59.30 60.39 57.81 58.93 58.42 56.98 58.07 56.55 54.73 53.02 53.26 52.73 52.48 52.86
57.46 58.46 59.31 58.94 59.16 60.66 61.60 60.91 61.01 60.91 62.29 62.74 63.31 61.96 61.82 60.79 59.81 59.51 58.82 58.61 56.59 56.73 58.31 57.71 55.42 54.76 53.26 52.58 52.13 51.49 50.57 52.67
57.66 58.71 58.98 59.69 59.07 59.54 60.34 60.68 59.94 60.93 61.48 62.98 63.20 62.53 61.56 61.36 60.67 59.81 58.78 58.74 58.65 58.68 56.98 55.64 54.70 53.63 52.78 51.96 51.43 51.13 51.49 53.92
57.55 57.53 57.67 57.14 56.49 57.27 58.20 59.18 60.15 61.41 62.17 62.18 63.52 63.40 62.67 62.25 61.54 60.59 59.93 59.55 59.36 58.32 56.48 55.30 54.54 52.66 51.37 51.01 50.60 50.90 51.20 52.94
55.90 55.81 56.51 55.79 55.71 56.38 57.54 58.59 59.06 59.22 60.88 62.43 63.16 63.36 62.88 62.63 62.10 60.99 59.92 59.67 59.54 58.35 56.72 55.89 53.28 52.73 50.79 50.64 50.44 50.41 50.60 50.29
56.80 56.45 55.41 55.72 56.30 56.63 57.38 58.90 59.86 60.53 61.39 61.91 63.35 63.46 63.22 62.56 61.41 60.25 60.04 59.59 58.16 56.49 55.29 53.79 52.59 50.84 49.68 49.16 49.65 50.13 49.82 49.24
56.40 56.23 56.00 56.31 57.75 57.83 59.22 60.49 60.72 61.51 61.64 62.25 63.00 63.45 63.60 62.25 60.41 59.47 59.64 58.75 57.23 56.63 55.41 53.83 51.10 50.70 51.17 50.30 49.59 49.23 49.20 50.85
56.73 56.79 57.55 58.17 58.55 60.62 60.75 61.20 60.93 61.47 62.65 63.12 63.88 64.08 63.96 62.78 61.13 60.13 59.36 57.97 56.48 55.26 54.43 53.66 51.77 51.46 52.17 50.91 49.83 49.58 49.62 48.69
56.73 57.14 57.89 59.83 60.02 59.32 59.43 59.12 59.82 60.32 61.71 63.34 63.93 63.90 64.08 61.79 61.94 60.62 58.48 57.13 55.85 56.32 54.10 51.93 50.18 50.82 49.61 49.44 49.75 49.66 48.72 48.34
57.16 58.12 61.38 62.11 61.99 61.52 60.55 59.92 60.11 60.58 62.39 63.50 64.08 63.90 63.83 62.89 61.86 59.36 58.17 57.32 57.40 54.76 53.10 50.85 51.34 51.85 48.18 47.65 44.97 46.79 48.87 49.26
59.55 61.13 62.34 62.70 62.85 62.28 60.89 60.31 60.01 59.56 62.57 62.94 63.34 63.90 63.53 62.34 61.69 59.70 58.40 58.29 56.05 54.64 53.60 52.00 49.90 49.94 49.29 46.70 42.73 42.21 42.78 46.92
61.28 62.13 62.98 63.39 63.24 61.56 59.67 58.36 57.24 58.94 61.88 62.89 62.74 63.02 63.01 62.62 61.64 60.41 59.29 58.31 56.55 54.89 55.19 52.48 51.90 48.53 48.15 48.75 47.77 45.72 41.74 39.69
62.22 62.69 62.67 62.24 63.09 62.65 60.83 59.33 59.11 59.80 61.03 61.95 61.75 62.03 62.17 61.88 60.37 59.30 58.97 58.31 57.14 55.40 53.82 53.72 52.33 47.69 47.27 46.17 45.23 43.98 45.57 41.19
63.16 63.11 62.77 63.06 63.52 62.52 62.46 59.94 60.42 60.14 61.56 60.97 61.04 60.95 60.39 60.16 59.49 58.59 57.82 57.50 55.66 55.01 54.40 53.81 48.67 47.11 46.20 45.12 44.97 43.97 44.18 41.60
62.93 62.96 62.11 63.17 63.78 62.98 63.03 62.95 61.12 60.79 61.52 60.80 60.51 59.28 58.36 58.67 57.85 57.16 57.40 56.46 55.35 54.72 53.89 50.91 47.07 44.93 44.27 44.83 46.35 45.20 46.39 42.76
62.33 62.50 62.12 62.95 63.55 63.69 64.02 63.52 63.17 62.31 62.45 61.63 60.82 59.65 58.10 57.26 57.02 56.54 56.28 55.30 54.61 53.63 49.59 48.37 46.61 46.56 44.75 45.15 45.11 45.72 45.26 43.16

GFSFLT2_sfc_wetblb_075.txt.gz
Wetbulb
64.84 63.73 65.13 67.57 67.37 67.27 67.07 67.56 67.86 68.09 68.18 68.43 68.85 68.71 68.69 68.44 67.63 67.62 67.45 66.88 66.04 65.21 64.26 63.24 62.63 61.91 61.55 61.13 61.08 61.87 57.51 57.35
63.92 64.87 64.71 65.58 66.42 66.40 66.29 66.54 66.45 66.56 66.69 66.63 66.41 66.72 67.09 66.99 66.81 66.82 66.68 65.95 65.24 64.25 63.30 62.36 61.44 60.40 60.18 59.19 60.02 60.59 56.90 57.21
63.50 63.32 63.43 63.65 64.50 65.58 65.63 66.03 65.56 65.27 65.20 64.87 64.14 64.58 64.26 64.06 65.21 65.54 65.49 64.89 64.38 63.70 62.73 61.46 60.41 59.09 58.15 58.25 57.35 56.38 56.64 56.93
62.20 62.50 62.81 62.81 63.37 64.18 63.41 63.73 62.48 62.27 61.75 60.56 61.22 61.89 62.91 63.56 64.19 64.58 64.75 64.26 63.76 63.25 61.87 60.88 57.20 52.68 52.91 54.80 50.61 55.34 56.46 56.10
59.78 60.28 61.29 61.71 61.55 61.57 62.42 62.25 61.27 61.21 60.62 60.60 61.57 61.76 61.23 60.86 60.40 59.97 59.98 61.30 58.78 59.15 57.36 54.82 55.05 52.76 50.33 49.64 50.07 50.58 50.48 52.55
57.71 57.92 58.37 58.98 59.24 59.46 60.36 60.88 60.24 60.39 60.81 61.68 60.73 60.07 58.68 58.53 57.85 57.15 55.86 55.75 54.66 53.76 54.58 52.99 51.61 51.24 50.46 49.57 48.95 48.68 49.19 50.50
57.19 57.33 57.11 57.14 57.06 57.83 57.67 60.39 59.92 60.31 61.37 62.28 61.60 60.11 58.55 58.72 57.56 57.66 56.29 54.91 54.32 55.08 53.57 52.66 51.34 50.55 49.57 49.43 48.87 48.58 50.55 51.54
57.35 57.69 58.16 58.98 58.18 58.40 58.83 59.38 59.47 60.58 60.91 61.50 61.50 60.85 59.66 58.86 58.11 57.32 56.54 55.62 55.88 54.62 53.44 52.36 50.82 49.42 48.38 48.37 48.34 48.74 51.04 51.01
55.74 56.07 57.40 57.31 56.89 56.51 56.55 57.26 58.42 58.68 59.96 60.50 61.41 61.32 60.11 60.06 58.46 57.79 57.66 56.86 56.40 54.54 53.59 52.41 50.20 50.06 48.06 48.50 47.80 48.59 48.46 50.62
56.36 56.71 55.59 55.57 55.17 54.99 55.68 55.86 56.59 56.75 58.56 59.42 60.63 61.72 61.00 60.57 59.27 58.51 57.74 57.54 56.00 54.86 53.45 51.21 49.69 47.21 46.44 46.10 47.16 47.74 47.78 47.38
55.08 54.50 54.45 54.59 54.92 55.09 55.20 55.79 56.25 55.33 57.30 58.94 60.50 61.34 61.24 59.96 58.94 57.77 57.07 56.01 55.36 54.60 52.86 51.50 48.70 47.71 47.37 47.38 46.64 46.60 46.89 48.85
54.41 53.77 53.75 54.21 54.43 54.22 54.53 55.91 56.77 56.47 58.04 59.05 60.21 60.57 61.28 60.14 58.34 56.91 56.77 55.59 54.88 53.83 52.45 51.59 49.44 48.52 51.06 49.13 46.29 46.82 46.01 45.83
54.17 53.27 53.75 55.04 54.49 54.41 55.39 56.31 57.34 57.91 58.79 60.15 61.21 62.58 62.25 60.34 59.03 57.32 57.13 55.82 54.45 53.14 52.82 50.12 48.59 48.48 47.28 46.21 46.47 45.94 46.60 45.87
54.54 54.27 54.60 55.50 55.65 56.24 56.76 57.15 57.94 58.07 58.61 60.93 61.69 61.72 61.83 60.42 59.71 58.50 57.02 55.63 54.00 53.32 51.07 48.77 48.26 48.34 45.88 45.31 42.76 44.01 45.75 46.65
54.24 54.64 55.58 56.27 57.62 58.47 58.29 56.27 56.34 55.61 56.22 59.06 60.94 62.03 61.89 61.40 60.04 58.31 56.74 55.86 54.77 52.62 50.50 48.89 47.00 48.03 47.51 45.54 41.05 40.11 41.49 44.18
54.83 55.49 56.14 57.39 59.68 59.36 58.11 56.28 55.05 56.61 57.82 59.98 60.87 61.69 62.03 62.01 60.76 59.29 56.65 56.33 54.69 53.41 52.99 50.99 49.22 48.09 46.43 46.88 44.49 42.50 39.91 39.59
55.29 55.93 56.99 60.51 60.65 60.27 58.91 56.14 56.30 55.83 59.22 60.39 60.88 61.25 61.44 61.48 61.65 59.46 56.97 56.31 55.67 54.23 52.35 51.39 52.12 49.60 46.88 45.15 43.71 42.52 41.42 39.80
56.84 57.31 58.95 60.90 60.73 60.55 59.18 55.96 55.91 55.32 56.96 59.47 60.04 60.39 61.13 60.75 60.24 58.89 57.54 57.01 56.40 55.48 54.14 53.05 50.46 48.83 47.18 44.99 44.14 42.08 41.77 42.49
56.60 58.08 58.94 60.53 60.97 61.13 59.07 57.62 56.69 56.18 57.53 59.57 59.22 58.21 57.83 58.55 57.57 56.47 55.62 55.62 55.80 55.12 53.78 51.78 47.13 46.79 45.54 45.33 45.71 45.03 44.64 44.34
58.24 59.04 59.16 60.09 60.38 60.39 59.81 58.94 58.48 58.40 58.52 59.67 59.63 59.18 58.98 57.23 56.11 55.24 55.06 55.26 54.57 53.53 50.46 48.15 47.49 46.30 45.96 45.56 45.36 45.97 46.50 44.90

GFSFLT2_sfc_wetblb_078.txt.gz
Wetbulb
65.13 65.14 64.40 64.50 68.38 67.79 67.13 67.72 68.10 68.24 68.64 68.58 68.76 68.17 67.41 67.51 67.52 67.39 66.70 65.81 65.09 64.34 63.74 63.24 62.98 62.14 62.13 62.45 60.96 60.21 55.38 55.74
63.85 63.35 62.25 62.96 67.10 66.42 66.75 67.24 67.44 67.78 68.05 67.65 67.29 66.72 66.78 66.83 66.69 66.50 66.03 65.31 64.72 63.78 62.81 62.12 61.73 60.83 62.25 61.68 61.03 59.85 54.53 55.08
63.37 62.43 62.07 62.39 63.54 65.47 65.46 66.39 66.57 66.42 66.80 66.42 65.71 65.86 65.30 64.59 65.18 65.35 65.40 64.63 63.97 63.22 62.57 60.65 58.56 59.58 60.50 60.59 59.37 56.19 55.86 56.30
62.16 62.09 62.05 61.78 61.38 61.53 62.41 62.78 64.57 64.73 64.40 62.97 63.21 62.83 63.12 63.71 64.13 64.52 64.44 63.91 63.54 62.55 61.61 59.36 56.53 50.98 50.71 56.74 55.02 55.89 55.84 56.30
61.83 61.45 61.41 60.59 59.46 60.02 62.22 61.00 60.94 60.88 61.10 62.07 62.46 62.57 62.26 61.96 61.77 60.96 60.61 61.18 58.47 57.56 54.49 53.87 52.61 49.36 48.28 49.50 51.69 52.50 52.60 54.94
60.93 61.50 60.97 60.17 59.65 58.94 61.32 60.52 60.30 60.10 61.22 61.03 60.23 59.59 58.14 58.05 58.10 57.51 57.08 55.69 54.68 52.92 53.18 50.52 49.55 49.20 48.12 48.33 48.81 48.89 49.35 50.91
57.83 59.36 59.86 60.04 59.60 59.87 60.31 59.97 60.14 60.64 60.69 60.59 59.61 57.60 56.76 55.72 56.05 55.54 54.90 53.52 52.58 53.51 51.39 50.29 48.91 48.68 47.70 47.35 47.62 48.16 48.24 49.35
56.71 57.29 57.89 58.58 58.50 58.51 58.94 59.74 60.07 61.01 60.94 60.61 59.19 57.93 57.29 56.00 55.48 54.95 54.87 53.44 54.10 53.19 51.60 50.33 48.98 47.32 46.33 47.17 47.92 48.83 48.59 49.56
56.69 57.18 57.84 57.05 56.62 57.28 59.04 59.31 60.72 60.62 60.73 60.99 59.52 59.11 57.81 56.35 54.78 55.10 54.84 53.47 54.78 53.01 51.46 50.94 48.56 48.29 46.72 46.59 47.28 49.04 49.28 49.56
57.17 57.93 57.34 56.93 56.47 56.86 56.88 57.72 59.36 59.51 60.07 60.58 60.49 59.61 58.98 57.34 56.02 55.69 55.86 54.63 54.49 52.88 52.02 50.85 48.62 47.53 45.65 45.62 46.03 46.94 48.68 49.37
55.89 56.42 55.77 55.37 54.98 55.28 54.93 55.48 55.92 56.25 58.30 58.78 59.44 59.97 59.42 59.17 57.37 56.74 56.20 55.57 54.44 54.10 52.05 50.75 47.85 45.94 45.79 44.66 45.37 45.79 45.45 49.50
55.07 55.53 55.22 54.83 55.10 55.11 54.51 55.42 55.73 55.28 55.38 56.79 58.00 59.10 59.61 58.67 57.71 56.35 55.77 54.44 53.38 52.25 51.51 50.69 48.61 47.08 48.83 47.32 44.62 45.08 44.63 44.53
53.34 53.47 54.07 54.50 54.14 53.03 53.23 53.14 53.74 54.30 54.43 56.75 58.13 58.72 59.42 58.36 57.20 55.52 55.46 54.35 53.87 52.58 51.09 50.08 48.24 47.35 45.84 45.09 45.13 44.82 44.24 44.11
52.48 52.26 52.75 53.33 53.45 53.23 52.84 53.18 55.14 54.92 55.21 56.44 58.20 59.39 59.80 58.73 57.50 56.19 55.75 54.31 53.12 52.29 51.45 48.56 48.15 47.59 45.31 44.15 42.45 44.83 45.28 45.65
52.92 52.37 52.50 53.68 53.64 53.37 54.59 54.69 54.94 54.55 54.99 55.54 58.21 59.70 60.75 60.05 58.82 57.99 56.29 55.37 53.63 51.96 50.70 49.11 47.86 47.95 47.12 46.36 41.95 41.04 41.50 43.52
53.92 53.80 52.89 53.82 54.86 54.25 54.23 54.33 53.11 55.15 55.65 56.64 59.08 59.91 60.35 60.59 59.88 58.97 56.67 56.32 54.18 52.97 51.49 49.71 49.75 48.65 47.92 47.83 45.05 43.56 40.29 39.08
53.45 53.74 53.87 54.34 55.28 55.32 55.31 54.90 56.01 55.58 55.00 55.90 58.80 59.76 60.30 60.76 60.43 59.35 57.13 55.56 55.08 53.99 52.93 51.93 51.86 50.34 47.92 46.21 45.02 43.88 42.66 41.15
53.20 53.18 53.94 54.74 55.09 56.28 57.10 56.34 56.21 54.80 54.42 55.90 57.61 59.18 60.06 60.52 60.54 59.14 58.64 56.53 55.44 54.33 52.95 52.79 51.98 49.56 47.98 46.02 45.67 44.95 43.83 42.96
53.65 53.43 53.63 55.07 56.57 57.64 58.36 58.23 57.17 55.67 54.91 56.33 57.18 58.32 59.09 59.73 60.14 59.41 58.35 57.02 55.54 55.30 53.84 53.56 51.10 49.36 47.42 46.36 47.14 46.54 46.58 45.24
53.27 53.58 53.89 55.67 56.05 58.96 59.59 59.35 58.39 57.12 56.12 57.36 58.20 58.89 59.44 59.87 60.04 59.78 56.47 55.22 54.66 54.30 51.08 48.59 48.23 48.43 47.55 47.10 46.47 46.52 46.67 45.95

GFSFLT2_sfc_wetblb_081.txt.gz
Wetbulb
62.96 64.03 64.32 64.64 66.57 67.00 67.50 67.66 68.35 68.89 69.02 68.26 67.63 67.34 67.23 67.22 66.93 66.52 65.47 64.89 64.12 63.74 62.93 63.90 64.01 63.04 62.23 60.90 60.02 58.89 53.73 54.97
62.22 63.49 62.62 62.94 63.16 66.10 66.02 66.77 67.40 68.01 68.06 67.23 66.32 66.36 66.62 66.37 65.78 65.39 65.11 64.37 63.58 62.78 62.24 62.82 63.33 62.90 61.40 60.73 60.13 58.27 53.12 53.83
63.33 62.13 61.57 61.55 61.94 62.74 64.96 66.77 66.80 67.09 67.42 66.37 64.82 65.33 64.91 64.04 64.20 64.61 64.72 64.04 63.45 62.00 60.71 62.38 62.62 61.84 61.62 60.49 58.42 54.51 54.44 54.82
61.54 61.48 60.20 60.71 61.32 63.58 63.42 64.57 65.95 66.70 66.62 65.51 64.58 63.90 63.03 63.40 63.69 63.95 63.86 63.44 62.74 61.67 60.02 58.42 56.74 54.93 58.34 58.36 54.84 55.13 55.13 55.03
60.99 60.67 60.54 59.76 58.89 60.03 61.26 61.60 62.43 63.95 64.09 64.02 62.70 62.65 62.92 61.90 61.34 60.78 59.78 59.55 56.03 54.16 53.36 50.22 48.16 50.29 51.28 52.73 53.97 54.19 54.13 55.23
60.77 60.81 60.00 58.76 58.78 58.33 60.16 59.91 61.18 62.51 62.37 62.34 61.77 60.37 58.65 59.03 58.32 56.95 56.60 55.11 53.27 52.09 49.85 48.56 47.40 48.90 50.65 51.46 51.74 51.53 52.38 54.11
60.25 60.17 58.81 58.01 57.83 57.69 59.70 60.41 60.48 61.12 61.61 61.49 60.58 59.15 57.76 56.76 55.58 54.65 55.19 53.18 53.46 50.98 49.17 47.94 47.08 46.60 47.64 49.01 48.71 48.85 50.02 51.64
58.87 59.71 59.15 58.22 57.76 59.08 58.91 60.78 61.05 61.02 60.55 59.88 58.98 58.04 56.65 55.87 53.80 53.18 53.16 52.53 53.85 51.15 49.16 47.60 46.69 46.11 45.73 46.68 47.08 46.49 47.18 48.17
57.19 58.01 59.55 58.68 57.56 58.35 59.49 59.53 60.54 60.53 60.28 59.02 58.10 57.29 55.33 54.61 53.47 52.83 52.27 52.64 53.02 51.21 49.53 47.94 45.80 45.91 45.20 46.59 47.66 47.25 47.05 47.89
57.50 58.07 58.04 57.56 57.14 58.52 58.86 59.72 60.02 60.08 59.74 58.45 57.64 57.62 56.62 55.39 54.08 53.35 53.31 53.37 53.23 51.12 49.93 48.21 46.39 45.33 44.09 43.98 46.57 47.99 46.87 47.82
57.01 56.93 56.25 55.98 55.88 55.55 56.32 57.99 59.29 59.61 59.65 58.54 58.03 58.18 57.74 56.00 54.63 54.35 54.64 53.64 53.10 52.24 50.52 49.54 46.97 45.67 44.88 43.97 43.85 45.41 47.22 49.21
56.48 56.03 55.21 55.47 55.51 54.82 54.70 54.81 55.21 56.90 57.68 59.07 59.22 58.67 58.36 56.95 55.55 54.96 54.74 53.66 52.75 51.74 50.43 49.16 47.69 45.95 47.32 45.29 43.24 43.62 43.54 45.38
55.16 54.60 54.51 54.84 54.24 53.65 54.38 55.64 54.04 54.63 55.61 57.83 58.97 58.68 58.45 57.60 56.53 55.29 54.98 54.29 53.43 52.04 50.00 49.17 47.14 45.81 44.67 43.93 43.74 43.50 43.07 42.27
53.99 54.18 54.19 54.37 54.46 54.23 55.49 55.34 55.21 54.99 54.77 56.25 56.32 57.25 58.12 57.76 56.71 55.45 54.86 53.41 52.15 51.13 50.55 48.58 48.49 46.59 44.40 42.84 41.17 42.86 44.05 44.09
52.73 53.84 53.88 54.41 54.71 53.33 54.22 54.07 54.68 54.08 53.62 52.96 55.37 57.13 58.09 58.31 57.02 55.71 54.90 53.90 52.65 51.70 50.62 49.25 47.54 46.36 46.70 45.79 41.41 40.88 42.96 44.43
52.21 52.27 53.50 54.24 54.14 51.68 51.27 52.03 51.35 50.25 50.83 52.71 54.09 57.14 58.06 58.72 58.07 56.56 55.43 54.86 53.00 52.23 52.54 50.06 50.66 47.21 47.54 47.85 46.23 44.36 42.55 41.98
52.65 52.42 52.08 53.03 53.10 52.59 51.92 51.08 50.76 51.14 52.81 53.18 53.53 55.25 57.36 58.40 58.56 57.58 56.41 55.65 55.10 53.34 51.72 51.00 50.77 50.25 49.13 46.09 45.03 43.90 43.69 42.63
52.63 52.19 52.21 52.37 52.92 52.92 52.42 52.27 52.50 53.08 52.77 53.53 54.20 54.80 56.82 57.80 58.79 58.74 58.33 57.16 55.71 54.36 54.52 51.89 50.55 50.82 49.49 47.26 46.22 45.65 44.90 44.28
52.56 52.20 52.02 52.60 52.67 53.26 53.17 53.19 53.70 53.99 54.32 53.99 54.44 55.24 56.82 58.19 58.24 58.37 58.63 58.45 56.67 54.83 54.61 53.21 51.36 50.61 47.88 46.91 47.97 47.99 47.85 46.01
52.67 52.29 51.94 52.63 52.80 53.10 53.70 54.74 55.53 55.65 55.43 55.47 55.34 55.88 56.71 57.42 58.96 59.56 59.00 58.14 56.61 55.87 53.77 50.93 49.54 49.45 47.79 48.08 48.78 48.19 47.31 46.63

GFSFLT2_sfc_wetblb_084.txt.gz
Wetbulb
63.45 63.93 64.54 66.61 65.73 67.33 67.96 68.57 68.74 68.80 68.35 67.75 67.44 67.30 67.02 67.22 66.83 66.24 65.46 65.58 66.37 65.66 64.26 63.54 63.11 62.46 61.84 60.91 60.12 58.77 54.24 55.33
61.61 62.82 63.04 63.59 63.73 65.49 65.96 67.07 67.60 67.90 67.52 66.95 66.25 66.44 66.36 66.24 65.23 64.98 64.84 64.31 65.43 65.36 63.88 63.23 62.64 61.82 61.13 60.37 59.92 58.06 53.68 54.45
61.61 62.08 61.94 61.85 62.80 64.06 65.86 66.35 66.85 66.51 66.63 66.09 65.12 65.18 64.23 63.07 63.48 63.93 63.74 63.20 63.64 64.41 63.93 63.06 61.80 61.43 60.89 60.22 57.51 54.07 54.38 54.83
61.89 61.11 60.64 60.50 62.10 62.02 64.19 63.45 64.63 65.85 65.72 65.10 64.63 63.94 61.72 62.13 63.42 63.40 62.79 62.10 62.84 63.94 63.81 62.39 60.39 58.00 58.16 57.77 54.20 54.59 54.64 55.05
60.98 59.88 59.92 59.53 60.06 60.54 62.30 63.22 63.79 65.09 64.89 64.03 63.63 62.31 61.75 60.61 60.64 60.05 58.38 58.88 55.72 55.85 54.81 53.90 54.69 54.54 53.39 53.80 54.23 54.16 54.55 55.47
60.55 59.94 59.42 59.09 60.07 62.36 62.25 62.52 63.19 63.84 63.57 62.99 62.35 61.21 59.45 58.56 57.72 56.47 54.29 52.85 51.32 49.80 49.36 49.87 51.20 52.76 53.36 53.21 53.23 53.26 53.99 55.04
59.96 59.45 58.37 57.76 58.65 59.93 60.84 61.90 62.52 62.30 62.99 62.15 61.70 60.15 58.62 57.60 55.77 54.62 53.83 52.64 51.21 48.77 48.02 48.87 50.16 50.60 51.67 52.00 51.98 52.44 53.38 54.45
59.40 58.31 57.90 57.35 57.83 58.65 60.03 60.52 61.16 61.87 61.74 61.02 60.45 59.33 57.58 56.55 54.27 53.81 53.02 53.13 50.83 49.66 48.41 47.81 48.10 48.61 48.88 49.43 49.94 49.91 51.22 52.68
59.08 58.23 57.77 57.38 56.97 57.26 59.12 61.14 61.24 60.79 60.56 59.83 58.78 58.21 57.04 55.84 54.29 53.27 53.01 53.27 50.95 49.28 48.07 47.35 46.48 46.75 46.76 46.98 47.69 47.41 48.42 49.87
58.18 59.01 58.31 57.50 57.77 57.45 58.40 59.75 60.54 60.61 59.70 59.23 58.04 57.26 56.23 54.84 54.26 53.28 52.98 53.43 51.47 49.62 48.19 46.08 45.51 45.02 44.69 46.41 47.79 47.87 47.73 48.26
56.99 57.47 57.31 56.57 57.27 58.00 58.99 58.97 59.50 59.42 58.83 58.11 57.62 57.26 56.17 55.24 54.50 54.07 53.46 53.80 52.14 50.82 49.33 48.09 46.15 44.98 45.33 45.06 46.27 47.61 47.61 48.72
56.31 55.85 55.89 55.99 55.42 55.85 57.13 56.87 57.24 59.36 58.14 57.87 57.52 57.24 56.31 55.35 54.49 54.37 53.85 53.36 52.13 50.83 49.82 49.14 47.55 46.47 46.74 45.30 44.14 44.90 45.29 46.41
55.36 54.88 55.17 55.64 55.18 55.26 55.88 56.08 55.69 56.86 57.48 57.84 57.72 57.65 57.00 55.61 54.98 54.92 54.45 52.76 52.51 51.21 50.11 49.03 47.51 45.99 45.08 44.51 44.66 44.24 43.97 43.25
55.04 54.74 54.86 55.93 55.81 55.81 56.78 56.16 54.68 55.23 56.05 57.61 58.24 57.93 57.52 56.93 56.18 54.71 54.27 53.34 52.20 51.41 50.52 49.09 48.77 46.22 44.31 43.16 42.11 43.75 44.62 44.60
54.39 54.21 54.56 55.39 56.03 54.13 53.44 53.96 54.56 54.33 54.33 54.71 56.42 57.71 58.27 58.19 56.85 55.87 54.58 54.14 52.98 51.97 50.38 49.43 48.05 46.36 46.19 45.08 41.52 40.61 42.91 44.57
54.27 54.24 54.02 54.73 55.22 54.02 52.34 54.10 53.59 54.49 53.01 54.26 54.93 56.84 57.22 57.50 57.20 56.09 54.72 54.63 52.71 52.79 52.04 49.87 49.27 47.01 46.17 46.74 46.40 46.65 44.09 42.67
52.99 53.53 53.18 53.55 54.10 53.81 51.30 53.49 54.35 49.65 50.88 51.17 52.07 54.35 56.05 57.28 57.01 55.89 54.94 54.52 54.23 52.57 51.30 49.62 49.72 48.98 47.48 45.99 45.84 44.11 44.50 43.91
53.07 51.72 52.08 53.14 53.16 52.12 50.90 50.19 50.00 50.06 50.16 50.91 51.68 52.53 54.26 55.56 56.93 56.99 56.79 55.84 54.80 53.83 52.97 51.86 51.92 51.37 49.48 48.04 47.02 45.36 45.59 44.08
52.43 52.01 51.39 52.15 52.37 52.37 51.81 51.49 51.04 51.34 51.80 51.62 51.18 51.44 52.47 54.72 56.25 56.65 56.93 57.05 56.89 56.11 54.24 53.15 51.70 51.00 49.74 49.40 49.93 48.73 49.13 47.73
51.66 51.92 51.82 52.08 51.79 52.06 52.54 52.28 52.33 52.58 52.62 53.23 52.55 52.95 53.34 54.65 56.39 58.09 58.15 58.43 58.09 56.15 55.60 54.95 54.23 52.67 52.00 49.84 49.56 49.68 48.51 46.63

GFSFLT2_sfc_wetblb_087.txt.gz
Wetbulb
66.26 65.85 66.23 64.74 66.30 67.22 67.73 68.52 68.58 68.54 68.17 67.78 68.05 67.76 67.62 67.84 67.33 66.69 67.06 67.12 66.63 65.54 64.45 63.69 63.29 62.55 61.97 61.24 60.33 61.48 61.70 61.74
65.35 65.94 66.63 65.76 64.72 65.14 65.73 67.21 67.65 67.62 67.36 66.96 66.45 66.59 66.83 66.39 65.62 65.96 67.05 67.17 66.04 64.52 63.80 63.32 62.88 62.11 61.26 60.81 60.44 60.75 61.55 61.70
63.55 64.20 65.25 66.05 64.57 65.53 66.27 66.96 66.79 66.80 66.98 66.09 65.51 67.65 66.84 65.33 64.42 65.00 66.46 65.87 64.73 64.21 63.43 62.54 61.85 61.24 60.98 60.44 59.93 60.44 61.20 61.35
63.04 62.66 63.09 62.84 65.01 64.67 65.79 66.40 66.90 66.77 66.51 67.19 66.90 66.95 65.75 64.36 63.90 63.53 64.86 65.19 64.33 63.72 62.96 62.00 60.71 60.31 59.96 59.23 59.57 60.41 60.76 61.07
62.50 61.91 62.07 61.21 61.81 62.71 65.04 64.77 65.51 65.82 65.24 66.49 65.60 64.72 64.04 63.43 63.42 62.10 63.90 64.38 63.55 62.96 61.63 60.86 60.55 59.87 58.88 59.16 59.82 59.98 60.42 60.95
61.65 60.76 60.54 60.67 60.77 61.06 62.99 63.49 64.08 64.36 64.23 64.54 64.64 62.94 62.35 61.42 61.14 60.26 60.77 62.25 63.43 62.58 60.57 60.82 60.05 59.38 58.93 58.98 59.35 59.36 59.80 60.25
59.98 59.46 59.79 59.29 59.64 61.41 62.18 62.40 63.49 63.66 63.63 64.42 63.78 61.74 60.88 60.72 60.02 58.72 58.47 58.33 59.25 59.32 58.93 59.39 58.87 58.64 58.66 58.70 58.73 59.13 59.64 59.62
59.11 58.30 58.83 58.17 59.74 61.65 62.17 62.44 63.10 62.58 63.21 63.97 62.53 61.56 60.34 59.05 58.52 57.60 56.86 56.90 57.81 58.20 58.47 58.64 58.43 58.33 57.98 58.31 58.29 59.02 59.24 59.46
58.15 57.92 58.12 57.92 58.32 60.64 61.69 62.22 62.40 61.81 61.91 62.68 61.20 60.03 59.15 58.04 57.54 57.44 57.29 56.15 55.57 54.35 55.84 57.15 56.95 56.96 56.44 57.02 57.39 58.20 58.75 58.99
58.44 58.30 58.06 58.49 58.24 59.39 60.42 60.91 60.94 61.34 61.08 61.17 60.25 59.84 59.02 58.15 56.96 57.41 57.78 56.09 54.72 54.38 53.75 54.65 54.65 54.67 53.15 53.86 54.46 55.46 57.24 58.46
57.83 57.99 57.54 58.27 58.33 59.84 60.08 60.12 60.80 60.52 60.25 59.94 59.53 58.69 58.38 57.76 56.92 57.21 58.06 56.62 55.84 54.79 53.24 53.36 52.36 52.24 52.05 53.26 53.77 53.26 53.17 53.18
57.33 57.58 57.40 57.23 57.69 58.63 58.97 59.15 59.71 59.64 59.12 59.61 59.73 59.20 58.94 58.68 58.18 57.10 57.31 56.82 55.88 54.92 54.04 54.07 52.89 52.31 49.92 50.48 52.34 53.44 54.04 53.27
55.91 56.13 56.69 56.77 57.75 57.31 57.07 56.63 58.25 58.04 58.65 58.64 59.30 59.53 58.87 59.21 58.04 57.38 57.62 56.96 56.83 56.43 54.77 54.14 52.82 52.48 51.08 51.02 51.03 51.72 52.31 52.99
55.85 55.63 55.95 56.59 57.69 57.50 57.23 56.64 57.37 57.85 58.30 58.38 58.26 58.27 58.60 59.20 58.86 58.03 57.45 57.13 57.53 56.65 56.42 55.09 55.41 53.09 52.60 52.28 50.17 50.91 51.25 51.79
55.66 55.62 56.19 56.54 56.82 56.38 55.61 55.66 55.93 56.16 56.89 57.25 58.31 58.97 59.61 59.06 59.10 58.77 58.78 58.39 57.24 57.86 57.55 56.83 55.56 53.70 53.52 54.51 49.30 49.60 51.31 52.25
56.03 55.79 55.87 56.73 56.83 56.36 55.29 54.70 55.18 56.31 56.33 57.26 57.81 58.97 59.74 59.65 59.68 59.69 59.60 59.11 59.01 58.98 58.16 57.78 57.25 54.64 52.30 52.28 53.50 54.02 51.97 51.12
56.52 55.35 55.39 56.34 56.90 57.16 56.49 56.29 57.34 56.78 56.57 56.86 57.77 59.91 60.66 60.36 60.73 60.95 60.54 60.42 60.09 59.60 58.16 57.32 57.11 57.63 55.64 53.80 52.75 52.20 52.24 50.83
54.89 55.12 55.49 55.75 56.74 57.39 55.78 57.55 57.15 54.75 56.75 56.17 56.55 57.68 58.85 59.96 60.82 61.15 61.15 60.38 60.05 59.72 59.41 58.87 58.25 57.36 57.27 56.29 54.27 53.21 51.22 50.13
54.25 54.17 55.31 55.82 55.57 56.94 56.21 56.23 56.25 55.93 55.55 56.11 55.69 56.02 56.65 57.73 59.30 59.86 60.18 60.55 60.44 60.61 60.16 59.34 58.66 57.97 57.65 56.89 56.60 56.59 56.73 52.21
53.45 53.67 54.07 55.63 55.80 55.96 56.42 56.72 56.30 55.90 56.52 56.96 55.81 55.99 56.82 57.96 58.57 59.16 59.91 60.40 60.50 60.59 60.87 60.62 59.82 58.92 58.01 56.94 56.02 53.98 53.35 52.62

GFSFLT2_sfc_wetblb_090.txt.gz
Wetbulb
68.30 69.11 68.93 65.50 63.49 62.89 63.97 69.00 68.99 69.00 68.59 68.65 68.49 68.19 67.87 68.38 68.17 68.12 68.02 66.93 65.67 64.90 64.25 63.80 63.27 62.75 62.32 62.11 62.14 63.76 63.60 63.42
67.44 68.11 66.98 67.86 66.80 65.48 65.90 67.53 67.35 67.74 67.77 67.51 66.99 67.13 67.40 66.95 66.79 67.44 67.07 66.11 65.42 64.81 63.86 63.37 62.78 62.27 61.68 61.12 61.21 62.31 63.17 62.96
65.21 66.80 66.18 65.59 66.11 67.02 65.89 66.51 66.94 66.83 67.36 66.69 65.89 68.72 67.88 67.20 66.33 66.59 66.53 65.53 64.79 64.20 63.64 62.75 62.09 61.57 61.33 60.96 61.04 62.87 62.77 62.70
65.14 65.79 66.87 65.52 66.06 66.64 66.46 66.16 66.99 68.14 68.63 68.39 67.88 67.89 67.80 66.78 66.23 66.32 65.76 64.49 64.19 63.60 63.05 62.03 61.25 61.16 61.32 60.44 62.09 62.62 62.70 62.52
64.59 63.88 65.28 64.19 66.18 66.64 67.22 65.21 65.67 66.15 66.92 67.71 67.40 67.26 67.28 65.67 66.46 66.95 66.21 63.89 63.18 62.70 61.90 62.11 62.41 61.11 60.61 61.32 61.71 62.10 62.35 62.42
63.67 63.19 63.77 63.54 62.82 63.84 64.68 64.28 64.50 64.06 64.35 64.97 67.73 65.42 65.47 64.98 65.33 65.99 65.31 64.64 63.48 63.20 62.34 63.50 62.69 61.57 61.02 61.24 61.35 61.44 61.93 62.39
62.50 61.71 62.10 62.27 60.66 61.57 62.64 63.73 64.53 64.09 63.69 63.91 64.43 65.04 64.54 63.53 64.46 65.13 65.13 65.14 64.43 63.49 63.53 63.02 61.90 60.86 60.80 60.74 60.74 61.13 61.46 61.78
61.12 59.95 60.46 61.18 60.27 61.06 61.60 62.94 64.21 63.55 63.51 63.27 63.16 64.28 64.28 62.84 62.90 62.88 64.13 65.15 64.99 63.89 63.12 61.98 60.91 60.54 60.21 60.39 60.50 60.87 60.96 61.83
59.45 59.05 59.63 59.11 60.17 60.70 62.57 61.78 63.69 63.00 62.23 62.03 61.71 64.21 63.16 62.39 61.39 61.45 62.02 63.00 63.26 62.77 62.56 61.58 60.48 60.15 59.57 59.98 60.11 60.71 60.55 60.97
58.80 59.03 58.36 59.11 59.67 60.32 61.78 63.21 62.78 62.56 61.49 60.68 60.57 61.73 62.11 61.13 59.62 59.20 60.04 60.87 60.43 60.71 60.09 59.57 59.45 59.08 58.93 58.93 59.10 59.92 60.53 60.50
58.58 58.41 58.53 58.89 59.80 60.60 60.99 60.91 60.89 61.22 61.30 59.99 60.06 60.85 60.78 60.23 59.45 59.01 58.44 57.83 57.97 58.81 58.63 59.34 57.94 57.74 57.24 57.51 57.87 58.14 59.60 59.33
58.65 59.00 58.32 58.95 59.91 59.29 59.96 59.69 59.96 60.36 60.55 60.01 60.89 60.47 60.35 59.43 59.11 59.53 58.75 57.71 58.23 58.41 57.34 58.40 57.73 56.77 54.46 54.87 56.73 57.00 57.27 56.73
58.54 58.96 58.43 58.44 58.12 57.51 57.66 57.65 58.58 58.85 59.59 60.17 60.61 60.06 59.87 60.38 59.18 59.39 59.15 58.88 59.50 59.40 58.44 56.88 55.32 56.33 53.11 54.36 55.18 56.38 56.78 57.12
57.87 59.33 58.59 59.22 58.82 58.19 58.41 58.33 58.54 58.49 59.04 59.82 61.16 60.80 60.67 61.46 61.11 59.84 60.55 59.35 59.61 58.68 57.62 56.72 57.44 56.56 56.10 57.23 54.61 55.36 55.93 56.41
56.93 57.58 58.20 59.17 59.97 58.21 57.28 57.48 57.30 56.96 57.69 58.49 59.81 61.69 61.69 61.71 61.53 61.14 60.75 60.75 59.39 59.35 59.84 59.99 58.24 58.78 58.61 57.85 55.49 53.94 58.20 58.23
59.37 57.61 57.61 58.79 58.63 58.04 57.06 56.36 56.33 57.22 56.90 57.99 59.15 61.46 61.67 61.31 61.68 61.63 61.28 60.67 60.39 60.88 60.94 61.07 60.64 59.16 58.81 57.88 59.06 58.98 55.61 54.38
59.18 58.37 57.61 57.78 58.94 58.09 56.43 55.66 59.34 58.56 57.77 57.08 57.90 59.09 59.56 60.41 61.31 61.25 61.29 61.38 61.48 61.85 61.09 61.04 61.26 60.34 59.59 59.03 58.05 58.28 58.54 56.20
59.47 59.13 57.44 57.50 57.98 57.95 56.40 55.47 56.31 56.74 56.47 56.78 57.19 57.00 58.24 59.32 61.32 61.87 61.93 61.44 61.24 61.79 62.52 61.99 61.34 61.20 61.06 60.62 59.33 57.66 57.21 56.40
58.49 58.18 57.43 57.62 57.87 57.98 58.45 58.61 58.35 59.06 58.10 57.52 57.47 58.46 58.66 59.36 61.37 61.43 61.77 62.55 63.31 63.63 63.11 62.74 62.52 61.84 61.61 61.34 61.81 60.42 60.70 59.25
56.53 56.69 56.88 58.49 58.97 58.49 60.01 60.82 59.93 59.90 60.53 60.36 59.72 60.08 60.99 61.56 61.85 62.08 62.49 62.96 63.21 63.06 62.61 62.28 62.49 62.11 61.80 61.68 61.41 61.70 60.53 59.89

GFSFLT2_sfc_wetblb_093.txt.gz
Wetbulb
69.12 70.21 69.95 67.66 65.88 64.89 64.06 64.89 64.66 67.54 69.22 69.08 68.92 68.14 67.84 68.23 68.47 68.07 66.90 66.26 65.83 65.28 64.97 64.53 64.07 63.40 62.96 62.32 61.82 63.48 63.84 63.65
68.88 68.57 70.09 70.04 68.84 63.22 64.15 64.29 63.86 66.66 68.17 68.12 67.27 67.12 67.47 67.91 67.48 66.99 66.19 65.66 65.16 64.61 64.08 63.66 63.33 62.59 61.98 61.51 61.51 62.91 63.20 62.72
67.68 67.72 69.19 68.53 67.16 64.43 64.39 63.59 63.07 65.18 67.82 67.23 66.43 68.93 68.86 68.12 67.12 66.04 65.60 65.17 64.66 64.03 63.77 62.96 62.31 61.85 61.47 61.42 61.80 62.86 62.95 62.27
65.69 66.84 67.99 67.64 65.05 65.72 64.67 62.71 61.91 62.94 69.65 68.55 69.60 69.55 68.80 67.88 66.50 65.45 65.08 64.58 64.08 63.71 62.75 61.89 61.30 60.74 61.17 60.78 62.57 62.99 62.55 61.90
65.35 65.88 66.87 66.57 65.54 65.72 64.62 63.40 64.22 66.03 69.34 68.41 69.16 69.34 68.35 67.98 67.16 65.75 64.34 63.29 62.03 61.97 60.90 60.86 60.90 60.23 60.93 62.35 62.69 63.03 62.43 61.81
65.80 65.06 65.40 66.21 66.01 65.94 64.96 64.55 62.21 65.93 67.08 68.07 67.86 68.03 67.47 67.06 66.68 65.36 63.99 62.87 62.12 61.26 61.25 63.14 62.03 61.19 61.72 61.66 62.04 62.03 62.19 61.75
64.51 64.67 64.67 64.82 64.87 64.35 65.25 64.06 64.29 63.81 64.51 66.26 67.34 66.67 66.55 65.83 66.36 65.91 64.37 64.16 63.18 62.44 62.74 62.57 61.83 61.34 61.49 61.34 61.28 61.93 62.55 61.64
62.96 62.83 63.22 62.80 64.60 63.96 62.84 65.29 64.23 63.58 63.42 64.36 64.80 64.81 64.61 64.94 66.15 65.85 64.94 64.51 64.18 63.37 63.41 62.50 61.44 60.90 60.59 61.15 61.13 61.41 61.96 61.99
61.50 61.11 61.10 61.06 62.67 62.72 64.08 64.63 63.85 63.36 63.15 64.41 64.22 62.94 64.09 64.75 65.64 65.68 65.40 65.75 66.35 64.38 63.45 62.17 60.44 60.23 60.16 60.50 60.66 61.09 61.52 62.02
60.63 60.45 59.73 60.77 61.37 62.65 62.77 63.17 64.01 63.19 62.95 63.23 62.90 63.11 64.43 65.03 64.38 64.50 65.63 65.71 64.02 62.91 62.11 60.07 59.77 59.63 59.58 59.78 60.26 60.79 60.91 61.37
60.11 59.25 60.33 61.20 61.41 62.08 62.36 62.71 63.04 62.52 62.14 61.55 61.20 61.60 62.76 63.97 63.18 63.42 64.13 63.11 63.10 62.42 60.96 60.45 59.84 58.88 59.01 59.39 59.79 60.01 60.55 60.19
59.37 59.81 60.66 60.44 60.12 60.13 60.13 61.50 61.57 61.12 60.45 59.77 59.54 59.99 61.20 63.00 61.17 60.47 60.64 59.16 59.63 59.85 59.65 61.17 59.40 58.91 57.14 57.46 58.24 58.63 59.62 59.93
60.14 58.52 59.28 59.54 59.51 58.16 57.74 57.63 59.11 58.83 59.02 59.09 58.83 58.98 59.66 61.11 60.25 59.43 59.32 59.10 58.29 59.04 59.24 59.20 58.95 58.78 55.94 55.40 56.79 58.08 57.99 57.49
59.50 59.82 59.47 59.80 59.62 60.09 58.46 57.75 58.48 58.45 58.84 58.75 58.91 59.03 59.36 59.34 59.21 59.16 59.29 59.29 58.92 59.57 59.49 58.18 58.15 57.91 55.09 56.24 54.12 54.92 56.43 57.57
59.22 59.43 59.67 60.02 59.58 59.84 59.71 59.15 58.27 57.45 57.86 57.84 58.13 59.27 59.89 59.99 60.25 60.02 59.79 59.40 60.13 61.18 60.54 59.54 57.39 57.40 58.94 57.97 55.18 53.78 56.03 58.04
59.11 59.51 59.04 59.95 61.43 59.84 57.82 57.15 56.08 57.55 57.38 58.40 59.00 59.81 59.73 59.62 60.78 60.54 60.75 61.93 61.60 59.28 60.43 60.30 61.39 58.64 59.50 58.92 60.73 59.00 55.61 54.59
60.37 58.90 58.54 59.80 59.78 60.15 59.15 57.47 56.51 57.48 57.57 57.81 59.05 57.40 58.19 58.93 61.05 62.21 61.03 61.62 62.02 61.41 61.86 62.23 62.00 60.69 60.10 59.90 58.82 58.49 59.17 56.04
60.78 59.03 58.49 58.98 59.83 59.75 59.21 57.00 56.52 56.75 56.31 55.92 57.17 57.54 56.84 58.41 61.35 61.95 63.02 62.37 62.02 62.68 62.90 62.54 61.75 61.77 61.89 60.84 59.53 57.54 56.76 57.09
59.34 58.86 57.83 58.42 59.28 59.55 59.54 58.69 58.58 57.37 56.75 55.76 55.95 56.37 57.10 58.05 59.50 60.47 61.88 62.68 62.67 62.68 62.57 62.91 62.80 61.95 62.32 61.51 61.77 60.27 60.89 60.13
59.85 58.41 57.90 58.85 58.27 59.03 59.67 58.80 57.28 57.22 59.18 58.67 56.86 56.54 56.41 57.49 58.12 58.60 61.66 62.58 62.66 63.13 63.09 63.90 63.60 62.68 62.60 62.78 61.95 61.65 61.15 59.88

GFSFLT2_sfc_wetblb_096.txt.gz
Wetbulb
70.50 70.85 69.19 67.45 67.49 65.58 65.24 65.64 64.55 64.37 63.19 65.47 69.04 68.45 68.03 68.28 68.08 68.03 67.53 67.03 66.77 66.20 65.61 65.08 64.80 63.87 62.54 61.90 61.96 63.25 60.95 60.36
68.70 68.94 69.44 69.17 66.62 64.44 63.83 64.82 63.81 62.99 63.39 63.86 67.00 66.70 67.24 67.53 66.94 66.82 66.72 66.14 65.46 64.94 64.91 64.40 63.67 62.65 61.72 61.89 61.60 63.34 60.26 59.90
67.80 67.34 68.58 69.08 68.26 65.13 64.29 65.15 63.08 61.62 63.38 61.92 65.93 66.87 66.84 67.12 65.90 65.72 65.82 65.27 64.86 64.31 63.76 63.08 62.25 61.54 61.92 61.49 61.75 59.33 59.96 59.62
65.36 66.58 66.71 67.31 66.72 65.64 63.82 63.66 63.94 62.72 62.56 61.51 66.76 66.51 66.98 66.65 65.01 64.95 65.04 64.55 64.05 63.57 62.84 61.84 60.71 58.11 58.41 60.07 58.65 60.33 59.46 59.10
65.17 65.32 66.34 66.44 65.19 65.08 63.23 62.98 62.51 61.88 61.58 60.17 66.44 66.84 66.31 65.53 63.76 63.41 62.80 63.24 61.27 60.73 59.73 57.97 56.87 56.92 57.89 58.56 59.68 59.91 59.23 58.96
65.31 65.90 65.49 65.48 65.79 64.33 63.45 62.19 60.73 62.68 62.79 64.00 66.11 65.79 65.42 64.42 62.85 61.83 60.06 59.85 58.41 57.24 57.34 57.72 56.82 57.26 58.56 58.99 58.94 59.86 59.16 58.97
65.11 64.54 64.76 64.55 64.11 64.60 64.04 62.80 62.26 62.93 63.96 64.86 66.22 65.10 64.84 64.44 62.80 60.21 58.96 59.26 58.13 57.09 58.41 58.36 57.99 57.24 58.54 58.39 58.28 59.66 58.84 58.90
64.02 63.84 64.21 63.71 63.84 63.75 63.96 63.36 62.22 63.55 64.77 65.51 65.45 64.98 64.27 63.89 62.27 60.14 60.14 59.74 59.47 58.87 59.55 58.61 57.46 57.88 57.92 58.22 58.00 58.83 58.74 58.67
62.19 61.95 61.82 62.15 62.93 63.21 63.00 63.83 63.31 62.54 62.81 63.42 64.74 64.62 63.88 63.20 62.86 60.96 61.82 60.74 59.84 60.05 59.84 58.84 57.09 57.39 57.35 57.69 57.94 57.79 58.93 58.48
61.26 60.89 60.64 60.76 62.82 62.31 61.92 63.84 62.71 61.99 62.46 62.95 62.56 62.53 63.51 63.03 62.58 61.79 62.02 61.72 60.60 61.01 59.05 57.10 56.09 55.87 55.49 55.90 56.55 56.98 57.97 58.64
60.22 60.22 60.08 60.72 61.69 62.44 62.38 62.43 63.10 62.24 62.16 62.71 62.24 61.70 62.12 62.61 62.52 62.07 62.51 62.26 61.44 60.19 58.04 56.73 55.61 55.46 55.96 56.01 56.61 56.28 56.97 57.95
60.15 59.38 60.62 60.71 60.75 60.76 61.88 62.32 62.44 62.86 61.49 61.96 61.76 60.96 61.32 61.48 60.72 61.04 61.18 60.53 59.10 58.35 56.93 57.07 55.87 55.73 56.48 55.93 54.84 55.91 56.90 56.08
59.26 59.27 59.54 59.52 58.45 57.91 59.44 59.66 61.04 60.94 61.51 61.47 61.02 60.00 59.35 59.07 58.35 58.63 57.98 57.23 56.98 57.93 56.51 54.86 54.68 54.80 53.46 53.15 52.50 54.65 54.91 55.17
59.07 58.58 59.21 59.39 58.92 58.54 58.49 58.96 59.19 58.92 58.92 58.87 59.16 58.32 58.76 57.93 57.10 57.10 57.52 57.21 56.59 56.71 55.79 55.06 54.46 54.68 51.69 50.82 49.30 51.45 52.93 54.09
58.92 59.42 59.52 59.08 59.34 58.41 57.92 58.04 57.89 57.25 57.03 57.10 57.77 58.04 58.20 58.12 57.89 57.15 57.85 57.42 56.90 57.40 56.84 55.72 53.98 54.65 54.27 54.10 51.66 50.06 51.05 52.95
58.95 59.71 59.85 58.93 59.63 58.28 57.07 55.99 54.98 55.92 56.30 56.58 57.36 57.52 58.14 58.54 59.10 58.89 58.17 58.53 57.98 57.85 58.35 57.09 56.77 53.72 53.97 55.49 56.02 55.66 51.58 49.96
58.90 59.35 59.57 59.46 59.20 58.93 57.53 56.43 56.33 55.79 55.03 55.01 56.50 57.24 57.51 58.29 59.00 58.91 58.74 58.64 58.62 58.69 58.08 57.60 57.78 57.76 56.67 55.63 54.80 54.93 54.97 52.90
59.31 58.44 58.72 59.48 59.81 58.68 57.90 56.73 55.83 54.96 54.48 53.83 54.91 56.34 57.19 57.68 58.25 58.85 58.91 58.43 58.75 58.85 58.75 58.59 58.56 58.46 57.85 57.54 55.97 54.58 53.80 52.77
58.54 58.39 57.31 58.90 59.08 59.39 58.65 57.41 56.80 55.72 55.39 54.99 55.29 55.13 55.53 56.01 55.84 56.07 57.92 58.72 58.69 58.87 58.95 58.94 58.81 58.06 57.90 57.58 58.00 56.89 56.72 55.49
57.89 58.25 57.38 58.11 59.14 58.90 58.87 57.97 57.23 57.06 56.71 56.32 56.28 55.42 54.99 55.92 56.43 56.81 58.57 58.76 59.42 59.97 59.43 59.36 59.29 59.21 58.21 58.34 57.50 57.80 57.83 56.91

GFSFLT2_sfc_wetblb_099.txt.gz
Wetbulb
67.23 66.97 67.67 67.86 67.93 67.57 66.52 66.34 67.60 67.14 67.21 64.64 65.24 67.37 67.90 68.94 68.82 68.81 68.40 67.87 67.31 66.76 66.17 65.73 65.26 64.28 62.89 61.65 62.57 62.26 59.68 59.74
65.80 66.27 66.38 65.75 65.81 65.67 65.78 65.00 65.72 65.92 65.63 65.05 64.08 62.76 66.70 67.54 67.55 67.76 67.57 67.28 66.68 65.78 65.27 64.73 64.01 62.62 61.64 62.02 62.51 61.88 59.30 59.10
63.96 64.92 66.31 66.21 63.84 63.69 64.41 65.52 64.74 64.65 64.43 64.10 62.40 61.35 66.16 66.31 66.30 66.48 66.71 66.11 65.84 65.27 64.50 63.57 62.47 61.68 61.50 61.59 60.66 58.87 58.86 59.02
63.35 63.92 64.85 66.16 65.65 63.47 61.88 62.70 62.08 60.93 62.37 61.44 60.42 62.65 65.03 65.21 65.38 65.45 65.53 65.18 64.72 64.23 63.53 62.65 59.96 56.52 56.96 59.24 58.56 58.50 58.54 58.41
62.16 62.92 64.60 64.34 63.54 63.00 62.18 62.54 62.99 61.06 61.36 61.13 60.35 64.11 65.38 64.08 63.61 63.39 62.77 63.48 61.66 61.10 60.33 56.58 56.12 55.89 55.53 56.10 57.69 58.10 58.26 58.52
62.18 62.27 63.35 63.11 62.81 61.95 61.77 61.05 62.59 61.94 61.51 60.93 61.44 64.01 64.04 62.94 61.88 61.06 60.89 59.81 58.05 56.64 54.88 54.48 54.76 56.16 56.53 57.11 57.40 57.57 57.77 58.07
61.61 61.74 61.39 62.09 62.23 62.50 62.23 61.33 60.84 61.82 60.92 60.75 60.58 64.44 63.21 61.85 60.26 59.53 58.41 57.65 56.05 54.28 54.54 54.67 53.85 54.78 56.33 56.43 57.26 57.24 57.68 58.30
61.04 61.25 60.93 61.13 61.09 61.83 62.48 61.83 60.66 60.99 61.95 61.97 61.58 64.76 63.00 60.52 58.77 56.98 56.84 56.78 54.88 54.27 54.89 54.46 53.67 55.18 54.90 56.53 57.36 57.36 57.30 57.63
59.38 60.30 61.03 59.60 62.07 61.01 62.55 61.85 62.20 63.02 63.02 62.31 64.49 64.81 63.16 59.67 57.05 57.11 56.85 56.23 55.58 56.07 55.77 55.11 54.40 55.39 55.13 55.15 56.97 56.71 57.09 57.25
58.90 60.78 59.49 60.11 61.71 60.35 61.67 61.85 61.71 62.54 63.75 63.15 64.55 64.28 62.63 59.64 57.18 58.08 57.90 57.67 56.82 58.00 56.67 54.13 53.53 53.92 53.02 53.85 54.50 56.51 56.73 56.79
58.55 59.50 58.99 59.76 60.65 59.80 59.90 62.30 61.15 61.93 63.11 62.62 63.33 62.54 62.45 60.58 58.39 59.40 58.56 58.70 57.61 58.48 55.47 54.86 52.68 52.70 53.32 52.74 53.31 54.74 56.42 57.16
59.17 58.26 58.34 60.10 59.38 59.38 59.13 60.28 61.28 60.83 62.06 61.89 61.50 61.31 61.96 61.23 60.09 59.88 59.59 58.46 58.17 57.32 54.78 53.80 53.56 53.48 55.70 53.94 53.09 54.51 54.49 55.10
57.81 58.35 59.18 58.31 58.35 58.25 58.39 59.57 60.96 60.57 60.88 61.55 61.10 60.33 59.19 59.75 60.01 59.14 58.36 58.76 58.36 57.10 53.95 53.84 52.56 52.93 51.79 50.46 51.57 53.24 54.17 54.07
58.42 58.87 58.31 58.90 58.20 58.28 59.19 60.25 61.02 60.56 60.97 61.10 60.67 59.11 57.86 58.27 58.55 57.09 57.62 56.73 56.19 54.38 54.22 52.70 52.16 51.70 50.81 50.29 47.67 49.33 51.96 52.30
57.87 58.17 57.81 58.96 58.35 58.48 58.35 58.69 58.91 58.89 59.87 59.65 58.62 58.67 57.56 57.12 57.68 57.61 56.77 56.21 55.03 54.66 54.45 53.28 51.71 52.26 52.37 50.06 49.33 47.59 48.74 51.24
58.70 58.53 58.46 58.72 57.10 57.55 57.06 56.44 55.83 57.44 58.18 59.16 57.82 58.07 57.59 57.25 57.85 57.45 56.90 56.73 56.25 55.28 55.45 54.26 53.60 51.47 52.09 53.57 53.99 54.91 51.18 48.79
58.24 58.86 58.25 58.62 57.96 56.97 57.03 56.30 56.60 57.18 56.66 56.58 56.82 57.31 58.04 58.14 58.41 57.67 57.07 57.08 57.12 56.95 56.46 56.47 55.80 53.51 53.14 52.84 51.87 52.36 52.69 50.88
58.21 58.34 57.67 58.27 58.28 57.77 57.03 55.52 55.05 54.33 55.27 55.29 55.43 56.26 56.87 57.28 57.73 57.69 57.50 57.36 57.64 58.18 57.72 57.18 56.67 56.35 56.16 55.41 54.72 52.33 51.54 51.39
57.72 57.49 57.68 57.89 58.19 57.07 56.31 55.03 54.85 54.03 54.38 54.80 54.50 54.54 55.75 56.22 56.13 56.79 57.09 57.86 58.22 58.42 57.98 57.39 56.79 55.51 56.20 56.30 55.99 55.44 55.21 54.17
57.17 56.90 57.31 58.06 58.20 57.45 57.10 55.93 54.79 54.70 54.96 54.59 54.29 54.53 55.20 56.40 56.07 56.63 57.50 58.28 57.86 57.97 57.66 57.63 57.56 57.15 56.20 55.81 55.97 56.20 55.79 55.05

GFSFLT2_sfc_wetblb_102.txt.gz
Wetbulb
66.50 67.22 68.32 68.45 68.40 69.54 68.32 68.24 68.74 68.04 67.89 66.62 66.26 66.53 66.10 67.44 67.77 68.49 68.37 67.85 67.89 67.45 66.60 65.85 65.31 64.44 63.47 63.37 62.48 62.21 58.85 59.07
65.17 65.65 66.06 65.90 66.27 66.95 65.88 66.24 66.88 65.95 66.75 65.93 64.70 64.88 65.63 66.55 67.03 67.91 67.88 67.53 67.16 66.58 65.85 65.04 64.06 63.26 63.07 62.56 62.07 61.93 58.46 58.03
64.37 64.93 64.80 65.24 64.51 66.07 65.65 66.62 66.48 66.01 65.86 64.82 63.27 62.79 65.12 65.35 66.05 66.73 67.25 66.65 66.26 65.63 65.14 63.93 62.79 62.55 62.67 62.22 61.25 58.85 58.44 57.99
62.57 63.22 63.88 64.73 64.79 63.48 64.29 64.52 65.16 64.66 63.91 63.74 62.86 62.32 62.02 62.64 65.28 66.04 66.42 65.99 65.57 65.06 64.35 63.01 60.34 58.24 60.18 60.70 58.44 58.20 58.20 58.00
61.72 62.29 63.86 64.55 63.65 62.52 62.11 63.12 62.18 61.21 60.90 60.65 61.37 61.31 63.13 63.19 64.86 64.80 64.16 64.57 62.62 62.15 61.73 58.10 56.40 55.88 56.45 57.16 57.39 57.43 57.56 58.44
61.04 61.57 62.89 62.64 62.71 62.26 61.93 62.09 61.83 59.79 60.84 59.42 59.73 61.28 61.32 63.65 63.85 62.49 61.91 60.95 58.94 57.90 56.70 55.17 55.25 55.61 56.81 56.66 56.74 56.87 56.73 58.05
60.28 60.83 61.06 61.63 61.52 61.46 61.18 61.03 61.98 61.94 60.97 60.65 60.29 62.69 61.51 63.54 62.20 61.31 59.95 58.10 57.02 54.72 53.37 53.96 54.21 55.49 56.77 56.38 56.30 56.30 57.18 57.77
59.89 59.81 60.49 60.70 60.59 62.54 61.98 60.89 61.13 62.18 61.58 60.97 60.86 62.14 63.18 62.14 60.38 59.26 57.51 56.40 55.04 53.72 52.61 52.84 53.07 55.11 55.10 56.25 56.28 56.35 56.90 56.76
59.15 59.43 59.37 59.69 60.02 61.48 62.48 61.57 61.07 60.91 61.19 60.85 61.57 62.70 62.36 60.47 58.74 56.80 55.81 54.06 53.05 53.40 52.46 52.89 52.93 55.18 55.06 55.84 56.07 55.75 56.43 56.40
58.70 60.07 59.01 59.79 59.58 60.05 62.37 61.48 61.53 61.71 61.65 61.69 61.31 63.16 61.01 58.55 56.64 55.46 54.93 52.98 54.12 54.62 53.79 52.71 53.33 54.00 54.08 55.19 55.04 55.60 55.79 55.98
57.08 57.12 58.03 58.75 60.92 58.64 61.82 60.37 61.92 62.37 62.64 61.68 63.25 62.27 59.59 56.93 55.84 55.01 55.53 53.57 54.83 55.69 54.14 53.93 52.80 52.47 53.58 53.01 53.52 54.36 55.02 56.53
56.96 56.88 57.66 59.72 59.90 58.98 59.79 61.26 60.45 62.01 62.52 61.56 63.79 61.30 58.86 56.40 56.32 55.21 55.18 54.42 55.96 55.75 53.61 52.56 52.47 52.55 54.56 53.29 53.95 54.20 54.49 54.78
56.44 56.30 58.10 58.96 57.92 57.76 57.50 59.29 59.81 60.38 61.92 62.49 62.72 61.16 58.92 56.71 57.59 56.21 56.81 55.44 56.50 55.06 53.50 52.68 51.06 51.83 50.65 49.54 50.83 53.60 54.63 54.74
55.84 56.82 58.73 58.46 58.01 57.48 57.20 58.80 60.37 60.09 60.94 61.76 61.66 61.27 59.91 57.99 58.68 57.02 58.48 56.97 56.07 54.59 53.39 51.15 50.88 51.67 50.03 48.68 47.69 49.20 51.14 52.61
56.54 56.66 57.95 57.93 58.28 58.50 58.63 58.97 60.45 59.27 59.69 59.07 59.71 59.36 59.95 59.37 59.10 58.47 58.27 57.81 56.36 55.21 54.28 52.97 52.50 51.00 52.64 49.31 46.65 45.53 47.63 50.03
56.34 56.44 56.34 57.18 58.28 58.02 57.82 58.00 57.94 58.81 59.74 59.16 57.48 57.84 58.10 58.65 57.85 58.22 57.56 56.97 55.71 55.32 54.99 52.97 52.42 51.20 51.09 52.91 53.61 52.40 48.27 48.56
55.90 56.50 56.72 56.91 57.55 57.81 57.45 57.38 58.22 58.99 59.34 57.76 56.54 56.83 57.43 58.85 58.25 57.23 56.78 56.65 56.16 55.09 54.31 53.56 52.75 52.18 51.37 50.82 50.04 51.19 52.13 50.33
56.32 56.06 56.68 57.04 56.86 57.46 56.95 56.34 56.26 56.46 57.40 56.94 56.28 56.43 56.92 57.94 58.39 58.03 57.21 56.93 56.37 57.00 56.75 55.25 54.62 53.44 53.34 53.51 52.38 51.05 50.69 50.48
56.63 56.22 56.67 57.42 56.78 56.93 56.46 56.25 56.29 56.00 56.45 56.12 55.88 55.70 55.90 56.77 56.93 57.03 56.84 57.03 57.38 57.48 57.39 56.58 56.06 55.24 54.36 53.82 55.54 55.04 54.04 53.13
56.23 56.42 56.86 57.48 57.51 55.54 56.24 56.43 55.98 56.26 56.55 56.16 56.05 55.86 56.04 56.63 56.49 56.22 56.42 56.98 57.37 57.68 57.53 57.05 56.75 55.82 55.50 55.86 56.30 56.51 55.98 55.11

GFSFLT2_sfc_wetblb_105.txt.gz
Wetbulb
66.52 67.49 69.29 69.75 69.27 69.38 68.93 69.18 68.55 68.01 67.42 67.44 67.04 66.84 66.57 66.75 66.62 67.68 67.85 67.85 68.08 67.49 66.98 66.24 65.28 64.61 64.28 63.61 62.58 62.08 59.34 61.03
65.03 65.57 66.20 66.34 67.54 68.26 68.06 67.92 66.82 66.60 66.15 65.51 65.63 65.86 65.53 64.79 65.95 66.46 66.99 67.46 67.47 66.80 66.14 65.02 64.16 63.86 63.52 62.64 62.03 61.53 58.33 57.67
63.97 64.33 64.49 64.29 64.72 65.84 66.93 66.93 66.78 66.42 65.79 65.03 64.55 65.17 65.46 65.66 65.37 65.89 66.61 66.94 66.64 66.21 65.30 63.76 62.88 63.65 62.95 62.32 61.11 58.46 57.82 57.09
63.06 63.50 63.27 63.16 65.14 64.60 64.05 65.37 65.58 65.65 65.24 64.45 63.84 63.73 63.95 63.96 64.71 65.33 65.92 66.13 65.82 65.55 64.24 62.60 61.92 60.76 60.97 60.73 58.65 58.08 57.36 56.62
61.62 61.96 62.91 64.01 63.26 63.48 64.36 64.91 64.84 64.75 64.04 63.21 62.73 63.01 63.51 62.27 63.15 64.58 64.51 64.91 63.06 63.01 61.09 56.55 57.70 59.16 56.70 57.56 57.58 57.12 56.19 56.83
60.94 61.17 63.27 64.54 63.01 62.13 62.15 63.35 62.29 62.08 63.25 62.54 61.57 61.35 61.51 61.67 63.64 64.51 63.17 62.15 60.35 59.95 56.36 55.11 55.16 55.89 56.90 56.97 56.88 56.77 55.72 56.67
59.81 60.50 61.74 62.65 62.72 61.92 60.78 62.00 61.80 60.90 61.57 61.13 61.36 60.50 60.94 61.96 63.42 63.23 62.10 59.83 59.30 57.93 55.00 54.12 54.61 56.04 56.55 56.34 55.86 55.89 56.38 57.04
59.22 60.03 60.63 60.62 60.52 61.92 61.44 61.42 62.00 61.07 61.01 60.55 60.40 61.23 60.94 61.73 62.36 62.17 60.26 59.72 58.04 56.65 54.69 54.42 54.14 55.11 55.07 56.04 55.78 56.13 56.28 56.30
59.16 58.98 59.12 59.47 59.31 62.12 61.85 60.94 61.42 61.96 60.95 60.86 59.98 61.92 61.32 62.68 62.06 60.78 59.62 57.91 55.21 53.07 52.27 52.24 52.90 55.41 54.62 55.57 55.79 55.68 56.23 56.14
58.66 59.86 58.20 58.36 58.43 62.00 62.02 61.91 61.05 60.99 61.62 61.58 60.66 61.74 62.32 61.79 60.79 58.95 57.17 55.01 54.63 53.83 52.56 51.46 53.90 54.56 53.73 54.14 54.73 55.52 55.42 55.58
58.12 57.44 57.30 57.96 58.19 59.01 61.97 61.55 60.46 61.13 61.37 60.85 60.81 60.86 62.58 61.32 59.22 56.73 54.81 54.01 54.03 53.35 51.00 52.21 52.88 53.44 53.68 52.90 53.80 54.37 55.07 56.31
57.24 56.34 56.50 57.64 59.11 59.13 60.54 60.72 61.14 62.10 61.92 61.45 60.59 61.88 60.72 59.73 56.78 54.31 53.47 53.23 53.24 52.29 52.31 51.44 52.36 53.15 54.60 53.21 52.60 53.20 54.13 54.37
55.84 55.75 56.00 57.50 58.65 57.97 57.85 59.11 59.59 60.58 62.06 61.23 61.55 60.17 59.35 57.35 54.68 53.62 52.21 52.85 53.81 52.79 51.97 51.63 50.43 52.36 51.80 50.11 50.80 52.23 52.64 53.74
55.33 55.56 56.76 57.18 57.56 56.56 58.06 58.97 60.14 59.55 60.90 61.47 60.75 59.11 57.33 56.42 54.07 53.13 52.16 53.88 54.18 53.20 52.20 50.35 50.09 51.95 50.08 48.96 46.29 48.62 51.51 52.74
55.44 56.52 56.98 56.94 58.19 57.80 57.90 58.05 59.61 59.15 59.48 61.28 59.74 58.27 56.96 56.63 54.65 53.98 53.68 55.65 54.54 53.40 53.02 50.96 51.10 49.41 51.98 49.52 45.73 45.80 47.04 49.50
55.52 57.21 55.72 56.14 56.84 57.02 57.15 56.58 57.48 58.74 59.01 59.89 60.35 58.77 57.94 58.34 55.73 55.74 55.61 56.82 55.89 54.60 54.47 52.53 52.41 50.60 49.51 53.24 53.05 50.84 47.27 46.01
55.92 56.02 54.65 55.38 57.45 57.45 56.40 57.94 58.77 59.13 58.02 57.52 58.94 59.40 58.72 59.03 58.39 57.81 57.01 57.16 56.54 55.52 53.88 52.61 53.66 52.26 51.86 50.23 50.36 51.68 51.29 49.19
55.13 56.30 56.22 55.70 56.28 57.69 57.52 57.36 57.66 58.16 57.44 55.86 57.26 58.28 58.13 58.28 58.25 57.82 56.74 56.33 55.40 55.06 54.28 53.67 53.60 52.91 52.43 52.20 51.31 50.62 50.31 50.63
55.08 55.52 54.99 55.78 56.35 57.21 57.01 57.23 57.63 57.87 57.68 56.32 55.60 56.62 57.52 57.59 57.95 57.31 56.72 56.63 56.84 56.74 56.20 55.66 54.18 53.05 52.82 52.89 54.30 53.13 53.60 52.25
55.48 54.93 54.87 55.84 54.97 56.57 56.83 56.76 56.99 57.62 57.93 57.22 56.41 56.80 57.59 58.17 58.29 57.78 57.63 57.07 56.87 57.26 56.70 56.48 56.18 55.15 54.73 55.07 54.16 55.33 55.19 54.38

GFSFLT2_sfc_wetblb_111.txt.gz
Wetbulb
71.37 71.65 70.90 69.54 69.15 68.72 69.01 69.21 69.05 68.70 68.46 68.06 68.10 68.33 68.32 68.88 68.62 68.66 68.95 68.74 68.78 68.46 67.26 67.21 67.07 66.19 65.41 64.28 64.04 65.43 67.78 67.56
70.84 71.22 71.45 71.96 72.01 68.25 67.94 68.00 67.58 67.48 67.35 66.43 66.47 66.46 66.96 67.48 67.23 67.84 68.38 68.39 68.02 67.62 66.53 66.08 65.34 64.97 64.04 63.58 63.40 64.50 67.35 66.79
69.89 70.41 70.82 70.49 70.36 71.15 68.66 67.58 67.13 66.75 67.14 65.81 65.15 67.46 67.19 65.79 66.22 66.96 67.54 67.42 67.36 66.44 65.99 65.08 64.39 63.69 63.47 63.09 63.46 65.99 66.05 65.88
69.02 69.90 69.44 68.43 68.25 69.46 70.99 69.57 68.69 68.22 68.40 67.37 67.65 67.24 67.12 66.53 66.32 66.17 66.95 67.00 66.54 65.81 65.24 64.22 64.74 65.87 64.42 62.13 64.84 64.70 64.89 64.36
67.95 68.83 70.02 68.38 67.38 67.64 68.27 67.69 67.76 67.55 67.43 67.65 66.94 66.63 66.71 66.89 65.48 66.79 67.23 67.02 66.60 65.61 64.62 64.02 65.31 64.89 63.79 63.76 63.61 63.85 63.68 63.88
67.42 68.19 68.28 68.08 67.33 66.66 66.36 66.35 66.65 65.68 65.52 66.08 66.76 66.01 65.97 65.62 64.24 65.09 65.43 67.22 66.04 64.96 62.23 63.03 64.15 63.96 63.35 62.80 62.89 62.71 62.89 62.73
66.43 67.23 67.58 66.66 65.72 65.43 65.67 65.14 66.38 65.84 64.27 64.65 65.21 66.15 65.34 65.45 64.89 64.86 65.28 65.05 64.79 62.22 62.30 61.72 62.98 62.60 62.66 62.37 62.08 62.00 62.17 62.11
65.89 66.24 66.31 65.21 64.97 64.27 64.71 65.25 65.67 66.84 64.54 63.72 63.88 64.39 64.33 64.45 64.38 64.97 63.83 64.95 63.42 62.04 62.01 60.73 61.96 62.38 61.90 62.15 61.72 61.57 61.83 62.10
64.58 65.27 65.79 64.77 64.70 64.05 63.74 64.11 64.09 64.19 64.68 64.02 63.79 63.65 63.70 63.98 64.55 63.34 63.97 64.38 62.68 61.34 61.38 61.43 61.22 61.48 61.27 61.15 61.16 61.33 61.55 61.66
64.33 64.29 64.46 63.62 63.86 64.37 63.42 63.17 63.07 62.55 62.84 62.76 63.11 63.42 63.64 63.32 63.42 63.19 64.06 62.87 62.06 60.52 60.56 60.38 60.08 59.86 60.49 60.07 60.49 60.68 61.47 61.72
63.37 64.35 64.35 62.59 63.23 63.65 62.91 63.41 62.89 62.60 62.44 61.97 62.18 62.66 63.02 62.58 64.08 63.01 63.44 62.18 61.83 59.24 59.85 60.23 58.92 59.26 59.68 59.77 60.12 60.44 60.89 60.92
63.63 63.98 64.19 62.74 62.88 63.07 63.00 63.51 62.70 63.58 62.93 62.26 61.84 61.81 61.91 62.11 62.79 62.66 61.36 59.75 59.51 59.58 58.71 59.93 59.72 59.55 57.80 58.31 59.56 60.03 60.61 60.56
62.69 62.81 62.72 61.57 61.23 60.46 60.25 59.62 61.42 61.76 62.09 62.12 62.01 61.48 61.75 61.84 61.89 60.15 59.79 58.80 58.64 59.88 58.56 58.13 57.60 59.66 57.36 57.12 57.90 58.82 59.49 59.86
61.18 62.03 61.16 61.50 61.11 60.73 62.52 61.95 61.56 62.13 62.54 62.61 62.89 61.59 61.40 61.67 60.95 59.27 58.36 57.20 57.13 57.92 58.75 57.50 57.32 58.76 56.96 56.44 53.32 55.50 57.46 58.60
59.43 60.47 60.44 61.37 62.03 61.20 59.95 61.24 61.00 60.76 61.42 61.95 61.74 61.35 61.08 61.05 60.68 59.81 58.47 56.83 55.26 56.04 58.90 58.24 55.71 57.91 59.22 57.21 52.93 52.68 54.65 57.29
59.10 60.05 60.06 59.77 60.02 59.51 58.42 58.84 58.43 60.23 60.76 61.86 60.81 60.85 60.77 59.49 58.56 59.12 58.34 56.94 55.18 55.88 58.80 59.34 58.30 56.09 58.04 57.07 58.96 57.42 54.52 52.74
58.66 60.57 59.74 57.89 59.00 58.98 58.08 59.14 60.20 60.32 60.36 60.31 60.56 60.13 58.92 57.79 57.25 56.83 56.87 56.57 56.44 55.37 57.27 58.89 59.10 57.67 57.45 56.48 56.41 56.89 56.89 55.22
59.10 59.86 57.50 57.40 59.70 59.32 59.13 58.30 58.43 58.86 58.93 58.88 58.64 57.92 56.46 56.42 55.08 55.03 55.69 55.79 55.91 56.52 57.03 59.10 58.68 58.47 58.75 57.92 56.53 56.01 55.71 56.62
57.34 57.91 56.13 57.54 59.63 60.10 59.61 58.37 57.86 59.11 58.68 58.12 56.10 55.95 54.55 54.24 54.21 54.97 55.89 56.35 56.16 56.01 56.88 57.82 58.56 58.19 58.61 58.11 59.15 58.61 59.13 58.39
56.34 55.85 56.07 57.00 58.80 59.32 59.61 59.54 58.88 60.02 58.65 58.69 56.69 56.54 54.92 55.44 54.83 56.41 57.20 56.78 55.78 55.90 55.80 56.76 58.22 57.06 56.41 57.39 58.65 59.10 59.60 59.23

GFSFLT2_sfc_wetblb_114.txt.gz
Wetbulb
73.35 73.45 71.99 69.47 68.97 69.00 69.18 69.69 69.55 69.41 69.33 69.25 68.77 68.16 68.03 69.18 68.62 69.76 69.83 69.38 69.67 69.19 68.30 67.39 67.20 66.58 66.22 65.51 65.33 66.53 68.22 67.79
73.12 73.51 73.55 72.80 72.36 68.02 68.12 68.44 68.26 68.19 68.32 67.73 66.47 66.45 67.74 68.29 68.28 68.87 69.12 69.12 69.10 68.39 67.32 66.60 66.02 65.49 64.89 64.63 64.78 65.87 68.39 67.88
72.91 72.97 73.22 72.81 72.57 71.39 68.65 68.51 67.61 67.12 67.76 66.71 66.22 70.30 70.33 69.70 67.85 67.85 68.42 68.31 68.32 67.27 66.65 65.66 64.22 64.00 63.84 64.25 64.53 68.39 67.81 67.63
72.22 72.73 72.83 71.61 70.31 71.89 72.05 72.65 72.25 71.64 71.03 70.15 70.30 70.50 69.68 68.27 66.46 67.06 67.54 67.33 67.12 66.31 65.51 64.41 65.34 67.47 66.79 64.62 68.18 67.47 67.79 67.40
71.42 72.20 72.71 70.40 70.37 70.39 72.05 72.41 72.12 71.59 71.43 70.46 70.19 69.37 68.55 67.00 67.55 68.31 69.77 66.99 68.20 66.87 66.50 67.80 68.02 67.57 67.10 67.29 66.50 66.88 66.21 65.99
71.19 71.84 72.28 70.43 69.99 69.65 71.17 70.05 70.74 69.57 69.84 70.00 68.93 68.84 68.39 67.42 67.57 67.56 68.19 67.05 67.88 68.02 67.95 68.00 67.61 67.06 67.06 66.48 65.84 65.76 65.42 64.81
70.44 71.44 71.73 70.27 68.82 69.09 69.48 69.32 68.71 68.39 68.36 68.57 68.29 68.87 68.21 67.41 67.21 66.53 67.51 68.13 65.31 66.38 67.09 66.70 66.01 65.97 66.35 65.45 65.13 65.18 64.63 64.21
69.79 70.61 71.18 70.21 68.69 68.83 68.10 69.20 68.86 67.66 67.34 68.71 68.68 69.45 66.98 68.07 67.27 66.13 66.52 66.45 65.76 64.84 63.33 64.97 64.67 65.35 65.29 65.08 64.91 64.64 63.72 63.57
68.56 70.02 70.77 69.82 69.51 68.98 68.12 68.66 69.12 66.89 66.60 67.76 67.54 67.14 66.46 67.20 67.25 67.59 65.78 66.90 66.31 63.83 62.67 64.37 63.89 64.80 64.42 64.86 64.81 63.91 63.13 63.02
67.90 68.53 69.69 68.63 68.44 68.64 67.88 67.69 67.87 67.34 66.69 66.31 66.37 66.09 65.84 65.63 65.88 66.83 66.85 64.44 64.27 62.21 61.86 63.66 63.69 64.06 63.19 64.03 64.03 63.38 63.12 62.60
66.63 68.50 68.98 68.36 68.80 67.49 66.67 66.87 66.32 66.00 65.49 66.18 66.73 65.97 65.39 65.07 63.98 66.72 65.88 63.87 64.68 62.31 61.53 64.06 62.89 63.28 62.76 63.35 63.51 62.76 62.75 61.79
66.65 67.60 68.42 67.40 66.67 65.68 65.96 66.01 65.39 64.87 65.11 64.43 65.25 64.58 64.65 64.18 63.29 63.57 64.21 62.89 63.65 62.52 62.36 63.56 63.22 63.03 61.42 61.64 62.52 62.25 62.65 61.65
65.76 66.47 67.68 64.46 63.94 63.37 64.03 64.00 63.63 64.55 65.69 63.72 63.11 63.61 63.15 63.37 62.51 62.80 62.81 61.95 63.74 62.97 63.65 62.71 62.04 62.92 60.78 60.15 60.53 61.19 61.48 61.30
65.15 66.10 67.00 63.63 64.04 65.34 64.80 62.78 62.93 62.99 64.00 63.88 63.88 62.56 62.29 62.50 62.12 62.02 61.47 61.97 61.52 60.86 62.65 62.20 61.69 63.17 59.66 59.26 55.31 57.31 60.13 61.13
64.86 65.85 66.81 65.59 66.84 64.53 65.53 65.02 63.53 63.75 63.63 63.70 63.16 62.77 62.30 61.95 61.86 60.99 60.65 60.65 59.58 59.57 62.07 62.35 60.19 61.96 62.64 59.42 55.19 54.34 57.46 60.11
64.50 65.62 65.39 65.53 66.86 64.89 64.44 62.76 61.32 62.68 63.61 64.09 63.19 64.67 64.06 62.06 61.79 60.42 59.80 59.96 59.40 58.48 59.68 60.45 62.04 59.69 61.36 61.06 60.93 59.94 55.81 54.80
61.89 63.44 63.80 64.91 66.19 65.61 63.90 62.43 62.91 62.71 63.93 63.93 64.27 63.61 62.58 62.37 61.32 60.44 59.58 58.89 58.38 57.87 58.87 59.27 60.54 61.87 60.82 59.63 60.43 59.91 60.47 57.19
60.45 62.18 61.69 62.11 63.44 64.33 63.42 62.21 61.24 61.52 62.11 62.56 62.43 62.27 61.45 60.53 59.70 59.91 59.28 58.25 57.38 57.96 58.33 59.16 62.26 62.35 61.75 60.71 59.31 58.31 58.09 57.51
59.47 61.15 59.98 59.70 61.17 62.00 62.68 62.17 60.19 60.19 59.95 61.64 60.51 59.37 57.23 57.59 57.95 57.83 58.13 57.66 57.04 57.76 58.12 58.83 61.35 61.60 61.20 61.40 60.66 60.05 59.99 58.56
58.66 59.74 58.78 59.29 61.46 61.87 62.23 61.31 61.18 61.15 62.60 61.58 60.02 58.60 57.05 56.33 55.83 56.47 56.81 56.92 56.86 56.71 57.16 57.91 59.62 61.11 62.30 61.65 60.79 60.40 60.91 60.32

GFSFLT2_sfc_wetblb_117.txt.gz
Wetbulb
73.58 72.85 71.75 70.04 69.93 69.90 69.78 69.93 70.32 70.50 70.38 69.71 68.05 67.04 67.31 67.18 67.72 68.88 68.45 69.59 70.23 69.59 68.72 68.09 67.98 67.29 67.14 66.40 66.06 66.29 68.97 67.84
73.35 73.36 73.09 73.02 72.79 68.63 68.88 68.97 68.88 68.72 68.98 68.22 66.57 66.41 67.33 67.25 68.40 68.79 69.36 69.68 69.64 68.85 67.69 67.47 66.97 66.39 65.99 65.66 65.49 65.42 68.05 68.27
73.07 73.14 73.46 73.55 73.13 71.52 69.11 68.86 68.19 67.85 68.68 66.89 65.93 69.24 67.76 68.89 68.35 68.32 69.02 68.94 68.45 67.47 66.97 66.24 65.28 65.24 65.26 65.17 65.51 68.68 67.92 68.15
72.45 73.04 73.16 73.33 71.50 72.59 71.89 72.02 71.88 71.50 71.99 71.11 71.25 70.77 70.04 69.47 68.09 67.57 68.24 67.40 67.13 66.75 66.01 64.80 65.60 68.07 66.85 64.76 67.90 67.80 67.20 67.46
72.03 72.73 73.34 73.19 71.74 72.08 71.53 71.64 71.82 72.00 71.53 71.61 71.71 70.25 71.67 69.79 69.76 68.79 69.78 67.85 68.36 67.20 64.96 68.21 68.08 67.85 67.63 68.18 67.55 67.80 66.34 65.73
72.07 72.40 72.63 73.02 72.15 71.60 71.90 71.42 71.74 71.37 71.53 72.05 70.51 69.70 69.85 69.29 67.42 66.68 68.15 69.64 68.32 66.08 67.72 68.69 67.76 67.75 67.62 67.23 65.86 66.76 65.05 66.07
71.58 72.20 72.70 72.21 71.85 71.18 71.55 71.64 71.57 71.93 71.35 71.87 70.68 69.80 68.59 68.46 68.16 68.10 68.15 69.11 68.80 66.17 67.73 68.04 67.60 67.19 66.74 65.57 65.55 65.01 64.69 65.72
70.73 71.72 72.48 72.95 69.95 70.68 71.15 71.22 70.89 70.90 70.68 71.01 70.57 69.69 69.90 68.42 68.84 67.81 66.62 68.66 67.44 65.11 65.28 66.39 66.65 65.96 65.57 65.46 64.79 64.68 64.14 64.35
69.12 71.24 72.67 72.53 70.29 69.95 70.40 70.47 70.47 70.10 69.53 71.10 70.35 69.93 69.58 68.94 68.23 67.50 67.43 68.45 65.53 63.99 63.49 63.94 66.38 65.25 63.87 64.51 64.49 64.50 63.17 63.16
67.50 69.01 71.73 72.76 71.42 71.14 70.18 69.54 69.56 69.55 68.61 69.81 70.18 69.24 68.95 69.12 68.16 68.18 68.25 67.62 64.88 63.28 63.72 63.03 62.04 63.21 63.79 63.00 62.83 63.50 62.89 62.91
65.33 69.64 70.36 72.27 71.64 70.73 70.53 69.87 69.34 69.05 68.75 68.21 68.93 68.58 68.27 68.05 67.78 67.95 67.73 66.88 66.01 63.60 62.68 61.54 60.69 61.41 62.72 62.67 63.43 62.60 62.42 61.67
64.60 68.09 70.33 72.14 71.03 70.33 69.79 68.89 67.22 67.93 67.51 67.70 68.22 68.41 67.73 67.32 67.70 67.58 67.43 66.11 64.61 62.00 61.61 61.48 61.07 61.73 61.32 61.30 61.46 62.09 62.61 61.37
64.97 66.26 69.17 70.23 68.76 67.70 65.89 65.26 65.06 65.90 66.31 66.62 67.35 67.39 66.72 67.15 66.32 66.24 64.40 63.12 62.63 62.77 61.92 60.75 59.89 63.57 60.71 60.14 60.58 61.99 62.70 60.83
65.05 66.34 68.15 69.11 66.97 65.95 67.04 67.56 66.60 67.14 66.46 66.19 66.03 65.67 66.11 65.59 65.57 64.20 63.23 62.79 62.36 60.98 61.39 59.38 59.51 63.02 59.87 58.58 55.17 57.09 59.81 60.38
65.17 66.36 67.39 68.30 65.25 66.35 67.47 66.98 65.50 64.09 63.59 64.61 65.45 65.08 64.31 63.66 63.53 63.60 62.83 61.89 61.09 60.81 61.24 59.24 57.79 60.60 62.28 59.06 55.30 53.86 56.88 59.77
65.79 66.36 66.87 67.55 65.90 66.47 66.80 64.70 62.61 64.22 64.61 64.94 64.75 65.66 64.40 63.13 62.61 62.29 62.17 61.92 61.35 60.57 61.72 61.42 60.23 59.03 61.18 61.55 61.94 60.35 55.61 54.51
66.18 66.59 66.86 66.94 66.78 67.20 66.56 66.25 65.23 65.09 64.70 64.82 64.41 64.73 64.88 63.52 62.31 61.63 60.78 61.13 61.13 60.28 60.21 60.78 60.60 61.03 60.83 60.22 60.61 60.83 60.60 57.38
65.51 65.50 66.28 66.53 66.26 67.26 66.52 66.13 65.17 64.08 63.78 63.51 63.54 64.30 65.12 63.65 63.23 61.62 60.48 60.50 60.21 59.74 60.12 60.34 60.42 60.89 62.10 61.88 60.77 59.02 58.54 59.10
61.72 62.75 64.04 64.57 65.25 66.40 66.40 66.00 65.12 64.04 63.75 63.12 63.20 63.31 63.01 63.21 62.65 61.10 60.27 59.84 59.64 59.31 59.25 59.68 59.53 59.48 59.51 60.34 62.56 61.29 61.38 60.58
59.46 60.91 61.77 61.72 63.91 65.16 65.39 65.42 64.48 63.57 63.24 63.12 62.65 63.00 62.67 61.96 61.54 60.27 59.91 59.37 59.22 58.74 58.92 59.30 59.36 59.35 58.80 59.81 61.40 61.55 60.92 60.85

GFSFLT2_sfc_wetblb_120.txt.gz
Wetbulb
71.42 70.87 70.98 70.35 70.04 70.04 69.99 70.38 70.47 71.08 70.61 69.00 67.85 68.40 67.97 68.66 68.97 67.63 66.25 67.78 69.24 69.61 68.47 68.44 68.37 68.00 67.38 66.18 65.27 66.50 66.49 67.01
71.48 71.66 71.40 71.46 70.78 68.90 68.95 69.10 69.24 69.27 69.25 67.61 66.62 66.00 66.59 67.72 68.32 68.67 68.44 68.70 69.60 68.50 67.87 67.88 67.55 66.83 66.41 65.52 65.30 66.42 65.89 66.39
72.08 71.65 71.74 72.24 71.84 70.33 68.92 69.35 68.56 68.27 68.70 67.30 65.60 66.57 66.87 66.65 66.75 67.36 68.36 68.28 68.67 67.73 67.12 66.32 65.33 65.39 65.10 64.70 65.18 65.67 65.48 65.90
71.82 72.12 71.97 72.35 71.35 70.70 70.47 70.55 70.45 70.48 70.24 67.55 68.20 68.50 66.89 67.19 67.65 67.50 67.69 67.69 67.40 66.83 66.38 65.39 65.52 65.27 64.94 64.46 65.42 65.86 65.80 65.36
71.40 72.00 72.57 72.27 70.70 71.15 70.26 70.63 70.26 70.13 70.55 69.85 69.70 69.10 68.84 67.86 67.86 67.68 66.77 67.26 66.70 65.99 65.15 65.34 66.06 65.90 65.21 64.61 65.20 65.06 65.20 64.86
71.14 71.82 72.35 72.35 70.94 70.65 70.58 69.36 70.19 70.09 69.77 70.31 69.53 68.56 67.98 67.52 67.28 66.75 66.55 66.63 65.94 65.79 64.72 64.96 65.05 65.25 65.41 65.11 64.49 64.60 64.20 63.92
70.50 71.49 71.81 72.16 70.88 70.33 70.60 69.50 69.97 70.11 70.19 70.20 69.43 68.34 67.47 67.42 66.29 65.88 65.67 67.00 66.03 65.43 64.65 64.50 64.27 64.86 65.38 64.87 64.19 63.91 64.07 63.02
70.49 70.58 71.82 72.22 70.77 70.38 69.77 71.15 70.10 70.73 70.45 70.15 69.58 68.11 67.75 66.63 65.66 65.94 66.23 66.66 66.59 65.42 64.30 64.37 64.02 64.47 64.10 63.80 63.37 62.26 63.53 62.14
70.11 70.37 71.51 71.89 70.33 70.31 70.15 70.51 70.16 69.59 69.48 70.28 69.35 68.48 67.70 66.30 65.69 65.56 65.79 66.32 65.81 64.09 63.46 63.12 63.97 64.15 63.20 63.59 62.17 61.93 60.98 61.72
68.54 70.66 70.67 71.37 70.32 69.42 69.26 69.35 69.45 69.19 68.16 69.28 69.20 68.44 67.78 66.73 65.69 65.10 65.52 65.81 64.76 63.20 62.62 61.95 61.91 62.02 61.25 60.74 60.92 60.86 60.18 60.66
65.65 68.25 69.64 70.56 70.22 69.51 69.10 68.84 69.04 68.69 68.49 68.04 69.01 68.39 67.56 66.45 65.85 65.28 65.56 65.14 63.47 62.46 62.29 62.04 60.90 60.80 61.06 60.50 60.72 59.69 58.50 60.41
65.34 67.42 69.10 70.33 70.78 69.75 69.33 68.60 68.16 68.70 68.23 67.50 67.93 67.80 67.29 66.40 65.77 65.23 65.12 64.33 63.06 62.18 61.43 61.66 61.00 60.66 61.53 60.32 60.68 59.37 58.70 57.45
63.75 66.45 68.24 69.36 69.04 67.89 67.39 66.56 66.45 66.47 66.65 66.75 66.20 66.79 66.50 65.90 65.23 64.81 64.75 63.87 62.90 62.11 61.55 60.22 59.36 59.93 59.13 58.51 58.54 58.78 59.61 56.80
63.80 63.73 67.74 68.59 69.07 68.49 67.78 66.97 65.13 64.94 65.58 65.55 65.55 66.15 65.91 65.28 64.86 64.08 64.08 63.60 62.58 61.88 61.09 59.83 59.07 59.87 58.13 56.64 53.46 55.64 57.77 58.04
63.27 63.65 65.28 67.69 68.64 67.34 65.95 65.08 65.20 64.49 64.86 64.60 64.73 64.98 65.35 64.85 64.55 63.97 63.42 62.91 61.72 61.49 61.07 59.88 57.47 58.75 59.61 56.02 52.55 51.05 53.92 57.13
64.04 63.97 64.45 66.68 67.39 65.40 64.72 63.54 63.02 63.71 63.50 63.64 63.90 64.35 63.95 63.86 63.62 63.80 62.93 62.90 61.67 61.42 61.43 60.08 58.80 56.95 58.92 59.63 57.79 56.00 51.89 50.52
63.60 64.22 64.64 66.75 65.88 64.97 64.50 64.21 64.25 63.81 63.74 62.46 62.93 63.73 63.58 63.02 63.24 63.06 62.55 62.43 61.85 61.28 61.06 60.01 59.41 57.63 57.55 57.60 57.20 57.29 56.01 53.35
65.05 64.57 64.42 65.86 65.24 65.43 64.59 64.65 63.62 63.08 62.99 62.77 62.48 62.90 63.20 62.78 62.18 61.72 62.09 61.67 61.45 61.16 61.14 60.53 59.39 58.91 58.90 58.48 57.21 55.81 54.94 54.52
64.07 63.85 63.60 65.43 65.52 65.05 65.23 65.05 65.29 63.88 62.52 62.38 62.07 62.44 62.51 62.75 61.91 61.33 60.79 61.03 61.17 61.33 60.77 60.70 60.26 59.00 59.17 58.57 58.88 58.17 57.90 57.02
60.78 60.91 61.53 64.41 64.87 64.87 65.01 64.43 64.53 63.84 63.36 62.45 62.09 62.09 62.13 62.83 62.06 61.67 60.87 60.79 60.70 60.14 60.09 60.29 60.70 59.74 59.24 59.24 59.45 59.06 58.80 57.44

GFSFLT2_sfc_wetblb_123.txt.gz
Wetbulb
68.19 68.80 70.03 70.00 69.65 69.76 69.67 69.75 69.64 70.56 69.76 69.10 69.06 68.57 67.61 67.77 68.17 67.19 67.67 68.09 68.25 68.00 68.57 67.32 67.67 66.96 66.58 65.65 65.16 66.56 66.13 66.37
67.68 67.84 68.42 67.83 67.92 68.67 68.73 68.93 68.98 69.45 68.62 67.97 67.25 67.12 67.33 67.48 68.12 67.16 66.81 67.09 67.83 69.49 67.99 67.18 66.98 65.63 65.35 64.71 65.20 66.11 65.36 65.73
68.01 68.04 68.44 68.08 67.61 68.69 68.64 68.89 68.85 68.60 68.04 66.89 65.89 65.53 65.33 67.25 67.56 67.36 67.84 67.70 68.02 68.55 67.68 66.89 65.34 64.94 64.82 64.19 65.36 65.38 65.22 64.19
68.10 68.10 68.20 68.76 69.81 67.68 67.36 68.49 67.45 67.86 67.61 65.85 64.56 64.36 64.97 66.11 65.96 67.01 67.62 67.53 67.75 67.57 66.82 65.99 65.66 65.37 64.36 64.39 64.72 65.09 64.91 64.01
68.24 68.83 68.77 68.89 68.45 67.27 67.83 68.08 67.99 67.92 67.11 65.79 65.22 66.10 64.97 64.07 65.18 65.78 65.85 66.94 66.40 66.02 65.60 64.99 65.09 65.05 64.35 63.83 63.96 64.56 64.29 64.38
68.67 69.07 69.35 69.04 67.75 67.66 67.72 68.04 67.52 67.43 67.63 66.69 66.76 66.38 63.81 64.82 65.69 64.88 65.38 65.19 64.87 64.78 64.49 63.68 64.67 65.04 64.67 64.49 63.94 64.05 63.07 63.57
68.41 69.27 69.54 69.43 67.78 67.93 67.61 67.01 67.80 67.74 67.63 67.99 67.98 66.40 65.27 65.30 65.20 64.28 64.88 64.77 63.99 63.24 63.20 62.92 63.32 64.54 64.71 64.60 62.59 63.54 62.78 63.30
68.48 68.77 69.83 69.49 67.89 67.44 67.23 67.01 66.85 67.78 67.67 68.18 67.44 66.36 65.71 65.27 64.35 64.41 64.38 64.94 64.16 63.42 62.88 62.71 62.97 63.87 64.10 63.83 62.87 62.96 62.35 62.17
67.78 68.51 69.52 69.25 68.38 67.53 67.41 67.64 67.22 67.21 68.05 67.94 66.98 66.34 65.93 65.02 64.23 64.24 64.84 65.03 64.44 63.33 62.71 63.35 63.15 63.67 63.09 63.19 61.85 62.29 61.75 61.60
67.97 69.17 69.03 69.30 68.75 68.02 67.47 67.41 66.71 66.71 67.43 68.04 66.89 66.09 65.80 64.71 63.84 64.01 65.12 64.73 64.26 62.56 62.45 62.10 62.12 62.25 61.62 61.44 59.60 61.61 61.28 60.69
67.18 67.89 68.54 69.01 68.46 68.05 66.71 66.25 65.95 66.24 65.70 66.51 67.03 66.29 65.69 64.64 63.79 63.30 64.36 63.98 62.93 62.02 60.17 61.48 60.96 61.11 61.32 60.81 59.28 60.15 59.90 60.24
67.17 67.64 68.05 69.06 68.36 67.18 66.56 65.68 65.12 66.56 65.88 65.76 65.77 66.74 65.76 64.80 63.74 63.25 64.14 63.51 61.34 60.86 60.21 59.68 60.43 60.91 62.03 61.53 58.95 58.76 59.39 58.31
65.32 66.56 67.30 68.36 67.10 66.03 65.75 65.16 65.25 64.43 66.25 66.26 65.06 66.29 65.46 64.52 63.95 63.19 63.73 63.25 62.02 60.69 60.01 59.72 59.37 60.67 59.13 58.15 58.39 57.18 56.83 57.81
61.41 65.30 66.89 67.93 68.17 67.41 66.42 65.81 65.13 64.82 66.62 66.37 66.40 66.22 65.53 64.29 63.58 62.95 63.33 63.01 61.29 60.40 59.97 59.36 57.62 60.34 58.03 57.14 54.03 55.45 57.06 56.95
60.41 63.89 66.72 67.42 67.56 66.67 63.94 63.20 62.66 62.39 63.98 64.18 64.58 65.02 64.91 63.65 63.15 62.86 62.63 63.11 61.87 60.61 60.16 59.36 57.61 58.72 59.61 56.66 52.71 51.70 53.92 55.95
59.08 61.37 65.48 66.65 66.95 66.12 64.43 63.56 61.78 61.93 63.15 64.10 63.97 64.40 64.57 64.05 63.00 62.91 62.09 62.77 62.53 61.64 61.07 59.94 59.32 57.41 58.83 59.82 57.21 55.32 52.58 51.54
59.44 59.64 62.92 65.18 65.91 65.58 63.94 63.11 63.08 63.06 63.66 63.30 63.28 63.33 63.33 63.21 63.12 63.05 62.70 62.87 62.41 61.62 60.82 60.11 59.73 58.31 58.10 58.26 57.25 55.66 55.58 53.53
57.76 58.73 60.57 64.67 64.31 64.31 64.06 63.02 61.68 62.10 62.00 61.48 61.57 62.36 62.39 62.21 62.41 62.58 62.72 62.26 61.81 61.58 61.51 60.45 59.64 58.67 58.67 59.06 57.12 55.19 53.54 53.42
58.52 58.84 61.38 61.77 62.60 62.84 62.96 61.95 61.99 61.58 61.29 60.85 59.99 60.27 61.71 61.52 61.60 61.53 61.40 62.03 61.87 61.38 61.05 60.53 59.66 58.59 58.03 58.42 58.67 57.56 56.56 55.39
57.15 57.52 57.82 61.36 61.62 62.59 62.61 62.28 63.03 62.82 62.75 61.55 61.18 61.05 61.54 62.22 61.45 60.75 60.71 60.92 61.08 61.11 60.89 60.73 60.19 59.50 58.12 58.58 58.63 58.57 57.72 56.94